     2              OBSERVATION DATA    GPS                 RINEX VERSION / TYPE
teqc 2003Nov3 Frederique Rolandone20040802 22:58:27UTC      PGM / RUN BY / DATE
                                                            COMMENT
42-44 dBHz = 7, 45-48 dBHz = 8, >= 49 dBHz = 9              COMMENT
42-44 dBHz = 7, 45-48 dBHz = 8, >= 49 dBHz = 9              COMMENT
42-44 dBHz = 7, 45-48 dBHz = 8, >= 49 dBHz = 9              COMMENT
42-44 dBHz = 7, 45-48 dBHz = 8, >= 49 dBHz = 9              COMMENT
42-44 dBHz = 7, 45-48 dBHz = 8, >= 49 dBHz = 9              COMMENT
42-44 dBHz = 7, 45-48 dBHz = 8, >= 49 dBHz = 9              COMMENT
Original Marker Name: tum_                                  COMMENT
Campaign Name: UC Berkeley Central Calif 2003-2004          COMMENT
4-Character Station Name: TUM_                              COMMENT
6-Character Antenna Code: TRZEPH                            COMMENT
Vertical Measurement Point: MGP                             COMMENT
Vertical Offset to Rinex Ref. Point: 0.0443                 COMMENT
Radial Measurement Point: OGP                               COMMENT
Radial Offset to Rinex Ref. Point: 0.1698                   COMMENT
Antenna Height from Field Measurement: 1.0234 m             COMMENT
Original XYZ: 0.0000 0.0000 0.0000                          COMMENT
New XYZ position is based on association with SCEC monument COMMENT
E1F7A9U2+0011. Position of that monument is believed to be  COMMENT
valid to within 1 m horizontally; vertical accuracy         COMMENT
should be no worse than 3-times this value.                 COMMENT
                                                            COMMENT
Revised Rinex header created by UCSD GPS archive for        COMMENT
GSAC on 04-Feb-2005 (2005:035) 16:35:10 GMT                 COMMENT
For assistance contact dagnew@ucsd.edu                      COMMENT
or anderson@python.ucsd.edu                                 COMMENT
                                                            COMMENT
TUM 1962                                                    MARKER NAME
tum_                                                        MARKER NUMBER
F. Rolandone UNIV CALIF BERKELEY                            OBSERVER / AGENCY
220315190 TRIMBLE 5700 NP 1.30 / SP 0.00                    REC # / TYPE / VERS
560395 TRM41249.00                                          ANT # / TYPE
 -2614453.0000 -4409313.0000  3783065.0000                  APPROX POSITION XYZ
        0.9649        0.0000        0.0000                  ANTENNA: DELTA H/E/N
     1     1     0                                          WAVELENGTH FACT L1/2
     4    L1    L2    C1    P2                              # / TYPES OF OBSERV
    30                                                      INTERVAL
  2004     7    30     0     0   30.000000                  TIME OF FIRST OBS
  2004     7    30    15    10   30.000000                  TIME OF LAST OBS
                                                            END OF HEADER
 04  7 30  0  0 30.0000000  0  8G 1G13G23G16G 3G19G27G 8
 -49113263.85257 -38245725.39853  22728377.8444   22728375.9304
 -44839954.35958 -34918373.99457  20204516.6954   20204513.3364
 -51306637.52759 -39955728.58255  21509034.7974   21509029.3914
 -28836752.38757 -22446424.18452  24421029.7814   24421027.0704
 -17144513.53558 -13338313.82853  22923609.9224   22923608.2854
  -9508985.44957  -7387365.28953  23572782.5314   23572780.3554
 -32732566.74659 -25483075.57456  21483307.1254   21483304.8484
 -17623189.56657 -13708862.91053  22840741.9844   22840740.7194
 04  7 30  0  1  0.0000000  0  8G 1G13G23G16G 3G19G27G 8
 -49087788.52047 -38225874.55343  22733225.4844   22733224.1094
 -44902387.93049 -34967023.53346  20192635.9534   20192632.5904
 -51292319.26649 -39944571.52045  21511759.3134   21511754.5904
 -28788123.01646 -22408531.19542  24430283.6564   24430281.0594
 -17213897.29748 -13392379.07943  22910406.9694   22910405.2814
  -9634638.53547  -7485276.73243  23548871.7114   23548868.9924
 -32819799.54349 -25551049.17746  21466707.3054   21466704.9494
 -17746229.16847 -13804737.86943  22817328.5704   22817326.9344
 04  7 30  0  1 30.0000000  0  8G 1G13G23G16G 3G19G27G 8
 -49062025.49647 -38205799.52643  22738128.3444   22738127.5554
 -44964380.30549 -35015329.28247  20180839.2114   20180835.8284
 -51277630.48449 -39933125.74745  21514554.4774   21514549.6094
 -28739363.88346 -22370537.10442  24439563.0634   24439559.5704
 -17282739.84848 -13446022.63543  22897306.7504   22897304.7274
  -9760053.35547  -7583002.54043  23525006.5944   23525002.2114
 -32906882.78549 -25618906.23846  21450135.8594   21450133.7544
 -17869115.49247 -13900493.39443  22793944.0164   22793942.3834
 04  7 30  0  2  0.0000000  0  8G 1G13G23G16G 3G19G27G 8
 -49035974.96947 -38185500.48243  22743085.1884   22743084.9024
 -45025929.76249 -35063289.89846  20169126.9534   20169123.3134
 -51262571.25049 -39921391.29045  21517420.2734   21517415.3324
 -28690476.61746 -22332443.18042  24448864.7504   24448862.9924
 -17351039.48048 -13499243.10843  22884309.2274   22884307.4654
  -9885226.21148  -7680539.77343  23501186.6094   23501182.3554
 -32993815.87549 -25686646.29446  21433593.0004   21433590.6294
 -17991848.04747 -13996129.09443  22770588.8834   22770587.1844
 04  7 30  0  2 30.0000000  0  8G 1G13G23G16G 3G19G27G 8
 -49009643.61747 -38164982.60143  22748096.2504   22748095.7074
 -45087040.95349 -35110909.01946  20157497.6804   20157494.4224
 -51247148.05949 -39909373.25545  21520355.1024   21520350.2194
 -28641469.64546 -22294255.93542  24458190.8834   24458188.5124
 -17418800.66448 -13552044.00343  22871414.8984   22871413.0864
 -10010160.27747  -7777890.94643  23477412.2344   23477408.1054
 -33080605.02049 -25754274.18646  21417077.4454   21417075.0744
 -18114432.41847 -14091649.31443  22747261.5864   22747259.7584
 04  7 30  0  3  0.0000000  0  8G 1G13G23G16G 3G19G27G 8
 -48983038.27047 -38144251.19443  22753157.7584   22753157.7384
 -45147718.76649 -35158190.42047  20145951.0234   20145947.8634
 -51231367.56649 -39897076.79545  21523358.1174   21523353.1994
 -28592351.44946 -22255982.08542  24467538.2734   24467536.0084
 -17486028.41848 -13604429.25743  22858621.9304   22858620.1954
 -10134858.71947  -7875058.49543  23453682.4924   23453679.1804
 -33167256.65649 -25821794.93046  21400588.3834   21400586.0434
 -18236875.19947 -14187059.21544  22723961.2814   22723959.9694
 04  7 30  0  3 30.0000000  0  8G 1G13G23G16G 3G19G27G 8
 -48956162.53548 -38123309.15643  22758273.9144   22758271.5164
 -45207964.46549 -35205135.12847  20134486.6644   20134483.1334
 -51215233.50849 -39884504.84145  21526428.7424   21526423.5984
 -28543127.09046 -22217625.47142  24476904.4064   24476902.5314
 -17552724.28148 -13656400.05543  22845930.3444   22845928.1334
 -10259321.18447  -7972042.18243  23429998.3984   23429995.0274
 -33253773.39849 -25889210.56746  21384124.7814   21384122.2114
 -18359178.77347 -14282360.64043  22700687.5164   22700685.7934
 04  7 30  0  4  0.0000000  0  8G 1G13G23G16G 3G19G27G 8
 -48929012.75447 -38102153.52443  22763439.6954   22763438.8324
 -45267772.19949 -35251738.55747  20123105.4304   20123102.0314
 -51198742.12149 -39871654.44145  21529566.5704   21529561.4224
 -28493794.09846 -22179184.27542  24486293.3984   24486290.2734
 -17618882.39847 -13707951.82343  22833340.7894   22833338.4964
 -10383540.13347  -8068836.08343  23406360.2894   23406357.5004
 -33340151.28549 -25956518.00046  21367687.6254   21367685.0554
 -18481338.45348 -14377549.97443  22677441.5164   22677439.6134
 04  7 30  0  4 30.0000000  0  8G 1G13G23G16G 3G19G27G 8
 -48901594.75447 -38080788.92843  22768657.9694   22768656.4384
 -45327146.25449 -35298004.05846  20111807.0314   20111803.7544
 -51181898.96949 -39858529.94245  21532771.8364   21532766.8484
 -28444360.18746 -22140664.33541  24495699.8524   24495697.3714
 -17684506.76648 -13759087.68043  22820852.4534   22820850.5904
 -10507517.68047  -8165441.93843  23382768.4384   23382765.5984
 -33426395.42649 -26023721.20946  21351275.8984   21351273.4884
 -18603359.08648 -14472630.90343  22654221.6724   22654220.1764
 04  7 30  0  5  0.0000000  0  8G 1G13G23G16G 3G19G27G 8
 -48873916.89147 -38059221.79843  22773923.8444   22773923.6214
 -45386092.88749 -35343936.50047  20100590.0164   20100586.5944
 -51164712.69149 -39845138.07745  21536042.1804   21536037.4924
 -28394835.25446 -22102073.55842  24505124.6954   24505121.1954
 -17749603.75448 -13809812.59743  22808465.3754   22808463.7034
 -10631258.61347  -8261863.40343  23359221.1564   23359218.5044
 -33512513.57449 -26090826.26446  21334888.0784   21334885.5004
 -18725248.30948 -14567609.47943  22631026.8444   22631025.0784
 04  7 30  0  5 30.0000000  0  8G 1G13G23G16G 3G19G27G 8
 -48845970.88347 -38037445.76043  22779242.4614   22779241.8054
 -45444601.65249 -35389527.74347  20089456.0704   20089452.6054
 -51147174.74649 -39831472.17345  21539379.9064   21539374.6214
 -28345212.23445 -22063406.29042  24514567.1954   24514564.7624
 -17814163.18048 -13860118.64543  22796179.4144   22796178.0234
 -10754750.83646  -8358091.04643  23335720.9774   23335718.2974
 -33598496.91449 -26157826.24746  21318526.0864   21318523.0904
 -18846996.80147 -14662478.37543  22607859.1414   22607857.3754
 04  7 30  0  5 59.9990000  0  8G 1G13G23G16G 3G19G27G 8
 -48817760.14548 -38015463.42443  22784610.5734   22784610.4834
 -45502671.07849 -35434776.65047  20078405.9094   20078402.5464
 -51129288.11749 -39817534.57445  21542783.4724   21542778.6514
 -28295496.99245 -22024667.19342  24524027.7224   24524025.2614
 -17878183.30948 -13910004.41943  22783996.9254   22783995.6364
 -10877988.64546  -8454120.49143  23312269.9404   23312266.9054
 -33684344.37149 -26224720.37146  21302190.1284   21302187.3514
 -18968602.20748 -14757235.77644  22584717.8154   22584716.2574
 04  7 30  0  6 29.9990000  0  8G 1G13G23G16G 3G19G27G 8
 -48789287.50447 -37993277.02243  22790029.0194   22790028.1204
 -45560307.94948 -35479688.50246  20067437.8704   20067434.4054
 -51111056.57049 -39803328.21145  21546252.8234   21546247.7144
 -28245692.43045 -21985858.50942  24533505.2374   24533502.5264
 -17941671.39847 -13959475.64243  22771916.4724   22771914.3704
 -11000981.49247  -8549959.01043  23288865.1364   23288861.6904
 -33770065.82048 -26291516.29046  21285877.3624   21285875.1244
 -19090076.89148 -14851891.31144  22561602.2454   22561600.4684
 04  7 30  0  6 59.9990000  0  8G 1G13G23G16G 3G19G27G 8
 -48760542.53147 -37970878.39443  22795499.2614   22795497.9604
 -45617496.65648 -35524251.13347  20056555.4334   20056551.9764
 -51092469.17649 -39788844.55045  21549789.9094   21549785.1594
 -28195790.25845 -21946973.79941  24543001.6834   24542998.3664
 -18004612.17247 -14008520.40143  22759938.1594   22759936.8664
 -11123710.18047  -8645591.70643  23265510.3084   23265507.2694
 -33855646.30148 -26358202.37146  21269592.1204   21269589.4764
 -19211404.70348 -14946432.40344  22538514.3864   22538512.6874
 04  7 30  0  7 29.9990000  0  8G 1G13G23G16G 3G19G27G 8
 -48731539.12947 -37948278.38843  22801017.5654   22801016.8394
 -45674249.62949 -35568474.23247  20045755.4254   20045752.0464
 -51073539.71149 -39774094.35945  21553391.9014   21553387.1834
 -28145805.66045 -21908024.70741  24552512.9174   24552510.6984
 -18067017.35547 -14057147.80243  22748063.3704   22748061.6794
 -11246184.72747  -8741026.36643  23242203.7764   23242200.8124
 -33941099.19949 -26424789.04046  21253330.9334   21253328.6634
 -19332598.02748 -15040868.73143  22515451.4804   22515450.2724
 04  7 30  0  7 59.9990000  0  8G 1G13G23G16G 3G19G27G 8
 -48702273.57847 -37925474.12743  22806586.9644   22806586.0194
 -45730560.72349 -35612353.00647  20035039.9014   20035036.6284
 -51054264.39849 -39759074.67245  21557060.1124   21557055.2184
 -28095736.05145 -21869009.55141  24562040.3704   24562038.2804
 -18128881.25047 -14105353.41743  22736290.6674   22736289.3194
 -11368397.40246  -8836256.96943  23218948.1834   23218944.1084
 -34026419.82849 -26491272.63746  21237094.9404   21237092.3624
 -19453651.96947 -15135196.41243  22492416.0114   22492414.2224
 04  7 30  0  8 29.9990000  0  8G 1G13G23G16G 3G19G27G 8
 -48672750.72747 -37902469.38943  22812205.2224   22812204.1874
 -45786432.96549 -35655889.82547  20024407.9174   20024404.5074
 -51034648.05549 -39743789.24545  21560792.9484   21560788.5894
 -28045587.90245 -21829933.11841  24571582.9334   24571581.1054
 -18190207.00047 -14153139.69143  22724621.6364   22724619.2534
 -11490349.33646  -8931284.39443  23195741.2144   23195737.4174
 -34111612.25449 -26557656.33746  21220883.3624   21220881.1514
 -19574570.68448 -15229418.73644  22469406.1904   22469404.0584
 04  7 30  0  8 59.9990000  0  7G 1G13G23G 3G19G27G 8
 -48642966.15648 -37879260.66743  22817873.8314   22817872.0194
 -45841859.73449 -35699079.51547  20013860.2374   20013856.9254
 -51014686.25449 -39728234.62245  21564591.3624   21564587.0074
 -18250988.49247 -14200501.88243  22713054.7694   22713053.0344
 -11612032.37947  -9026102.29643  23172585.1284   23172581.8944
 -34196671.64549 -26623936.36346  21204697.3084   21204694.6904
 -19695349.53548 -15323532.06843  22446422.6364   22446421.1594
 04  7 30  0  9 29.9990000  0  7G 1G13G23G 3G19G27G 8
 -48612922.41847 -37855849.99543  22823589.8394   22823589.0654
 -45896841.44149 -35741922.40447  20003397.7924   20003394.7184
 -50994381.53949 -39712412.81345  21568455.6594   21568450.4834
 -18311226.07047 -14247440.23443  22701592.2694   22701590.0224
 -11733445.37947  -9120709.76343  23149481.5344   23149477.2374
 -34281599.60949 -26690114.00046  21188535.9804   21188533.2724
 -19815989.46148 -15417537.16044  22423465.2764   22423463.4604
 04  7 30  0  9 59.9990000  0  7G 1G13G23G 3G19G27G 8
 -48582609.41447 -37832229.56443  22829358.8314   22829357.8514
 -45951366.73849 -35784409.65447  19993021.8864   19993018.7724
 -50973723.76649 -39696315.87445  21572386.5814   21572381.7494
 -18370908.44947 -14293945.98443  22690234.5504   22690232.5384
 -11854574.38347  -9215095.95043  23126431.4804   23126427.3004
 -34366385.57049 -26756180.96846  21172401.5894   21172399.0504
 -19936480.00048 -15511425.85244  22400536.6674   22400534.8624
 04  7 30  0 10 29.9990000  0  7G 1G13G23G 3G19G27G 8
 -48552021.01647 -37808394.49043  22835179.5424   22835178.8824
 -46005426.91848 -35826534.47747  19982734.6984   19982731.2334
 -50952706.69549 -39679938.98045  21576385.9334   21576381.2574
 -18430027.36747 -14340012.66743  22678985.0194   22678982.8704
 -11975409.47747  -9309253.11643  23103437.0344   23103433.4724
 -34451022.60248 -26822131.89546  21156295.6204   21156293.3004
 -20056813.20348 -15605191.93144  22377638.2454   22377636.2144
 04  7 30  0 10 59.9990000  0  7G 1G13G23G 3G19G27G 8
 -48521170.38347 -37784355.11043  22841050.0034   22841049.9054
 -46059033.17249 -35868305.58447  19972533.7614   19972530.4404
 -50931343.49649 -39663292.36145  21580451.5894   21580446.6754
 -18488594.08247 -14385649.04543  22667840.0584   22667838.0384
 -12095959.87547  -9403188.45343  23080497.1674   23080493.9804
 -34535522.93449 -26887976.30046  21140215.8154   21140213.5114
 -20177001.56248 -15698845.14844  22354767.2304   22354765.2304
 04  7 30  0 11 29.9990000  0  7G 1G13G23G 3G19G27G 8
 -48490062.48847 -37760115.23743  22846969.9724   22846969.6364
 -46112188.50448 -35909725.33147  19962418.5974   19962415.2184
 -50909639.02749 -39646379.81445  21584581.7304   21584576.5114
 -18546611.68747 -14430857.55543  22656799.4014   22656797.7024
 -12216226.69147  -9496902.79543  23057610.7614   23057607.8394
 -34619890.67648 -26953717.38346  21124161.2614   21124158.6754
 -20297049.27348 -15792388.77444  22331922.1754   22331920.7064
 04  7 30  0 11 59.9990000  0  7G 1G13G23G 3G19G27G 8
 -48458696.48847 -37735674.27443  22852938.9724   22852938.4644
 -46164890.30949 -35950791.67747  19952389.8004   19952386.6834
 -50887592.46149 -39629200.72445  21588777.0194   21588772.2924
 -18604077.62547 -14475636.20543  22645864.0584   22645862.3584
 -12336205.19547  -9590392.48643  23034779.9094   23034776.6554
 -34704124.13749 -27019353.83646  21108131.9484   21108129.5224
 -20416954.32048 -15885821.23444  22309105.3314   22309103.7334
 04  7 30  0 12 29.9990000  0  7G 1G13G23G 3G19G27G 8
 -48427075.72347 -37711034.78042  22858956.1054   22858955.7144
 -46217139.65249 -35991505.45947  19942447.1284   19942443.8784
 -50865207.29349 -39611757.76344  21593036.6284   21593031.7414
 -18660993.64548 -14519986.32943  22635033.0654   22635031.8154
 -12455894.85548  -9683657.13043  23012003.6204   23012000.5154
 -34788225.81649 -27084887.60146  21092128.3314   21092125.5154
 -20536718.77048 -15979144.13843  22286314.8864   22286312.9834
 04  7 30  0 12 59.9990000  0  7G 1G13G23G 3G19G27G 8
 -48395197.23446 -37686194.48542  22865022.1444   22865021.6244
 -46268931.69949 -36031862.90747  19932591.5584   19932588.2224
 -50842480.41049 -39594048.55245  21597361.2614   21597356.5504
 -18717354.83247 -14563904.14143  22624308.2764   22624306.6164
 -12575288.90248  -9776691.38343  22989284.1364   22989280.3194
 -34872192.08649 -27150315.86446  21076149.5504   21076147.3084
 -20656339.11748 -16072354.77444  22263552.3474   22263550.1204
 04  7 30  0 13 29.9990000  0  8G10G 1G13G23G 3G19G27G 8
   -199642.45355   -133714.72151  24319633.5974   24319632.8234
 -48363059.49247 -37661152.12142  22871138.3784   22871137.3314
 -46320262.77349 -36071861.15347  19922823.3944   19922820.1554
 -50819409.81648 -39576071.50344  21601752.0264   21601747.0034
 -18773158.05147 -14607387.13543  22613689.2694   22613687.5264
 -12694381.96147  -9869491.14343  22966621.0034   22966617.1904
 -34956020.31649 -27215636.54146  21060197.8624   21060195.0424
 -20775812.27748 -16165450.70244  22240816.6204   22240814.9014
 04  7 30  0 13 59.9990000  0  9G10G 1G13G23G28G 3G19G27G 8
   -328484.70346   -234111.24642  24295116.7534   24295114.4134
 -48330685.34047 -37635925.55242  22877298.1124   22877297.7924
 -46371153.92249 -36111516.59847  19913139.1364   19913135.6084
 -50796018.69548 -39557844.68444  21606202.8704   21606198.2964
   -240595.19155   -161308.95551  24395135.4564   24395136.4374
 -18828424.34047 -14650451.77943  22603171.8154   22603170.6284
 -12813193.11747  -9962071.20143  22944011.9094   22944008.5034
 -35039732.69949 -27280866.96246  21044268.0114   21044265.2304
 -20895159.98448 -16258448.87744  22218105.6514   22218103.8084
 04  7 30  0 14 29.9990000  0  9G10G 1G13G23G28G 3G19G27G 8
   -456958.39146   -334220.57342  24270668.2844   24270666.8554
 -48298087.56246 -37610524.77942  22883501.6674   22883500.3274
 -46421615.93449 -36150837.65247  19903536.7844   19903533.2804
 -50772319.94548 -39539378.15644  21610712.6594   21610707.5894
   -396256.18745   -282603.02241  24365514.9334   24365514.8394
 -18883165.02047 -14693106.84643  22592755.3084   22592753.8554
 -12931731.57848 -10054438.74843  22921454.6514   22921451.4294
 -35123341.18049 -27346016.41446  21028357.5264   21028355.2694
 -21014394.45348 -16351358.83244  22195416.0344   22195414.1834
 04  7 30  0 14 59.9990000  0  9G10G 1G13G23G28G 3G19G27G 8
   -585060.23845   -434040.11942  24246291.6284   24246289.9294
 -48265266.63747 -37584950.10642  22889748.8784   22889745.8824
 -46471647.28949 -36189823.12547  19894016.0034   19894012.7494
 -50748313.78948 -39520672.10144  21615280.6754   21615276.1904
   -551828.73446   -403828.20341  24335910.4484   24335910.0974
 -18937378.73448 -14735351.28942  22582438.4804   22582437.2654
 -13049993.38747 -10146590.77043  22898950.4174   22898946.6164
 -35206845.09849 -27411084.39446  21012467.6834   21012464.8514
 -21133514.93448 -16444179.95444  22172748.5504   22172746.6324
 04  7 30  0 15 29.9990000  0  9G10G 1G13G23G28G 3G19G27G 8
   -712773.98846   -533557.31242  24221988.5264   24221987.2104
 -48232209.46147 -37559191.29342  22896037.6674   22896036.6164
 -46521233.02349 -36228461.36347  19884580.1594   19884576.9254
 -50723987.13748 -39501716.31144  21619910.3314   21619905.3514
   -707297.42246   -524972.41442  24306325.3474   24306325.5854
 -18991050.72747 -14777173.60343  22572225.3864   22572223.5034
 -13167961.81247 -10238514.16643  22876501.6054   22876498.0774
 -35290230.72749 -27476060.19546  20996599.7374   20996597.3044
 -21252506.89848 -16536900.93044  22150104.7924   22150102.8864
 04  7 30  0 15 59.9990000  0  9G10G 1G13G23G28G 3G19G27G 8
   -840096.84846   -632769.87542  24197760.0894   24197757.8354
 -48198916.43046 -37533248.73742  22902372.8554   22902371.6754
 -46570371.66049 -36266751.21047  19875229.3554   19875226.0464
 -50699340.50448 -39482511.18344  21624600.4254   21624595.8314
   -862659.65246   -646033.67642  24276761.0974   24276761.3314
 -19044179.79347 -14818572.88642  22562115.2224   22562113.3944
 -13285633.45747 -10330206.29343  22854109.6514   22854105.7024
 -35373497.42649 -27540943.32646  20980754.5654   20980751.9604
 -21371370.25048 -16629521.70844  22127485.8864   22127483.9444
 04  7 30  0 16 29.9990000  0  9G10G 1G13G23G28G 3G19G27G 8
   -967020.83246   -731671.67742  24173608.3624   24173605.5814
 -48165382.74647 -37507118.70142  22908756.6514   22908752.5224
 -46619056.43749 -36304687.40047  19865964.7304   19865961.4804
 -50674369.29748 -39463053.13144  21629352.0584   21629347.5654
  -1017907.94146   -767006.20642  24247218.3234   24247217.6514
 -19096759.68747 -14859544.22043  22552109.8234   22552107.5584
 -13402999.78947 -10421660.51544  22831775.1444   22831771.7454
 -35456639.52349 -27605729.36846  20964933.3154   20964930.5344
 -21490099.16848 -16722037.70444  22104892.2764   22104890.6284
 04  7 30  0 16 59.9990000  0  9G10G 1G13G23G28G 3G19G27G 8
  -1093541.66045   -830259.29642  24149530.0264   24149529.0694
 -48131607.51647 -37480800.38442  22915182.4254   22915179.9604
 -46667284.39549 -36342267.64247  19856787.5114   19856784.0224
 -50649072.37148 -39443341.29344  21634166.1054   21634161.4014
  -1173038.60945   -887887.06042  24217696.7224   24217697.2334
 -19148787.95747 -14900085.71043  22542209.0194   22542207.3474
 -13520056.02347 -10512873.09743  22809500.1674   22809496.2144
 -35539655.07049 -27670416.80746  20949135.6904   20949133.2064
 -21608691.09448 -16814446.97344  22082324.8944   22082323.0894
 04  7 30  0 17 29.9990000  0  9G10G 1G13G23G28G 3G19G27G 8
  -1219656.00846   -928530.18642  24125531.3944   24125530.5814
 -48097590.89147 -37454294.01142  22921654.8864   22921653.5264
 -46715053.86349 -36379490.60847  19847696.8784   19847693.6594
 -50623449.85548 -39423375.73044  21639041.8314   21639037.1054
  -1328049.12146  -1008674.25342  24188199.5194   24188200.1474
 -19200263.01647 -14940196.13443  22532414.0584   22532411.7884
 -13636798.25847 -10603841.02443  22787284.6904   22787281.5544
 -35622543.41449 -27735005.12146  20933362.4644   20933360.0584
 -21727145.32448 -16906748.92844  22059783.9644   22059782.1514
 04  7 30  0 17 59.9990000  0  9G10G 1G13G23G28G 3G19G27G 8
  -1345356.89846  -1026478.87042  24101611.2144   24101610.3084
 -48063329.17647 -37427596.63442  22928175.0194   22928174.0074
 -46762359.16049 -36416351.88347  19838695.2454   19838691.9334
 -50597498.22348 -39403153.71144  21643980.1594   21643975.7614
  -1482933.12546  -1129362.97342  24158726.6904   24158725.8314
 -19251179.48047 -14979871.30043  22522724.2454   22522722.7764
 -13753219.23046 -10694558.60143  22765130.5114   22765127.1874
 -35705299.81649 -27799490.62346  20917614.8004   20917612.1124
 -21845457.18048 -16998939.97244  22037270.2144   22037267.9564
 04  7 30  0 18 29.9990000  0  9G10G 1G13G23G28G 3G19G27G 8
  -1470640.17646  -1124102.16942  24077771.8004   24077769.1984
 -48028821.55947 -37400707.67942  22934742.6514   22934740.5194
 -46809197.52749 -36452849.32347  19829782.1834   19829779.0114
 -50571216.33248 -39382674.36144  21648981.6204   21648976.8044
  -1637686.92246  -1249950.14242  24129277.2534   24129277.3584
 -19301534.99647 -15019109.35843  22513142.1444   22513140.9134
 -13869314.03948 -10785022.03443  22743037.8944   22743034.6984
 -35787922.43749 -27863871.88046  20901892.2844   20901889.4014
 -21963624.62548 -17091018.45444  22014783.6054   22014781.6444
 04  7 30  0 18 59.9990000  0  9G10G 1G13G23G28G 3G19G27G 8
  -1595509.14146  -1221402.62042  24054009.5504   24054007.8704
 -47994074.37147 -37373631.99542  22941354.1984   22941353.1124
 -46855573.38749 -36488986.35347  19820957.2144   19820953.9914
 -50544610.56248 -39361942.62344  21654044.6054   21654039.9954
  -1792313.94546  -1370438.55142  24099852.4954   24099852.9644
 -19351334.31647 -15057913.99743  22503665.6054   22503664.0114
 -13985085.31247 -10875233.36043  22721007.6364   22721004.3904
 -35870416.50849 -27928152.96946  20886193.7614   20886191.2574
 -22081652.23448 -17182987.99044  21992323.5504   21992321.7104
 04  7 30  0 19 29.9990000  0  9G10G 1G13G23G28G 3G19G27G 8
  -1719958.76647  -1318376.31942  24030328.0894   24030326.0464
 -47959086.00847 -37346368.39942  22948011.6904   22948011.5264
 -46901483.09849 -36524760.16947  19812220.8394   19812217.6164
 -50517679.48048 -39340957.40344  21659169.4484   21659164.8314
  -1946809.85246  -1490824.78742  24070451.5194   24070452.4174
 -19400574.47748 -15096282.95643  22494296.2454   22494293.6984
 -14100527.47747 -10965188.22743  22699040.0734   22699036.0934
 -35952779.67649 -27992332.05346  20870520.4404   20870517.9374
 -22199537.95748 -17274846.95444  21969890.4334   21969888.5224
 04  7 30  0 19 59.9990000  0  9G10G 1G13G23G28G 3G19G27G 8
  -1843990.40646  -1415024.40242  24006724.8474   24006722.9724
 -47923861.37147 -37318920.71342  22954714.6904   22954714.6904
 -46946929.65249 -36560173.07547  19803572.7304   19803569.4294
 -50490427.78548 -39319722.35344  21664354.8154   21664350.2494
  -2101176.86347  -1611110.58742  24041077.2454   24041077.7964
 -19449258.82448 -15134218.78343  22485031.2764   22485029.5734
 -14215641.44548 -11054887.38843  22677134.1124   22677130.6014
 -36035015.45349 -28056411.87346  20854872.0194   20854869.5344
 -22317285.09448 -17366597.94744  21947484.1054   21947482.1634
 04  7 30  0 20 29.9980000  0  9G10G 1G13G23G28G 3G19G27G 8
  -1967599.39146  -1511343.01742  23983203.2724   23983201.4674
 -47888403.93447 -37291291.63743  22961462.9754   22961462.1234
 -46991912.05549 -36595224.29747  19795012.7564   19795009.5614
 -50462858.67249 -39298239.97744  21669601.8574   21669597.1894
  -2255409.27346  -1731291.48442  24011726.9434   24011727.1894
 -19497386.46948 -15171720.82343  22475872.6004   22475871.2254
 -14330422.09848 -11144326.79044  22655292.5844   22655288.8384
 -36117122.54349 -28120391.41946  20839247.1934   20839244.7444
 -22434891.09048 -17458238.97044  21925104.6314   21925102.6504
 04  7 30  0 20 59.9980000  0  9G10G 1G13G23G28G 3G19G27G 8
  -2090789.46546  -1607335.32442  23959760.2954   23959758.9824
 -47852710.22347 -37263478.40343  22968254.6074   22968254.7914
 -47036430.52749 -36629914.02847  19786541.1934   19786537.9124
 -50434969.52348 -39276508.19844  21674908.5844   21674904.4284
  -2409513.44946  -1851372.51242  23982403.2564   23982402.9714
 -19544958.02048 -15208789.58443  22466820.0844   22466818.4514
 -14444872.02347 -11233508.52543  22633512.7324   22633509.0574
 -36199104.29749 -28184273.30446  20823646.7794   20823643.9284
 -22552361.62948 -17549774.40744  21902750.3424   21902748.5844
 04  7 30  0 21 29.9980000  0  9G10G 1G13G23G28G 3G19G27G 8
  -2213544.48046  -1702988.54942  23936401.3504   23936399.2684
 -47816772.73847 -37235475.23843  22975093.1314   22975093.8774
 -47080472.60949 -36664232.53347  19778160.4904   19778156.9204
 -50406752.26648 -39254520.77544  21680278.1784   21680274.0764
  -2563472.94146  -1971340.77842  23953105.0144   23953104.7254
 -19591961.82847 -15245415.91443  22457875.5924   22457874.1394
 -14558974.62147 -11322419.58243  22611800.4514   22611796.2014
 -36280948.05149 -28248047.64746  20808072.3574   20808069.7404
 -22669682.84048 -17641193.51444  21880424.9204   21880422.7444
 04  7 30  0 21 59.9980000  0  9G10G 1G13G23G28G 3G19G27G 8
  -2335873.18746  -1798309.56542  23913121.6394   23913120.7724
 -47780603.34447 -37207291.36343  22981975.6864   22981976.8384
 -47124048.46149 -36698187.75747  19769867.7874   19769864.9714
 -50378218.96548 -39232287.07244  21685708.2794   21685703.7294
  -2717296.76647  -2091203.33342  23923834.1314   23923832.9864
 -19638408.26248 -15281607.92443  22449037.3424   22449035.6824
 -14672738.25847 -11411066.52443  22590151.8344   22590147.7914
 -36362664.67649 -28311722.93046  20792522.3504   20792519.8424
 -22786865.08648 -17732504.33344  21858125.8894   21858123.6784
 04  7 30  0 22 29.9980000  0  9G10G 1G13G23G28G 3G19G27G 8
  -2457768.20346  -1893292.65742  23889926.6074   23889924.5454
 -47744198.16047 -37178923.76042  22988904.3894   22988904.3974
 -47167152.15649 -36731775.06747  19761666.1314   19761662.1624
 -50349365.64848 -39209804.02344  21691198.6784   21691194.3304
  -2870978.34847  -2210954.98042  23894588.6154   23894587.5764
 -19684292.05148 -15317361.51743  22440305.7014   22440303.9004
 -14786154.97747 -11499443.14243  22568569.3894   22568565.4554
 -36444249.37149 -28375295.42046  20776997.1004   20776994.5884
 -22903903.60248 -17823703.13844  21835854.0144   21835852.4944
 04  7 30  0 22 59.9980000  0  9G10G 1G13G23G28G 3G19G27G 8
  -2579226.70346  -1987935.63242  23866814.0844   23866811.9904
 -47707557.47347 -37150372.63543  22995876.8654   22995876.5064
 -47209782.32849 -36764993.38647  19753553.5374   19753550.1584
 -50320192.46948 -39187071.70644  21696750.1864   21696745.5024
  -3024514.94147  -2330593.72342  23865371.3114   23865370.4904
 -19729612.11348 -15352675.86743  22431681.4204   22431679.5494
 -14899221.55147 -11587546.92244  22547052.9364   22547049.1114
 -36525701.22349 -28438764.39646  20761497.2724   20761494.8074
 -23020797.48448 -17914789.26444  21813610.1704   21813608.3544
 04  7 30  0 23 29.9980000  0  9G10G 1G13G23G28G 3G19G27G 8
  -2700242.02746  -2082233.22842  23843786.7174   23843783.6234
 -47670677.92247 -37121635.40043  23002895.3574   23002894.2874
 -47251933.58649 -36797838.53147  19745531.9124   19745529.2484
 -50290696.51248 -39164087.89744  21702363.1314   21702358.8144
  -3177900.61347  -2450114.80642  23836182.6784   23836182.3464
 -19774363.69948 -15387547.21443  22423165.9904   22423164.1434
 -15011930.38347 -11675371.94043  22525604.8504   22525601.2324
 -36607015.64849 -28502126.27146  20746023.4904   20746020.6114
 -23137542.08648 -18005759.06344  21791394.0064   21791392.5724
 04  7 30  0 23 59.9980000  0  9G10G 1G13G23G28G 3G19G27G 8
  -2820823.13346  -2176192.49842  23820839.2564   23820838.1624
 -47633571.77347 -37092721.58542  23009956.3184   23009954.9674
 -47293616.28949 -36830318.57247  19737600.5534   19737597.0184
 -50260889.64548 -39140861.80044  21708035.4514   21708030.5684
  -3331144.50847  -2569525.41042  23807020.9124   23807020.4004
 -19818557.30548 -15421983.78043  22414755.9364   22414754.4474
 -15124289.93748 -11762924.79143  22504224.3734   22504220.6314
 -36688203.60249 -28565389.60646  20730574.1234   20730571.6434
 -23254147.63748 -18096620.51044  21769204.8114   21769203.1894
 04  7 30  0 24 29.9980000  0  9G10G 1G13G23G28G 3G19G27G 8
  -2940959.20746  -2269805.08542  23797978.5684   23797976.6394
 -47596231.46146 -37063625.31942  23017061.6544   23017060.9204
 -47334821.06649 -36862426.19647  19729759.6154   19729756.1074
 -50230764.34048 -39117387.58144  21713767.8504   21713763.3654
  -3484236.46147  -2688817.65142  23777888.3654   23777887.7954
 -19862184.22747 -15455978.78543  22406454.0454   22406452.2324
 -15236288.80948 -11850196.60243  22482911.2254   22482907.4984
 -36769256.53149 -28628547.73346  20715150.1234   20715148.0414
 -23370605.87948 -18187367.16244  21747043.1934   21747041.7294
 04  7 30  0 24 59.9980000  0  9G10G 1G13G23G28G 3G19G27G 8
  -3060646.48847  -2363067.80542  23775202.5614   23775200.6974
 -47558656.35246 -37034346.09142  23024211.1704   23024211.5374
 -47375545.43749 -36894159.48347  19722009.8184   19722006.6274
 -50200320.01248 -39093664.77244  21719560.8894   21719557.0804
  -3637173.02046  -2807988.86142  23748785.3114   23748784.4084
 -19905242.56247 -15489530.72143  22398260.3574   22398258.5684
 -15347922.46947 -11937183.81644  22461668.2014   22461663.8654
 -36850172.54749 -28691599.15846  20699752.6544   20699749.9284
 -23486915.26648 -18277997.83344  21724910.8034   21724909.0064
 04  7 30  0 25 29.9980000  0  9G10G 1G13G23G28G 3G19G27G 8
  -3179893.23846  -2455987.33642  23752511.5374   23752509.0064
 -47520858.18746 -37004893.04742  23031404.4824   23031404.4124
 -47415799.33249 -36925526.16447  19714349.9124   19714346.7054
 -50169568.54748 -39069702.64444  21725413.1074   21725408.5294
  -3789963.30546  -2927046.02942  23719709.6474   23719709.8654
 -19947742.54348 -15522647.56643  22390172.6784   22390171.2754
 -15459198.78947 -12023892.60644  22440492.0454   22440489.4084
 -36930962.30949 -28754552.21446  20684378.9594   20684376.1434
 -23603085.89848 -18368520.38444  21702804.3424   21702802.0574
 04  7 30  0 25 59.9980000  0  9G10G 1G13G23G28G 3G19G27G 8
  -3298691.52746  -2548557.31442  23729902.8504   23729902.2724
 -47482832.23846 -36975262.51742  23038640.5294   23038641.2954
 -47455576.10249 -36956521.06346  19706780.5614   19706777.4634
 -50138504.84448 -39045497.21044  21731324.1234   21731319.8224
  -3942599.60246  -3045983.22842  23690664.7014   23690663.7294
 -19989678.44547 -15555324.90043  22382192.5224   22382190.8184
 -15570109.40647 -12110316.44443  22419387.3504   22419383.0064
 -37011619.80949 -28817402.21146  20669030.2014   20669027.5684
 -23719111.41848 -18458929.87244  21680725.0764   21680723.3384
 04  7 30  0 26 29.9980000  0  9G10G 1G13G23G28G 3G19G27G 8
  -3417038.77047  -2640775.91742  23707384.3034   23707381.6704
 -47444578.77746 -36945454.71442  23045919.8424   23045920.6354
 -47494874.46149 -36987143.17647  19699302.2324   19699299.0574
 -50107129.66048 -39021049.05944  21737294.5224   21737290.8264
  -4095079.19546  -3164798.32041  23661648.0764   23661647.6274
 -20031048.97747 -15587561.66043  22374320.5844   22374318.5494
 -15680650.59848 -12196452.36444  22398352.3344   22398347.8934
 -37092144.06249 -28880148.38346  20653706.8974   20653704.3184
 -23834991.43048 -18549225.96444  21658673.9434   21658672.3074
 04  7 30  0 26 59.9980000  0  9G10G 1G13G23G28G 3G19G27G 8
  -3534940.23447  -2732647.17142  23684948.9824   23684945.5574
 -47406106.81646 -36915476.62742  23053241.3184   23053241.0804
 -47533701.34049 -37017397.89647  19691913.9594   19691910.6584
 -50075451.99648 -38996365.20344  21743322.7874   21743318.6194
  -4247408.35246  -3283496.23042  23632661.4124   23632659.8184
 -20071861.78946 -15619363.85343  22366553.5454   22366551.8184
 -15790827.19948 -12282304.20644  22377386.1704   22377382.4084
 -37172542.95749 -28942796.87046  20638407.3264   20638404.9004
 -23950733.46148 -18639414.52944  21636649.2484   21636646.8424
 04  7 30  0 27 29.9980000  0  9G10G 1G13G23G28G 3G19G27G 8
  -3652386.01246  -2824163.38842  23662598.3654   23662596.6584
 -47367409.25446 -36885322.73842  23060605.7174   23060604.6934
 -47572047.69149 -37047278.17747  19684616.6004   19684613.4434
 -50043464.46148 -38971439.90544  21749410.1004   21749405.8574
  -4399577.16446  -3402069.10742  23603704.0454   23603703.4514
 -20112108.82848 -15650725.18643  22358894.9594   22358893.2724
 -15900628.69148 -12367863.79444  22356491.2324   22356487.7754
 -37252808.18449 -29005341.20746  20623133.1784   20623130.8654
 -24066329.03148 -18729488.98244  21614651.7094   21614649.7914
 04  7 30  0 27 59.9980000  0  9G10G 1G13G23G28G 3G19G27G 8
  -3769377.14546  -2915325.15642  23640335.5374   23640333.8224
 -47328490.28946 -36854996.37842  23068011.1864   23068010.5804
 -47609916.16449 -37076786.08946  19677410.5844   19677407.5614
 -50011171.64548 -38946276.71744  21755555.2014   21755550.5924
  -4551587.18746  -3520518.30942  23574777.0224   23574776.8034
 -20151792.94548 -15681647.87843  22351343.1474   22351341.6394
 -16010055.43747 -12453131.32844  22335668.1934   22335664.2524
 -37332942.62949 -29067783.63246  20607884.3734   20607881.7754
 -24181780.74648 -18819451.34344  21592682.0374   21592679.8814
 04  7 30  0 28 29.9980000  0  9G10G 1G13G23G28G 3G19G27G 8
  -3885914.64545  -3006133.54342  23618159.5454   23618157.3034
 -47289354.73446 -36824501.20342  23075459.1074   23075458.4554
 -47647309.52049 -37105923.77346  19670294.9124   19670291.9674
 -49978577.98848 -38920879.11044  21761757.5614   21761753.3184
  -4703440.12946  -3638845.10942  23545880.4364   23545879.8774
 -20190917.41048 -15712134.46943  22343898.3344   22343896.3144
 -16119108.06247 -12538107.35544  22314915.8574   22314911.8544
 -37412949.69949 -29130126.80146  20592659.6314   20592656.8224
 -24297092.04348 -18909304.25944  21570739.3264   21570737.1154
 04  7 30  0 28 59.9980000  0  9G10G 1G13G23G28G 3G19G27G 8
  -4001997.20745  -3096587.47342  23596069.5684   23596067.4084
 -47250004.07046 -36793838.44242  23082947.5454   23082947.0024
 -47684227.52349 -37134691.06247  19663269.7324   19663266.5064
 -49945684.96548 -38895248.23644  21768017.1154   21768012.2294
  -4855134.79347  -3757048.53742  23517014.1704   23517013.2524
 -20229482.77747 -15742185.39643  22336559.4044   22336557.4124
 -16227784.37147 -12622790.17143  22294235.6314   22294232.2684
 -37492829.57449 -29192370.85846  20577458.8424   20577456.2174
 -24412263.23448 -18999048.02744  21548822.5374   21548820.5574
 04  7 30  0 29 29.9980000  0  9G10G 1G13G23G28G 3G19G27G 8
  -4117618.87145  -3186682.23742  23574067.6934   23574065.8614
 -47210435.38346 -36763005.79442  23090477.4984   23090476.4044
 -47720665.60249 -37163084.38347  19656335.7954   19656332.4324
 -49912490.16848 -38869382.20344  21774333.5144   21774329.0254
  -5006665.34846  -3875124.17142  23488178.2644   23488178.2564
 -20267484.96546 -15771797.48143  22329327.6784   22329325.8774
 -16336077.69948 -12707174.54944  22273627.7254   22273624.2364
 -37572578.13349 -29254512.59946  20562283.1704   20562280.7564
 -24527290.30948 -19088679.49044  21526933.7324   21526931.6194
 04  7 30  0 29 59.9980000  0  9G10G 1G13G23G28G 3G19G27G 8
  -4232775.57446  -3276414.73042  23552154.6864   23552151.5534
 -47170647.95346 -36732002.64642  23098047.9044   23098046.8344
 -47756621.09849 -37191101.66947  19649493.7644   19649490.5224
 -49878992.52048 -38843280.18844  21780708.4434   21780704.1154
  -5158028.12546  -3993069.03642  23459374.5224   23459373.8694
 -20304922.02347 -15800969.22543  22322203.8184   22322202.1544
 -16443983.50047 -12791256.96044  22253094.1934   22253090.8854
 -37652193.30149 -29316550.39546  20547132.7174   20547130.3894
 -24642170.76648 -19178196.69844  21505072.5534   21505070.5184
 04  7 30  0 30 29.9980000  0  9G10G 1G13G23G28G 3G19G27G 8
  -4347470.89845  -3365787.59542  23530326.8574   23530325.8694
 -47130648.50446 -36700834.32442  23105659.8654   23105659.0844
 -47792098.90249 -37218746.72246  19642742.5374   19642739.1584
 -49845198.84848 -38816947.52144  21787138.7404   21787134.6194
  -5309227.24647  -4110886.36442  23430602.9904   23430602.0884
 -20341799.46548 -15829704.89843  22315186.2014   22315184.5104
 -16551504.82848 -12875039.75844  22232633.5064   22232630.0804
 -37731680.57849 -29378488.53446  20532006.9594   20532004.1784
 -24756910.09448 -19267603.94744  21483238.8424   21483236.2874
 04  7 30  0 30 59.9980000  0  9G10G 1G13G23G28G 3G19G27G 8
  -4461702.73045  -3454799.38342  23508589.8344   23508588.7404
 -47090438.10246 -36669501.67342  23113311.9904   23113311.8854
 -47827098.56649 -37246019.19947  19636082.3344   19636078.7644
 -49811110.39148 -38790385.10744  21793625.5684   21793621.4594
  -5460260.73447  -4228574.62642  23401861.6234   23401861.3184
 -20378117.18448 -15858004.42243  22308275.2794   22308273.0454
 -16658638.69547 -12958520.67544  22212246.2404   22212242.7604
 -37811039.68049 -29440326.78846  20516905.8114   20516902.9244
 -24871508.03148 -19356900.99644  21461431.1234   21461429.2874
 04  7 30  0 31 29.9980000  0  9G10G 1G13G23G28G 3G19G27G 8
  -4575459.89845  -3543441.30442  23486942.7404   23486941.1544
 -47050008.77746 -36637998.38242  23121005.8424   23121004.7214
 -47861610.28549 -37272911.46347  19629515.0294   19629511.7684
 -49776719.22348 -38763586.86144  21800170.2954   21800166.3144
  -5611118.02347  -4346125.59042  23373154.6704   23373153.7794
 -20413866.07447 -15885860.70843  22301472.5374   22301470.5884
 -16765373.27348 -13041690.44644  22191935.4514   22191931.8614
 -37890261.28149 -29502057.91246  20501830.2794   20501827.5064
 -24985955.17648 -19446080.56844  21439652.6704   21439650.6934
 04  7 30  0 31 59.9980000  0  9G10G 1G13G23G28G 3G19G27G 8
  -4688740.10944  -3631711.57242  23465385.1704   23465384.7214
 -47009361.65646 -36606325.35142  23128740.6314   23128739.5024
 -47895633.12149 -37299422.77547  19623040.7174   19623037.4514
 -49742026.23447 -38736553.41844  21806771.9904   21806767.9244
  -5761797.16047  -4463537.74042  23344480.2794   23344480.1664
 -20449046.08646 -15913273.69843  22294778.1154   22294775.9674
 -16871705.92648 -13124547.00444  22171701.4754   22171697.2724
 -37969344.86349 -29563681.48846  20486781.3034   20486778.3424
 -25100250.69148 -19535141.97844  21417902.8574   21417900.9824
 04  7 30  0 32 29.9980000  0  9G10G 1G13G23G28G 3G19G27G 8
  -4801543.54746  -3719610.29842  23443921.2174   23443918.7364
 -46968499.73446 -36574484.99242  23136516.1314   23136515.3304
 -47929168.84049 -37325554.51047  19616658.7954   19616655.3854
 -49707034.64548 -38709287.30844  21813431.0454   21813426.2364
  -5912298.23047  -4580811.17042  23315842.2874   23315840.9434
 -20483659.22347 -15940244.97343  22288191.1004   22288189.6864
 -16977636.09448 -13207089.99044  22151543.7014   22151539.4324
 -38048292.39549 -29625199.04746  20471757.7254   20471755.6784
 -25214396.80548 -19624086.96844  21396181.2954   21396179.4084
 04  7 30  0 32 59.9980000  0  9G10G 1G13G23G28G 3G19G27G 8
  -4913876.70346  -3807142.60742  23422544.3654   23422541.8264
 -46927432.74646 -36542484.85442  23144331.3344   23144331.1544
 -47962225.17649 -37351312.71146  19610368.5454   19610365.5574
 -49671754.03948 -38681795.96344  21820144.3974   21820140.2324
  -6062628.14147  -4697951.17342  23287233.9044   23287234.0374
 -20517713.97748 -15966781.13243  22281711.0224   22281709.2444
 -17083169.46948 -13289323.73044  22131461.2484   22131457.3384
 -38127111.90649 -29686616.84746  20456758.7254   20456756.6044
 -25328401.58648 -19712921.83044  21374487.3344   21374485.1504
 04  7 30  0 33 29.9980000  0  9G10G 1G13G23G28G 3G19G27G 8
  -5025731.01646  -3894301.81042  23401259.1784   23401257.2014
 -46886155.32846 -36510320.70042  23152185.9044   23152185.3264
 -47994795.07849 -37376691.86046  19604170.7874   19604167.3544
 -49636179.01648 -38654075.21444  21826914.5454   21826909.9714
  -6212778.82447  -4814951.55142  23258662.3264   23258660.6394
 -20551203.94548 -15992877.21942  22275337.7324   22275335.8654
 -17188296.89848 -13371241.18044  22111455.8974   22111451.6074
 -38205796.68749 -29747929.65846  20441785.8424   20441783.3424
 -25442258.03148 -19801641.10844  21352821.0764   21352819.0374
 04  7 30  0 33 59.9980000  0  9G10G 1G13G23G28G 3G19G27G 8
  -5137115.61347  -3981094.94042  23380063.7094   23380061.5724
 -46844679.40246 -36478001.86542  23160078.0064   23160077.8464
 -48026888.73449 -37401699.92347  19598063.6394   19598060.3974
 -49600321.86748 -38626134.63344  21833737.8504   21833733.5414
  -6362759.27047  -4931819.29942  23230121.5144   23230121.0414
 -20584140.16448 -16018541.79243  22269070.1234   22269068.7644
 -17293026.50448 -13452848.63044  22091526.5224   22091522.8574
 -38284357.34049 -29809145.74646  20426835.8894   20426833.4794
 -25555976.58648 -19890252.93445  21331180.9514   21331178.7874
 04  7 30  0 34 29.9980000  0  9G10G 1G13G23G28G 3G19G27G 8
  -5248020.96947  -4067514.71242  23358959.0684   23358956.9754
 -46802998.70346 -36445523.48942  23168009.1394   23168009.9474
 -48058498.28149 -37426330.74547  19592048.6704   19592045.2134
 -49564176.47348 -38597969.45444  21840616.1624   21840611.6394
  -6512560.59447  -5048547.42242  23201614.6624   23201613.8574
 -20616515.57448 -16043769.38342  22262909.2564   22262907.7364
 -17397348.48048 -13534138.44444  22071674.9904   22071670.7754
 -38362786.47749 -29870259.35746  20411911.3424   20411908.9904
 -25669549.98448 -19978751.65544  21309568.6234   21309566.7404
 04  7 30  0 34 59.9980000  0  9G10G 1G13G23G28G 3G19G27G 8
  -5358445.84446  -4153559.99942  23337946.4674   23337943.6584
 -46761115.23846 -36412887.07942  23175980.3184   23175980.3184
 -48089623.64549 -37450584.29147  19586125.5224   19586122.3974
 -49527744.64548 -38569581.05844  21847548.9204   21847544.5684
  -6662181.58246  -5165135.07842  23173143.3814   23173141.7604
 -20648330.63348 -16068560.33643  22256854.8814   22256853.1544
 -17501260.80148 -13615109.04244  22051901.4284   22051896.7724
 -38441084.11349 -29931270.50446  20397011.9984   20397009.6314
 -25782978.65249 -20067137.60544  21287984.3114   21287981.9554
 04  7 30  0 35 29.9970000  0  9G10G 1G13G23G28G 3G19G27G 8
  -5468384.86346  -4239226.74242  23317023.5484   23317023.4114
 -46719031.75846 -36380094.83542  23183988.8294   23183988.0754
 -48120263.75049 -37474459.71047  19580294.7354   19580291.6464
 -49491028.71148 -38540971.30144  21854535.2594   21854531.1264
  -6811615.62546  -5281577.03142  23144706.2514   23144705.5634
 -20679584.80547 -16092914.25542  22250907.5954   22250906.0214
 -17604757.67248 -13695755.92444  22032206.0174   22032202.0564
 -38519247.53149 -29992177.05746  20382138.1424   20382135.6614
 -25896258.25049 -20155407.39444  21266427.4384   21266425.4584
 04  7 30  0 35 59.9970000  0  9G10G 1G13G23G28G 3G19G27G 8
  -5577835.15246  -4324512.69142  23296197.0014   23296195.3254
 -46676738.49647 -36347139.16142  23192037.0564   23192036.4074
 -48150412.23449 -37497952.03947  19574557.6654   19574554.5834
 -49454019.87548 -38512133.28344  21861578.5404   21861573.9234
  -6960863.13746  -5397873.62042  23116305.7594   23116304.5834
 -20710272.35547 -16116826.62243  22245068.1574   22245066.7434
 -17707835.13348 -13776075.98944  22012591.0954   22012587.2554
 -38597273.79349 -30052976.73546  20367290.4704   20367287.3064
 -26009388.14848 -20243560.54445  21244899.9074   21244897.7824
 04  7 30  0 36 29.9970000  0  9G10G 1G13G23G28G 3G19G27G 8
  -5686805.46945  -4409424.63242  23275460.7674   23275458.8684
 -46634252.29746 -36314033.09942  23200122.1104   23200121.8334
 -48180081.41049 -37521070.88547  19568912.0564   19568908.7744
 -49416734.38348 -38483079.70244  21868673.4934   21868669.3924
  -7109931.68046  -5514030.81042  23087938.5564   23087937.5444
 -20740406.53147 -16140307.80043  22239334.1034   22239332.2634
 -17810501.43048 -13856075.66344  21993054.4854   21993050.3994
 -38675174.07849 -30113678.24546  20352466.1184   20352463.5994
 -26122378.46948 -20331604.91944  21223398.4314   21223396.1144
 04  7 30  0 36 59.9970000  0  9G10G 1G13G23G28G 3G19G27G 8
  -5795283.36746  -4493952.89042  23254817.6424   23254816.7244
 -46591563.68446 -36280769.33142  23208245.5714   23208244.7124
 -48209260.37949 -37543807.75747  19563359.2984   19563356.3334
 -49379162.96548 -38453803.34244  21875823.2904   21875819.1104
  -7258809.03446  -5630038.89742  23059607.6264   23059606.8764
 -20769977.03548 -16163349.76142  22233707.1264   22233705.2284
 -17912743.51248 -13935744.76444  21973598.5244   21973594.0484
 -38752937.37949 -30174273.02246  20337668.2674   20337665.9314
 -26235218.02749 -20419531.83244  21201925.4934   21201923.0914
 04  7 30  0 37 29.9970000  0  9G10G 1G13G23G28G 3G19G27G 8
  -5903268.69146  -4578097.24042  23234269.2434   23234267.5174
 -46548675.56646 -36247350.11742  23216406.2674   23216406.8924
 -48237950.48049 -37566163.68947  19557899.7824   19557896.5794
 -49341308.52048 -38424306.41443  21883026.7044   21883022.2594
  -7407494.72746  -5745897.76542  23031314.2284   23031313.0524
 -20798985.70748 -16185953.89743  22228186.9234   22228185.0484
 -18014560.28948 -14015082.50244  21954222.9624   21954218.8494
 -38830565.12149 -30234762.15846  20322896.0564   20322893.4624
 -26347908.18749 -20507342.33244  21180481.5324   21180479.1654
 04  7 30  0 37 59.9970000  0  9G10G 1G13G23G28G 3G19G27G 8
  -6010765.31246  -4661860.79642  23213814.4384   23213811.8104
 -46505594.94546 -36213780.87342  23224604.1424   23224604.8414
 -48266156.84049 -37588142.67947  19552532.3454   19552528.9154
 -49303178.30948 -38394594.62143  21890282.6964   21890278.2124
  -7555993.43046  -5861610.94442  23003055.5874   23003054.3804
 -20827438.93048 -16208125.28642  22222771.5874   22222770.2864
 -18115955.27748 -14094091.56644  21934927.9384   21934924.1614
 -38908062.80549 -30295149.96246  20308148.9784   20308146.4234
 -26460454.78148 -20595040.96645  21159064.4704   21159062.3174
 04  7 30  0 38 29.9970000  0  9G10G 1G13G23G28G 3G19G27G 8
  -6117771.20346  -4745242.01442  23193449.4384   23193448.8804
 -46462322.66046 -36180062.27942  23232839.5484   23232838.8764
 -48293878.93449 -37609744.32847  19547257.0404   19547254.0284
 -49264773.11348 -38364668.53044  21897591.2594   21897586.7474
  -7704303.06246  -5977176.72742  22974832.7434   22974831.9504
 -20855336.65248 -16229863.76343  22217463.3994   22217461.6774
 -18216925.50448 -14172769.62544  21915714.0714   21915710.3174
 -38985429.75449 -30355435.89246  20293426.2744   20293423.8134
 -26572856.79748 -20682626.92244  21137675.1104   21137672.7434
 04  7 30  0 38 59.9970000  0  9G10G 1G13G23G28G 3G19G27G 8
  -6224284.11546  -4828239.12842  23173180.8134   23173179.9744
 -46418859.71146 -36146195.18842  23241110.4934   23241110.1224
 -48321115.62549 -37630967.72947  19542074.0564   19542070.7744
 -49226093.84847 -38334528.90344  21904951.4934   21904946.8844
  -7852421.58647  -6092593.61842  22946647.4464   22946645.5404
 -20882678.37548 -16251169.00943  22212260.2434   22212258.9624
 -18317468.22348 -14251114.56844  21896581.6964   21896577.7004
 -39062665.23049 -30415619.36546  20278729.0014   20278726.6694
 -26685113.64548 -20770099.79144  21116313.0954   21116311.2004
 04  7 30  0 39 29.9970000  0  9G10G 1G13G23G28G 3G19G27G 8
  -6330301.17246  -4910849.74142  23153007.1654   23153005.3454
 -46375206.03546 -36112179.38542  23249417.3604   23249416.7554
 -48347865.95349 -37651812.15647  19536983.6884   19536980.3134
 -49187140.64548 -38304175.83344  21912364.0014   21912359.7904
  -8000346.12546  -6207859.35142  22918497.0874   22918496.4274
 -20909463.59848 -16272040.58943  22207163.6814   22207161.4664
 -18417579.57848 -14329123.38544  21877531.0954   21877526.9664
 -39139767.67249 -30475699.18646  20264056.8764   20264054.6964
 -26797223.80548 -20857458.34144  21094979.3604   21094976.9314
 04  7 30  0 39 59.9970000  0  9G10G 1G13G23G28G 3G19G27G 8
  -6435814.28547  -4993067.71942  23132929.5634   23132926.7714
 -46331356.58646 -36078011.12042  23257760.8064   23257761.5324
 -48374122.80149 -37672272.04547  19531987.4544   19531983.9664
 -49147908.50048 -38273605.37944  21919829.6034   21919825.3684
  -8148068.83246  -6322967.81942  22890387.0244   22890386.1534
 -20935686.62547 -16292474.10543  22202173.6574   22202171.6144
 -18517250.91048 -14406789.31644  21858563.7744   21858560.0094
 -39216730.44949 -30535670.18146  20249411.2284   20249408.5994
 -26909180.48048 -20944697.28844  21073674.6104   21073672.5444
 04  7 30  0 40 29.9970000  0  9G10G 1G13G23G28G 3G19G27G 8
  -6540824.94947  -5074894.18842  23112946.2434   23112944.3454
 -46287315.79746 -36043693.69642  23266141.3684   23266142.3844
 -48399889.16049 -37692349.74146  19527084.0244   19527081.0174
 -49108401.79348 -38242820.98944  21927347.9624   21927343.0214
  -8295591.25847  -6437920.23442  22862313.6734   22862312.6694
 -20961351.10948 -16312472.43043  22197289.7044   22197287.7204
 -18616483.05548 -14484113.03044  21839680.9074   21839676.7594
 -39293556.56649 -30595534.68446  20234791.8684   20234789.2864
 -27020986.72348 -21031819.01845  21052398.6344   21052396.5954
 04  7 30  0 40 59.9970000  0  9G10G 1G13G23G28G 3G19G27G 8
  -6645340.67646  -5156335.01342  23093056.4544   23093056.0484
 -46243094.19146 -36009235.41142  23274557.1734   23274557.3804
 -48425173.98849 -37712052.22347  19522272.3924   19522269.0364
 -49068631.12147 -38211830.90244  21934915.5634   21934911.9194
  -8442920.90247  -6552722.41442  22834278.4854   22834276.9194
 -20986466.46148 -16332042.82943  22192510.5874   22192508.3534
 -18715282.85548 -14561099.86844  21820879.8684   21820875.7284
 -39370254.75849 -30655299.50146  20220196.6574   20220194.0094
 -27132651.48048 -21118830.50245  21031149.5014   21031147.4504
 04  7 30  0 41 29.9970000  0  9G10G 1G13G23G28G 3G19G27G 8
  -6749354.23447  -5237384.47642  23073265.0404   23073262.4194
 -46198687.62946 -35974633.06042  23283006.7904   23283008.0714
 -48449971.50449 -37731374.97947  19517553.6034   19517550.4664
 -49028592.52748 -38180632.07243  21942535.3294   21942530.7824
  -8590050.78547  -6667368.96542  22806279.7674   22806279.0404
 -21011027.76648 -16351181.48743  22187835.8844   22187834.6034
 -18813642.27048 -14637743.52644  21802162.8534   21802158.5214
 -39446819.28549 -30714960.16046  20205626.9074   20205624.5134
 -27244168.80948 -21205727.10844  21009928.7204   21009926.2984
 04  7 30  0 41 59.9970000  0  9G10G 1G13G23G28G 3G19G27G 8
  -6852863.28947  -5318040.86642  23053566.1574   23053565.6034
 -46154096.48845 -35939886.77142  23291493.1494   23291492.6734
 -48474280.63749 -37750317.16947  19512927.6884   19512924.6034
 -48988286.46948 -38149224.78943  21950204.5484   21950200.7004
  -8736978.38347  -6781857.86242  22778320.5094   22778319.1264
 -21035034.70348 -16369888.22043  22183267.9854   22183266.0674
 -18911558.13748 -14714041.56844  21783529.5714   21783525.4584
 -39523248.93049 -30774515.73546  20191082.8374   20191080.2984
 -27355537.10948 -21292507.59245  20988736.0794   20988733.7434
 04  7 30  0 42 29.9970000  0  9G10G 1G13G23G28G 3G19G27G 8
  -6955863.94147  -5398301.09842  23033966.6424   23033964.9814
 -46109319.87946 -35904996.04042  23300013.9234   23300014.3024
 -48498098.76649 -37768876.75746  19508395.4384   19508391.9544
 -48947712.07847 -38117608.47143  21957926.2124   21957921.7944
  -8883700.05147  -6896186.32442  22750400.1344   22750399.1654
 -21058485.46547 -16388161.55543  22178805.7044   22178803.7354
 -19009025.82048 -14789990.39044  21764981.7124   21764978.6304
 -39599541.05949 -30833964.14246  20176565.1654   20176562.5524
 -27466753.94548 -21379170.03244  20967572.1184   20967569.6654
 04  7 30  0 42 59.9970000  0  9G10G 1G13G23G28G 3G19G27G 8
  -7058357.34447  -5478166.06542  23014462.1344   23014461.0404
 -46064362.01245 -35869963.99442  23308569.1494   23308569.5284
 -48521428.67249 -37787055.91746  19503955.8214   19503952.5444
 -48906873.67648 -38085786.38443  21965697.2434   21965693.3804
  -9030217.17247  -7010355.40742  22722519.1184   22722518.0134
 -21081383.62947 -16406004.26743  22174448.5564   22174446.2904
 -19106045.84848 -14865590.37744  21746519.9934   21746515.9544
 -39675698.20349 -30893307.36446  20162072.5874   20162070.4274
 -27577822.17248 -21465716.69645  20946436.2044   20946434.0794
 04  7 30  0 43 29.9970000  0  9G10G 1G13G23G28G 3G19G27G 8
  -7160342.50847  -5557634.97842  22995054.2434   22995054.0134
 -46019225.10245 -35834792.48642  23317157.8534   23317158.9194
 -48544270.80549 -37804854.99647  19499609.1964   19499605.8844
 -48865773.24647 -38053760.13343  21973518.2674   21973514.0604
  -9176528.87547  -7124364.41542  22694677.3534   22694675.0054
 -21103730.49247 -16423417.44143  22170195.8454   22170193.9934
 -19202616.93748 -14940840.54444  21728142.6734   21728138.8494
 -39751720.86349 -30952545.80246  20147606.1574   20147603.4784
 -27688742.03948 -21552147.75545  20925329.1184   20925327.0214
 04  7 30  0 43 59.9970000  0  9G10G 1G13G23G28G 3G19G27G 8
  -7261816.98047  -5636705.98842  22975746.7354   22975743.6964
 -45973909.24245 -35799481.48842  23325782.1034   23325782.4274
 -48566624.09049 -37822273.15146  19495355.3764   19495352.1774
 -48824411.32848 -38021530.12743  21981389.6964   21981385.1924
  -9322632.70347  -7238211.45242  22666874.2594   22666872.4234
 -21125525.74647 -16440400.73943  22166048.3214   22166046.4234
 -19298735.62548 -15015738.20644  21709852.0484   21709848.2744
 -39827607.47349 -31011678.21846  20133165.3134   20133162.6534
 -27799512.48448 -21638462.36745  20904250.2904   20904248.0214
 04  7 30  0 44 29.9970000  0  9G10G 1G13G23G28G 3G19G27G 8
  -7362776.93047  -5715376.06642  22956533.4784   22956531.7594
 -45928413.62946 -35764030.55142  23334439.7434   23334439.9114
 -48588486.12949 -37839308.51247  19491195.2594   19491191.8024
 -48782786.84848 -37989095.50543  21989310.3064   21989306.4704
  -9468524.69947  -7351893.42142  22639111.1494   22639109.9034
 -21146767.60547 -16456952.85043  22162005.9784   22162003.9854
 -19394397.36348 -15090279.76844  21691648.5324   21691644.0284
 -39903355.61749 -31070702.74846  20118751.0174   20118748.2514
 -27910130.78948 -21724658.44345  20883200.2124   20883197.9194
 04  7 30  0 44 59.9970000  0  9G10G 1G13G23G28G 3G19G27G 8
  -7463223.51247  -5793646.11142  22937419.1814   22937417.4854
 -45882742.34445 -35728442.57642  23343130.3454   23343130.7314
 -48609859.44549 -37855963.04746  19487128.2904   19487124.8454
 -48740904.16848 -37956459.72443  21997280.1884   21997276.1694
  -9614206.19948  -7465411.36242  22611389.0634   22611387.8104
 -21167459.70348 -16473076.55443  22158068.1574   22158066.4704
 -19489602.57048 -15164465.61344  21673531.3374   21673527.3924
 -39978967.58649 -31129621.15546  20104362.2204   20104359.8644
 -28020599.14548 -21810737.66245  20862178.7354   20862176.4074
 04  7 30  0 45 29.9970000  0  9G10G 1G13G23G28G 3G19G27G 8
  -7563155.86347  -5871515.45742  22918403.6424   22918400.5524
 -45836897.28146 -35692719.32042  23351854.8604   23351855.3414
 -48630744.53949 -37872237.15646  19483153.5174   19483150.0094
 -48698765.02048 -37923624.10943  22005299.6654   22005295.3024
  -9759676.12548  -7578764.45642  22583707.7824   22583705.9814
 -21187603.09047 -16488772.72443  22154235.7514   22154233.4154
 -19584349.33648 -15238294.23644  21655501.3994   21655497.4384
 -40054443.42649 -31188433.49246  20090000.0404   20089997.3454
 -28130917.72348 -21896700.18345  20841185.9234   20841183.5874
 04  7 30  0 45 59.9970000  0  9G10G 1G13G23G28G 3G19G27G 8
  -7662569.29747  -5948980.45642  22899484.6184   22899483.3804
 -45790876.39846 -35656859.04342  23360612.0244   23360612.2674
 -48651137.82049 -37888128.03046  19479273.0244   19479269.7124
 -48656367.77748 -37890587.34543  22013367.2984   22013363.4664
  -9904929.69548  -7691948.93543  22556066.3844   22556064.3764
 -21207195.18047 -16504039.30943  22150507.4624   22150505.0094
 -19678632.23048 -15311761.39744  21637560.4854   21637556.3644
 -40129779.58249 -31247136.98746  20075663.8684   20075661.1064
 -28241083.09048 -21982543.30645  20820222.2904   20820219.8764
 04  7 30  0 46 29.9970000  0  9G10G 1G13G23G28G 3G19G27G 8
  -7761467.53547  -6026043.97042  22880665.2984   22880663.4314
 -45744686.35546 -35620866.85442  23369401.9624   23369402.4034
 -48671044.48449 -37903639.73146  19475485.0484   19475481.5364
 -48613718.89847 -37857354.49043  22021482.7434   22021479.1774
 -10049970.62548  -7804967.77242  22528465.8454   22528464.4744
 -21226241.82847 -16518880.83243  22146882.6884   22146880.7474
 -19772454.37148 -15384869.54244  21619706.5244   21619702.5174
 -40204980.69149 -31305735.25346  20061353.6494   20061351.0674
 -28351099.98448 -22068270.74445  20799286.3924   20799284.2824
 04  7 30  0 46 59.9970000  0  9G10G 1G13G23G28G 3G19G27G 8
  -7859846.57047  -6102702.97842  22861944.7284   22861942.2394
 -45698325.99646 -35584742.02442  23378224.1104   23378224.3724
 -48690462.09849 -37918770.34847  19471789.8604   19471786.8374
 -48570817.52347 -37823924.92643  22029646.9074   22029643.1144
 -10194794.98448  -7917817.79742  22500906.6344   22500905.2204
 -21244741.58647 -16533296.22043  22143362.0484   22143360.4154
 -19865810.96548 -15457614.92244  21601940.9784   21601937.1344
 -40280044.05949 -31364226.18446  20047069.1424   20047066.7864
 -28460965.28148 -22153880.05545  20778379.6814   20778377.7164
 04  7 30  0 47 29.9970000  0  9G10G 1G13G23G28G 3G19G27G 8
  -7957710.68747  -6178960.72642  22843322.0094   22843319.9814
 -45651802.62146 -35548490.15742  23387077.5794   23387078.0284
 -48709396.30948 -37933524.29246  19468186.9384   19468183.6034
 -48527670.82447 -37790304.19743  22037857.8764   22037853.7744
 -10339407.09048  -8030502.45743  22473387.8604   22473385.9974
 -21262700.87546 -16547290.48942  22139945.1814   22139942.7004
 -19958705.72348 -15530000.40944  21584263.7594   21584260.1104
 -40354974.98449 -31422613.91746  20032810.7594   20032808.0134
 -28570685.07448 -22239375.97344  20757500.7674   20757498.4354
 04  7 30  0 47 59.9970000  0  9G10G 1G13G23G28G 3G19G27G 8
  -8055053.74647  -6254812.41542  22824798.1574   22824795.6184
 -45605112.78946 -35512108.53842  23395961.9314   23395962.4424
 -48727842.21549 -37947897.74046  19464676.7984   19464673.4154
 -48484275.59047 -37756489.78943  22046115.8064   22046111.6064
 -10483800.58648  -8143016.77542  22445910.6184   22445908.9154
 -21280115.69947 -16560860.50543  22136631.3994   22136629.1814
 -20051131.75048 -15602020.66744  21566675.8214   21566671.5404
 -40429768.33649 -31480894.44746  20018577.9234   20018575.4784
 -28680253.91048 -22324754.26945  20736650.4934   20736648.3994
 04  7 30  0 48 29.9970000  0  9G10G 1G13G23G28G 3G19G27G 8
  -8151867.35547  -6330251.56642  22806374.0174   22806372.6034
 -45558250.89546 -35475592.92242  23404879.6654   23404880.0754
 -48745792.89149 -37961885.29446  19461260.6964   19461257.5014
 -48440626.27047 -37722477.38043  22054421.9234   22054418.0834
 -10627967.18048  -8255354.28942  22418476.2674   22418474.5404
 -21296979.97347 -16574001.49443  22133422.2284   22133420.0634
 -20143079.74648 -15673668.44344  21549178.8684   21549174.7554
 -40504416.80549 -31539062.08046  20004372.5714   20004370.2044
 -28789664.08648 -22410008.93345  20715830.4624   20715827.9234
 04  7 30  0 48 59.9970000  0  9G10G 1G13G23G28G 3G19G27G 8
  -8248154.79747  -6405280.73342  22788051.2744   22788049.5754
 -45511223.25046 -35438948.01042  23413829.1884   23413828.5214
 -48763253.11749 -37975490.68146  19457938.2744   19457935.2164
 -48396729.10547 -37688271.85943  22062775.3684   22062771.1464
 -10771910.12548  -8367517.52442  22391085.0404   22391082.8564
 -21313299.28547 -16586717.83443  22130316.8134   22130314.5524
 -20234552.61348 -15744945.95244  21531772.5174   21531767.8924
 -40578924.55149 -31597120.06246  19990194.4784   19990191.9234
 -28898920.41448 -22495143.71545  20695039.5244   20695037.6034
 04  7 30  0 49 29.9970000  0  9G10G 1G13G23G28G 3G19G27G 8
  -8343922.73447  -6479905.09742  22769828.6344   22769825.8414
 -45464039.25446 -35402181.39342  23422808.2044   23422808.4744
 -48780230.91849 -37988720.15046  19454707.4854   19454704.4704
 -48352593.43747 -37653880.51943  22071174.2594   22071170.0054
 -10915636.07448  -8479511.68942  22363735.0324   22363733.0874
 -21329082.59447 -16599016.52743  22127312.5714   22127311.1534
 -20325556.09448 -15815857.73044  21514454.5174   21514450.9504
 -40653299.28549 -31655074.40446  19976041.2514   19976038.7944
 -29008030.43749 -22580164.49645  20674276.4384   20674274.3884
 04  7 30  0 49 59.9960000  0  9G10G 1G13G23G28G 3G19G27G 8
  -8439162.98447  -6554118.24842  22751703.6374   22751701.8524
 -45416698.05546 -35365292.22241  23431816.6214   23431816.9614
 -48796721.87148 -38001570.26146  19451569.4654   19451566.2074
 -48308218.52046 -37619302.71543  22079618.5044   22079614.0164
 -11059134.77348  -8591328.74142  22336428.0274   22336426.3984
 -21344326.46546 -16610894.89043  22124412.4264   22124409.6644
 -20416081.30148 -15886396.83044  21497228.1604   21497224.4384
 -40727534.22349 -31712919.80146  19961914.9884   19961912.4694
 -29116986.21949 -22665065.07545  20653542.8244   20653540.8954
 04  7 30  0 50 29.9960000  0  9G10G 1G13G23G28G 3G19G27G 8
  -8533877.10247  -6627921.44542  22733681.6914   22733678.5744
 -45369194.32847 -35328276.44942  23440856.5744   23440857.1724
 -48812723.83248 -38014039.34146  19448524.2464   19448521.1954
 -48263599.44947 -37584534.67243  22088109.1134   22088104.6724
 -11202410.99648  -8702972.45343  22309163.4264   22309161.3754
 -21359029.36746 -16622351.70843  22121614.1454   22121611.9344
 -20506128.57448 -15956563.52744  21480092.7234   21480088.4924
 -40801630.42648 -31770657.10946  19947815.0434   19947812.5204
 -29225790.84449 -22749847.87645  20632838.2854   20632836.2544
 04  7 30  0 50 59.9960000  0  9G10G 1G13G23G28G 3G19G27G 8
  -8628055.83647  -6701307.49242  22715759.2464   22715756.8484
 -45321526.43046 -35291132.77542  23449927.2934   23449928.1024
 -48828231.46148 -38026123.22046  19445573.4414   19445570.2344
 -48218734.57847 -37549575.09843  22096646.7774   22096641.9574
 -11345453.74248  -8814434.26042  22281942.2314   22281941.3164
 -21373186.64847 -16633383.37343  22118920.1684   22118918.3484
 -20595688.13748 -16026350.16244  21463050.0824   21463045.9454
 -40875580.12548 -31828280.24946  19933742.5984   19933740.5124
 -29334435.87949 -22834506.32445  20612163.6914   20612161.3364
 04  7 30  0 51 29.9960000  0  8G10G13G23G28G 3G19G27G 8
  -8721705.49647  -6774281.19542  22697936.9104   22697936.0274
 -48843252.19549 -38037827.69646  19442714.9884   19442711.9814
 -48173632.69146 -37514430.83443  22105228.9104   22105225.1644
 -11488269.04348  -8925718.80543  22254765.9884   22254764.3794
 -21386807.02047 -16643996.62443  22116327.9734   22116326.3324
 -20684765.42648 -16095761.01344  21446098.9104   21446094.9494
 -40949390.42648 -31885794.75946  19919697.0434   19919694.5904
 -29442928.35549 -22919045.89145  20591518.0744   20591516.1064
 04  7 30  0 51 59.9960000  0  8G10G13G23G28G 3G19G27G 8
  -8814822.02347  -6846839.55242  22680219.0594   22680216.9614
 -48857783.57048 -38049150.86747  19439949.9964   19439946.6524
 -48128292.98446 -37479101.26943  22113857.3324   22113853.2774
 -11630852.91847  -9036823.05543  22227633.6524   22227631.1604
 -21399888.78947 -16654190.20943  22113838.8714   22113836.9774
 -20773355.92648 -16164792.55144  21429241.1454   21429237.1454
 -41023058.24248 -31943198.26046  19905678.6134   19905676.0704
 -29551265.17649 -23003464.17345  20570902.3094   20570900.3674
 04  7 30  0 52 29.9960000  0  8G10G13G23G28G 3G19G27G 8
  -8907400.89547  -6918978.92242  22662601.5514   22662599.5514
 -48871822.50449 -38060090.30746  19437278.3564   19437275.2664
 -48082713.24647 -37443584.64643  22122531.0744   22122527.1174
 -11773200.38348  -9147743.06443  22200545.5204   22200543.6484
 -21412429.63747 -16663962.31443  22111452.1604   22111450.7894
 -20861454.18448 -16233440.50944  21412476.5904   21412472.4184
 -41096579.60549 -32000487.63046  19891688.0044   19891685.7464
 -29659442.58249 -23087758.22945  20550317.0044   20550314.7934
 04  7 30  0 52 59.9960000  0  8G10G13G23G28G 3G19G27G 8
  -8999433.44947  -6990692.59842  22645088.1454   22645086.1174
 -48885361.29349 -38070640.03347  19434701.6294   19434698.8714
 -48036887.35946 -37407876.21143  22131251.1064   22131247.9534
 -11915303.00047  -9258472.28443  22173504.2934   22173502.0634
 -21424422.94947 -16673307.75143  22109169.8164   22109168.5044
 -20949050.92648 -16301697.69444  21395806.9264   21395803.5354
 -41169946.38349 -32057656.54146  19877726.7704   19877724.0004
 -29767452.77749 -23171921.99745  20529763.1134   20529760.9694
 04  7 30  0 53 29.9960000  0  8G10G13G23G28G 3G19G27G 8
  -9090925.94147  -7061985.40742  22627678.7154   22627675.3054
 -48898407.98849 -38080806.29947  19432219.3564   19432216.4614
 -47990824.77046 -37371983.35743  22140016.9184   22140013.0594
 -12057166.55148  -9369015.24343  22146508.4184   22146506.1914
 -21435877.39546 -16682233.30343  22106990.2234   22106988.6914
 -21036151.32848 -16369568.10744  21379232.3794   21379228.3984
 -41243165.96549 -32114710.76746  19863793.4964   19863790.9774
 -29875302.70749 -23255960.88545  20509240.0124   20509237.5744
 04  7 30  0 53 59.9960000  0  8G10G13G23G28G 3G19G27G 8
  -9181868.75047  -7132849.96342  22610372.2544   22610370.1524
 -48910954.18448 -38090582.56846  19429831.8564   19429828.9144
 -47944518.64546 -37335900.71843  22148828.0044   22148824.1334
 -12198781.23447  -9479364.27843  22119559.4104   22119558.2854
 -21446785.69146 -16690733.30143  22104914.3484   22104912.8444
 -21122745.18048 -16437043.81944  21362754.6134   21362750.2384
 -41316229.38348 -32171643.29746  19849890.1994   19849887.4144
 -29982984.02049 -23339868.37545  20488749.3714   20488746.7504
 04  7 30  0 54 29.9960000  0  8G10G13G23G28G 3G19G27G 8
  -9272268.64147  -7203291.43542  22593169.1914   22593166.9574
 -48923007.89148 -38099975.08446  19427537.9494   19427535.0824
 -47897978.21947 -37299635.52743  22157684.8484   22157680.6954
 -12340153.46948  -9589524.40442  22092657.6684   22092655.4184
 -21457156.62946 -16698814.55843  22102941.0274   22102939.1414
 -21208838.34448 -16504129.37344  21346371.3404   21346367.3564
 -41389143.96148 -32228459.85046  19836014.7074   19836012.1414
 -30090503.19549 -23423649.53445  20468288.6604   20468286.3564
 04  7 30  0 54 59.9960000  0  8G10G13G23G28G 3G19G27G 8
  -9362119.48447  -7273305.06342  22576070.7234   22576068.4534
 -48934564.41449 -38108980.17646  19425338.9884   19425335.8914
 -47851199.84846 -37263184.91142  22166586.7464   22166581.7314
 -12481276.99248  -9699490.71542  22065802.7544   22065800.7424
 -21466986.23847 -16706473.99943  22101070.5594   22101068.9384
 -21294424.04748 -16570819.50944  21330085.0044   21330080.8834
 -41461904.03549 -32285156.00746  19822168.9024   19822166.7384
 -30197855.36749 -23507300.56145  20447860.2624   20447858.3484
 04  7 30  0 55 29.9960000  0  8G10G13G23G28G 3G19G27G 8
  -9451429.37147  -7342897.21042  22559076.3404   22559074.2664
 -48945632.89149 -38117604.96946  19423232.5124   19423229.7034
 -47804194.60246 -37226557.53242  22175530.9654   22175527.0164
 -12622159.55548  -9809269.26343  22038993.4884   22038991.5664
 -21476285.10947 -16713719.90242  22099301.2774   22099299.2464
 -21379509.61748 -16637119.93444  21313893.8324   21313889.6524
 -41534518.57848 -32341738.76946  19808351.1294   19808348.6294
 -30305049.12149 -23590828.14845  20427461.9654   20427459.5164
 04  7 30  0 55 59.9960000  0  8G10G13G23G28G 3G19G27G 8
  -9540197.93447  -7412067.49142  22542183.3324   22542181.8204
 -48956214.36749 -38125850.28746  19421219.2704   19421215.9694
 -47756964.36346 -37189754.81543  22184519.1914   22184514.9814
 -12762800.41847  -9918859.47743  22012229.8874   22012228.2314
 -21485054.73048 -16720553.36442  22097632.5124   22097630.3094
 -21464093.66048 -16703029.55444  21297797.7464   21297793.5784
 -41606987.34448 -32398207.92646  19794560.5984   19794558.4814
 -30412084.52349 -23674232.34245  20407093.9264   20407091.7074
 04  7 30  0 56 29.9960000  0  8G10G13G23G28G 3G19G27G 8
  -9628427.02347  -7480817.41742  22525394.4264   22525392.8094
 -48966312.24249 -38133718.76546  19419297.5434   19419294.5044
 -47709514.00047 -37152780.57343  22193548.9104   22193545.2114
 -12903201.41448 -10028262.76043  21985512.8324   21985511.2894
 -21493299.35546 -16726977.75543  22096063.4184   22096061.7894
 -21548177.46948 -16768549.36744  21281797.2704   21281793.0824
 -41679313.16849 -32454565.71046  19780797.3094   19780794.8564
 -30518964.67649 -23757515.56145  20386755.4654   20386752.9694
 04  7 30  0 56 59.9960000  0  8G10G13G23G28G 3G19G27G 8
  -9716115.35947  -7549145.99442  22508707.5904   22508706.3524
 -48975926.44149 -38141210.36146  19417467.9654   19417464.9184
 -47661844.80147 -37115635.81343  22202620.2384   22202616.8054
 -13043360.84848 -10137477.85943  21958841.0744   21958839.2894
 -21501019.68048 -16732993.59943  22094594.6764   22094592.7624
 -21631758.84048 -16833677.69644  21265892.4024   21265887.9884
 -41751494.95749 -32510811.26546  19767061.6134   19767059.0904
 -30625688.51649 -23840676.98645  20366446.3164   20366443.9734
 04  7 30  0 57 29.9960000  0  8G10G13G23G28G 3G19G27G 8
  -9803255.38347  -7617047.33142  22492125.5124   22492123.8634
 -48985050.68749 -38148320.18846  19415731.7624   19415728.8094
 -47613951.69947 -37078316.55943  22211734.1914   22211730.0434
 -13183270.75048 -10246498.49943  21932217.1134   21932215.6024
 -21508210.53548 -16738596.90043  22093226.0904   22093224.3134
 -21714829.44148 -16898408.03144  21250084.5514   21250080.1484
 -41823525.71149 -32566939.13246  19753354.4494   19753352.2314
 -30732248.66049 -23923710.85945  20346168.8014   20346166.0124
 04  7 30  0 57 59.9960000  0  8G10G13G23G28G 3G19G27G 8
  -9889848.12947  -7684522.18542  22475648.0744   22475646.0554
 -48993687.06249 -38155049.82746  19414088.3324   19414085.3754
 -47565838.56247 -37040825.88043  22220889.4734   22220885.3834
 -13322931.93748 -10355325.31943  21905640.6134   21905638.6174
 -21514875.45748 -16743790.34342  22091957.4574   22091955.8564
 -21797389.76248 -16962740.70244  21234373.5824   21234369.6064
 -41895406.96549 -32622950.48646  19739676.1914   19739673.7274
 -30838647.27349 -24006618.85345  20325921.6844   20325919.3794
 04  7 30  0 58 29.9960000  0  8G10G13G23G28G 3G19G27G 8
  -9975894.23047  -7751571.09842  22459274.0744   22459271.9884
 -49001837.82449 -38161401.08646  19412537.2384   19412534.2034
 -47517508.35947 -37003166.07543  22230086.1684   22230081.8794
 -13462344.52748 -10463958.42643  21879111.3324   21879109.2074
 -21521016.96546 -16748575.94242  22090789.2464   22090786.8674
 -21879439.17648 -17026675.29344  21218760.2544   21218755.9734
 -41967139.66849 -32678846.10746  19726025.7074   19726023.2424
 -30944885.22349 -24089401.66545  20305705.2234   20305702.6454
 04  7 30  0 58 59.9960000  0  8G10G13G23G28G 3G19G27G 8
 -10061393.64847  -7818193.99042  22443003.3564   22443002.0204
 -49009504.34849 -38167375.01746  19411078.4734   19411075.3874
 -47468963.62547 -36965339.06743  22239324.1764   22239320.7544
 -13601508.59448 -10572397.92043  21852629.1524   21852627.1914
 -21526637.57447 -16752955.65242  22089719.5744   22089717.8874
 -21960977.32448 -17090211.48644  21203243.9184   21203239.7974
 -42038724.40649 -32734626.41946  19712404.1064   19712401.4304
 -31050963.13349 -24172059.77145  20285519.4104   20285516.9024
 04  7 30  0 59 29.9960000  0  8G10G13G23G28G 3G19G27G 8
 -10146350.93047  -7884394.47742  22426837.8324   22426834.9844
 -49016692.38349 -38172976.09646  19409710.4884   19409707.7034
 -47420211.71947 -36927350.64943  22248601.2854   22248598.0594
 -13740428.07848 -10680646.79843  21826193.1844   21826191.3564
 -21531744.23447 -16756934.88642  22088747.9344   22088746.1254
 -22042007.97748 -17153352.23844  21187824.5274   21187820.2154
 -42110166.10549 -32790295.27646  19698808.9574   19698806.5204
 -31156886.01249 -24254597.07245  20265362.7624   20265360.5944
 04  7 30  0 59 59.9960000  0  8G10G13G23G28G 3G19G27G 8
 -10230757.19547  -7950165.57542  22410775.1684   22410772.8164
 -49023394.19149 -38178198.29546  19408435.3324   19408432.2384
 -47371245.97747 -36889195.58443  22257919.3634   22257915.9304
 -13879093.37148 -10788697.62443  21799806.4414   21799804.1844
 -21536329.62548 -16760507.95342  22087875.3094   22087872.9224
 -22122521.23048 -17216089.80944  21172503.0744   21172498.8364
 -42181455.99249 -32845845.83646  19685242.8794   19685240.4184
 -31262645.43449 -24337007.00845  20245237.7544   20245235.0474
 04  7 30  1  0 29.9960000  0  8G10G13G23G28G 3G19G27G 8
 -10314611.27747  -8015506.40242  22394817.6214   22394816.2854
 -49029610.00049 -38183041.79746  19407252.4414   19407249.5394
 -47322067.71147 -36850874.92543  22267277.7384   22267273.9924
 -14017503.07847 -10896549.27843  21773467.9734   21773466.0394
 -21540394.83246 -16763675.63742  22087101.5434   22087099.8404
 -22202514.88748 -17278422.51544  21157280.5824   21157276.6174
 -42252593.16049 -32901277.38346  19671705.6604   19671703.3794
 -31368240.10549 -24419288.56745  20225143.4734   20225141.1644
 04  7 30  1  0 59.9960000  0  8G10G13G23G28G 3G19G27G 8
 -10397917.13747  -8080420.03842  22378964.8714   22378963.8014
 -49035344.60549 -38187510.33146  19406161.1524   19406158.0274
 -47272683.48047 -36812393.80843  22276675.4884   22276671.2934
 -14155660.76248 -11004204.53743  21747177.0204   21747175.3204
 -21543946.07847 -16766442.86142  22086425.4574   22086423.5124
 -22281992.25848 -17340352.90244  21142156.5904   21142152.5514
 -42323581.98049 -32956593.34146  19658197.1524   19658194.6914
 -31473674.23849 -24501445.02745  20205080.2934   20205077.6804
 04  7 30  1  1 29.9960000  0  8G10G13G23G28G 3G19G27G 8
 -10480668.81247  -8144901.83242  22363218.4184   22363216.2814
 -49040593.55149 -38191600.44546  19405162.4734   19405159.6254
 -47223089.57847 -36773749.28843  22286112.8404   22286109.3564
 -14293559.84048 -11111658.29743  21720936.0984   21720933.8634
 -21546979.58247 -16768806.63842  22085848.4734   22085846.4884
 -22360946.45348 -17401875.62844  21127132.2934   21127128.0944
 -42394416.73449 -33011789.25646  19644717.8324   19644715.1604
 -31578942.35949 -24583472.14045  20185048.1684   20185045.5434
 04  7 30  1  1 59.9960000  0  8G10G13G23G28G 3G19G27G 8
 -10562871.27747  -8208955.71342  22347576.2314   22347573.2034
 -49045363.45749 -38195317.26246  19404254.5434   19404251.2384
 -47173293.34447 -36734947.08943  22295588.7774   22295585.2314
 -14431204.98848 -11218914.20943  21694743.2464   21694740.6914
 -21549502.50847 -16770772.57642  22085368.4494   22085366.6684
 -22439381.63748 -17462993.93744  21112206.2544   21112202.2314
 -42465102.11749 -33066868.76946  19631266.8324   19631264.3364
 -31684049.77749 -24665374.00245  20165046.8714   20165044.4454
 04  7 30  1  2 29.9960000  0  8G10G13G23G28G 3G19G27G 8
 -10644519.25847  -8272577.46642  22332038.7464   22332036.3054
 -49049650.42649 -38198657.77646  19403439.0594   19403435.9224
 -47123292.38747 -36695985.38643  22305104.2384   22305100.1094
 -14568590.52348 -11325967.78943  21668598.8324   21668596.9064
 -21551512.00847 -16772338.42542  22084986.4654   22084984.0164
 -22517291.82448 -17523703.14344  21097380.6994   21097376.4964
 -42535633.46149 -33121828.24346  19617844.8164   19617842.6724
 -31788992.06249 -24747147.19445  20145077.0744   20145074.8244
 04  7 30  1  2 59.9960000  0  8G10G13G23G28G 3G19G27G 8
 -10725612.29747  -8335766.84242  22316607.5044   22316605.3164
 -49053454.32449 -38201621.87146  19402714.8404   19402711.9734
 -47073088.51647 -36656865.60243  22314657.5274   22314653.3444
 -14705715.73848 -11432818.52643  21642505.2934   21642502.8204
 -21553009.70747 -16773505.49542  22084700.9574   22084699.0124
 -22594675.93448 -17584002.42144  21082655.0594   21082651.0744
 -42606010.54749 -33176667.52846  19604452.6764   19604450.3714
 -31893768.94949 -24828791.50945  20125138.5124   20125136.2894
 04  7 30  1  3 29.9960000  0  8G10G13G23G28G 3G19G27G 8
 -10806149.53947  -8398523.13642  22301281.1294   22301279.3364
 -49056776.01649 -38204210.21646  19402083.1134   19402080.0784
 -47022683.35547 -36617588.93043  22324248.9964   22324245.8714
 -14842579.17247 -11539465.32043  21616460.9104   21616458.6374
 -21553996.94546 -16774274.77942  22084512.7934   22084510.9454
 -22671532.37948 -17643890.53544  21068029.8014   21068025.6914
 -42676232.82449 -33231386.18246  19591089.8954   19591087.2424
 -31998379.14549 -24910305.93445  20105231.9734   20105229.4304
 04  7 30  1  3 59.9960000  0  8G10G13G23G28G 3G19G27G 8
 -10886135.91047  -8460850.16842  22286060.8714   22286058.7034
 -49059621.96149 -38206427.84446  19401541.2234   19401538.3564
 -46972084.06647 -36578160.97143  22333877.7154   22333874.4384
 -14979185.20348 -11645911.50043  21590465.8484   21590463.2464
 -21554480.72346 -16774651.73742  22084420.7384   22084419.1374
 -22747865.06648 -17703370.53744  21053503.9814   21053499.7114
 -42746305.00049 -33285987.86646  19577755.5904   19577753.0554
 -32102828.24249 -24991694.82745  20085355.9104   20085353.8244
 04  7 30  1  4 29.9960000  0  8G10G13G23G28G 3G19G27G 8
 -10965574.37947  -8522750.26342  22270944.5904   22270942.0984
 -49061996.64549 -38208278.26846  19401089.7544   19401086.6214
 -46921295.91047 -36538585.84143  22343542.2314   22343539.0514
 -15115535.98448 -11752158.79243  21564519.3404   21564516.5234
 -21554466.05947 -16774640.36742  22084424.0984   22084421.9144
 -22823676.03548 -17762443.99644  21039077.7314   21039073.3794
 -42816230.09449 -33340474.95446  19564449.1524   19564446.9024
 -32207119.13349 -25072960.43445  20065510.0594   20065507.8484
 04  7 30  1  4 59.9950000  0  8G10G13G23G28G 3G19G27G 8
 -11044460.94947  -8584220.31942  22255932.5934   22255930.2574
 -49063898.87949 -38209760.53846  19400727.5694   19400724.2964
 -46870321.45346 -36498865.59942  22353242.4604   22353239.3004
 -15251625.40248 -11858202.42043  21538622.0154   21538619.7764
 -21553953.95747 -16774241.31942  22084521.5464   22084519.5114
 -22898960.58248 -17821107.26944  21024751.5464   21024746.9404
 -42886004.51249 -33394844.62346  19551171.6794   19551168.9834
 -32311247.12949 -25154099.10645  20045694.9604   20045692.3474
 04  7 30  1  5 29.9950000  0  8G10G13G23G28G 3G19G27G 8
 -11122794.10247  -8645259.10742  22241025.3124   22241024.0584
 -49065323.60549 -38210870.73146  19400456.5544   19400453.2414
 -46819153.05546 -36458994.19242  22362979.1634   22362976.7964
 -15387455.03948 -11964043.62543  21512774.1324   21512772.3584
 -21552939.57447 -16773450.90242  22084714.4214   22084712.6554
 -22973716.27348 -17879358.44044  21010526.0624   21010521.6244
 -42955626.06649 -33449095.17546  19537922.7654   19537920.4764
 -32415212.60249 -25235111.13645  20025911.1324   20025908.6054
 04  7 30  1  5 59.9950000  0  8G10G13G23G28G 3G19G27G 8
 -11200574.07047  -8705866.91242  22226225.8434   22226223.3584
 -49066275.27349 -38211612.30346  19400275.2264   19400272.3984
 -46767797.67646 -36418977.05842  22372752.0074   22372748.6594
 -15523022.66048 -12069680.66543  21486976.5624   21486974.4954
 -21551427.82047 -16772272.95942  22085001.7654   22085000.4094
 -23047942.62548 -17937197.13644  20996401.1484   20996396.9094
 -43025095.27349 -33503227.01946  19524703.5154   19524701.3004
 -32519014.77049 -25315995.92845  20006158.2104   20006155.4604
 04  7 30  1  6 29.9950000  0  8G10G13G23G28G 3G19G27G 8
 -11277795.32847  -8766039.33442  22211530.4374   22211528.4014
 -49066748.86749 -38211981.35346  19400185.2574   19400182.2334
 -46716252.06246 -36378811.78242  22382560.5694   22382557.7454
 -15658322.27047 -12175108.86143  21461230.1164   21461227.8744
 -21549415.68047 -16770705.09242  22085384.5074   22085383.4404
 -23121633.34048 -17994618.45144  20982378.1944   20982374.1904
 -43094406.65249 -33557235.87246  19511514.0624   19511511.4214
 -32622648.52349 -25396749.46045  19986437.3664   19986435.3234
 04  7 30  1  6 59.9950000  0  8G10G13G23G28G 3G19G27G 8
 -11354457.51647  -8825776.06142  22196941.3274   22196940.0584
 -49066745.70749 -38211978.90946  19400186.0074   19400183.0814
 -46664518.07446 -36338499.63843  22392406.2494   22392403.3744
 -15793352.92248 -12280327.47743  21435533.9374   21435532.2694
 -21546904.83247 -16768748.52842  22085862.7964   22085861.4684
 -23194787.06247 -18051621.33944  20968457.5854   20968453.1674
 -43163559.78149 -33611121.42446  19498354.6404   19498352.2764
 -32726113.50448 -25477371.50745  19966748.4524   19966746.0154
 04  7 30  1  7 29.9950000  0  8G10G13G23G28G 3G19G27G 8
 -11430562.32847  -8885078.55942  22182459.2494   22182457.5114
 -49066268.36749 -38211606.96946  19400276.9054   19400273.7374
 -46612599.44146 -36298043.63342  22402286.3274   22402282.2024
 -15928115.55548 -12385337.25943  21409889.5154   21409887.4994
 -21543898.88347 -16766406.27842  22086435.1324   22086433.4054
 -23267404.47348 -18108206.30744  20954638.4764   20954634.6084
 -43232556.03949 -33664884.73246  19485225.2184   19485222.4874
 -32829411.23448 -25557863.22346  19947091.8044   19947089.2104
 04  7 30  1  7 59.9950000  0  8G10G13G23G28G 3G19G27G 8
 -11506111.03547  -8943947.69942  22168083.5624   22168081.0504
 -49065319.89849 -38210867.93346  19400457.1714   19400454.4294
 -46560499.49646 -36257446.39642  22412201.2804   22412196.5624
 -16062610.62948 -12490138.55843  21384295.6084   21384293.7764
 -21540401.14147 -16763680.79142  22087100.7184   22087098.9334
 -23339486.20747 -18164373.88944  20940922.4294   20940917.9604
 -43301396.38749 -33718526.56346  19472125.0774   19472122.7374
 -32932542.66048 -25638225.34445  19927466.4134   19927463.8234
 04  7 30  1  8 29.9950000  0  8G10G13G23G28G 3G19G27G 8
 -11581101.94947  -9002382.14942  22153812.5544   22153811.1714
 -49063898.99649 -38209760.75346  19400727.5624   19400724.6984
 -46508219.15246 -36216708.55542  22422148.7494   22422145.5464
 -16196836.35948 -12594729.97843  21358753.7884   21358751.8824
 -21536412.39147 -16760572.65142  22087859.2734   22087857.4334
 -23411030.07448 -18220122.34544  20927307.5384   20927303.4724
 -43370079.32449 -33772045.72546  19459055.3984   19459052.6404
 -33035506.30149 -25718456.72645  19907872.9294   19907870.5234
 04  7 30  1  8 59.9950000  0  8G10G13G23G28G 3G19G27G 8
 -11655530.94147  -9060378.76542  22139649.9914   22139647.6674
 -49062003.75449 -38208283.96046  19401088.4134   19401085.2734
 -46455756.72346 -36175828.78142  22432131.1944   22432128.0384
 -16330787.78547 -12699107.65243  21333263.4914   21333261.3824
 -21531930.58647 -16757080.36342  22088712.0544   22088710.8274
 -23482030.93048 -18275447.67444  20913797.2334   20913792.6324
 -43438600.49249 -33825438.84046  19446016.3194   19446013.4484
 -33138297.96949 -25798554.10546  19888312.6014   19888310.1324
 04  7 30  1  9 29.9950000  0  8G10G13G23G28G 3G19G27G 8
 -11729401.19947  -9117940.00342  22125592.3514   22125591.0234
 -49059637.62549 -38206440.23646  19401538.7884   19401535.4524
 -46403117.24646 -36134811.09342  22442148.8274   22442146.1164
 -16464467.40648 -12803273.54243  21307825.3044   21307822.5194
 -21526961.04347 -16753208.03042  22089657.9524   22089656.3584
 -23552490.97748 -18330351.58144  20900388.4914   20900384.2454
 -43506963.00449 -33878708.33046  19433007.2574   19433004.4834
 -33240920.77049 -25878519.90845  19868783.8664   19868781.4444
 04  7 30  1  9 59.9950000  0  8G10G13G23G28G 3G19G27G 8
 -11802708.71946  -9175062.73142  22111642.5854   22111640.8274
 -49056798.08649 -38204227.62546  19402079.2264   19402076.1244
 -46350298.97346 -36093654.06742  22452200.5464   22452197.5814
 -16597870.58247 -12907224.00243  21282439.7654   21282437.1904
 -21521501.86747 -16748954.13242  22090696.8274   22090695.3354
 -23622405.46148 -18384830.39244  20887084.3904   20887080.1944
 -43575162.30949 -33931850.63546  19420029.2804   19420026.6404
 -33343370.30148 -25958350.69846  19849288.3664   19849286.2454
 04  7 30  1 10 29.9950000  0  8G10G13G23G28G 3G19G27G 8
 -11875457.60947  -9231750.19842  22097798.3354   22097796.6014
 -49053490.01249 -38201649.92546  19402708.5774   19402705.6054
 -46297307.91046 -36052362.46642  22462284.8744   22462280.0114
 -16731000.57048 -13010961.57743  21257105.6944   21257103.3234
 -21515559.27347 -16744323.57542  22091827.7104   22091826.1164
 -23691777.68448 -18438886.65944  20873883.3434   20873878.8314
 -43643202.23049 -33984868.75046  19407081.8664   19407079.3474
 -33445651.27049 -26038050.14345  19829824.9524   19829822.4604
 04  7 30  1 10 59.9950000  0  8G10G13G23G28G 3G19G27G 8
 -11947645.38746  -9288000.40642  22084061.9604   22084059.9444
 -49049712.67649 -38198706.55946  19403427.4684   19403424.8234
 -46244143.77346 -36010935.92242  22472401.2574   22472398.0654
 -16863854.23048 -13114483.85743  21231824.1164   21231821.8234
 -21509132.60247 -16739315.79442  22093050.9604   22093049.1164
 -23760604.19548 -18492517.68244  20860786.1084   20860781.7734
 -43711080.14149 -34037760.62546  19394165.0074   19394162.3234
 -33547760.12549 -26117615.46446  19810394.2184   19810392.0264
 04  7 30  1 11 29.9950000  0  8G10G13G23G28G 3G19G27G 8
 -12019275.35946  -9343815.97342  22070430.8514   22070429.2924
 -49045470.31649 -38195400.84046  19404234.5854   19404231.7064
 -46190812.14546 -35969378.84142  22482549.6634   22482546.0304
 -16996433.99248 -13217792.70544  21206594.8824   21206593.1904
 -21502227.19147 -16733934.94042  22094364.9374   22094362.8084
 -23828887.48848 -18545725.43644  20847792.2104   20847787.6594
 -43778798.65249 -34090528.28646  19381278.5154   19381276.0154
 -33649699.90649 -26197049.04546  19790995.6714   19790993.4914
 04  7 30  1 11 59.9950000  0  8G10G13G23G28G 3G19G27G 8
 -12090352.97347  -9399201.14342  22056905.5694   22056903.6444
 -49040769.02049 -38191737.51746  19405129.3124   19405126.5424
 -46137320.18746 -35927696.92842  22492728.6634   22492725.2654
 -17128744.64848 -13320891.85544  21181416.8584   21181414.8704
 -21494850.53147 -16728186.93242  22095768.2734   22095766.4254
 -23896632.11348 -18598513.44644  20834900.5544   20834896.3394
 -43846362.87549 -34143175.73647  19368421.5154   19368418.9254
 -33751475.95349 -26276355.04246  19771628.4294   19771625.8234
 04  7 30  1 12 29.9950000  0  8G10G13G23G28G 3G19G27G 8
 -12160867.30946  -9454147.35842  22043487.6554   22043485.3314
 -49035599.02749 -38187708.97046  19406112.8514   19406109.6244
 -46083658.94147 -35885883.03342  22502940.8044   22502937.4874
 -17260774.14148 -13423771.93444  21156292.9834   21156290.2144
 -21486993.55147 -16722064.62442  22097264.2184   22097261.7694
 -23963826.21148 -18650872.45244  20822114.4444   20822109.9334
 -43913761.20349 -34195693.89546  19355596.2024   19355593.3744
 -33853076.65649 -26355524.40946  19752294.4764   19752292.0894
 04  7 30  1 12 59.9950000  0  8G10G13G23G28G 3G19G27G 8
 -12230811.89847  -9508649.63942  22030177.2654   22030175.2764
 -49029955.59449 -38183311.50246  19407187.0464   19407183.9954
 -46029824.21546 -35843933.98842  22513185.2334   22513181.1754
 -17392515.52048 -13526427.49744  21131222.9604   21131221.2454
 -21478652.10247 -16715564.80342  22098850.6944   22098849.1714
 -24030462.63348 -18702796.92644  20809433.4444   20809429.5814
 -43980987.23049 -34248077.81346  19342803.4604   19342801.0384
 -33954496.03549 -26434552.47545  19732994.8744   19732992.2614
 04  7 30  1 13 29.9950000  0  8G10G13G23G28G 3G19G27G 8
 -12300193.18746  -9562712.98542  22016973.6714   22016972.7964
 -49023846.25049 -38178551.00446  19408349.2024   19408346.6674
 -45975824.95346 -35801856.73442  22523460.3044   22523458.0654
 -17523974.90648 -13628863.35143  21106207.6014   21106204.7574
 -21469834.99647 -16708694.35542  22100529.2414   22100527.6204
 -24096547.23048 -18754291.40944  20796858.0624   20796853.8474
 -44048046.99249 -34300332.17246  19330042.0384   19330039.6084
 -34055740.10249 -26513443.94846  19713728.6794   19713726.4444
 04  7 30  1 13 59.9950000  0  8G10G13G23G28G 3G19G27G 8
 -12369010.38347  -9616336.76542  22003878.7024   22003877.2494
 -49017271.18449 -38173427.59346  19409600.6634   19409597.8554
 -45921661.79746 -35759651.70342  22533767.7804   22533764.3704
 -17655150.39148 -13731077.95544  21081245.0854   21081242.7064
 -21460543.23447 -16701454.04642  22102296.8584   22102295.5074
 -24162078.27348 -18805354.54644  20784388.1714   20784383.7654
 -44114939.00849 -34352455.81646  19317313.1634   19317310.5074
 -34156807.42649 -26592197.68545  19694496.4294   19694493.8624
 04  7 30  1 14 29.9950000  0  8G10G13G23G28G 3G19G27G 8
 -12437266.50847  -9669523.38342  21990890.4054   21990888.1794
 -49010234.77749 -38167944.69946  19410939.7574   19410936.9684
 -45867339.93446 -35717323.11342  22544105.4684   22544101.9684
 -17786044.02748 -13833072.94444  21056337.2024   21056334.3904
 -21450781.95347 -16693847.86242  22104154.5384   22104152.8394
 -24227057.78548 -18855987.91744  20772022.8194   20772018.3784
 -44181665.78549 -34404450.70246  19304615.3514   19304612.8314
 -34257700.40649 -26670815.59046  19675297.3904   19675294.9404
 04  7 30  1 14 59.9950000  0  8G10G13G23G28G 3G19G27G 8
 -12504958.49246  -9722270.39742  21978008.4764   21978007.3744
 -49002734.56249 -38162100.40246  19412367.0854   19412364.1444
 -45812858.09846 -35674869.79742  22554472.8434   22554469.7304
 -17916652.03148 -13934845.35844  21031483.3514   21031480.7374
 -21440549.65247 -16685874.63342  22106101.7334   22106099.8194
 -24291482.02048 -18906188.60244  20759763.0154   20759758.8784
 -44248223.63748 -34456313.95246  19291949.9684   19291947.5304
 -34358415.31649 -26749294.72445  19656131.7574   19656128.9404
 04  7 30  1 15 29.9950000  0  8G10G13G23G28G 3G19G27G 8
 -12572091.78947  -9774582.04942  21965234.6794   21965232.1714
 -48994777.11349 -38155899.80646  19413881.3824   19413878.4014
 -45758223.89546 -35632297.76942  22564869.1084   22564866.0264
 -18046978.93748 -14036398.73044  21006682.6634   21006680.4764
 -21429854.09447 -16677540.45242  22108136.5934   22108135.6944
 -24355355.43048 -18955960.06744  20747608.6014   20747604.1244
 -44314617.46949 -34508049.39046  19279315.4134   19279313.1714
 -34458957.35249 -26827639.14846  19636999.2884   19636996.8194
 04  7 30  1 15 59.9950000  0  8G10G13G23G28G 3G19G27G 8
 -12638661.85247  -9826454.80142  21952565.9994   21952563.9644
 -48986358.75449 -38149340.07346  19415483.1244   19415480.5464
 -45703434.48047 -35589604.82043  22575295.4994   22575292.7844
 -18177019.37148 -14137728.88944  20981937.1404   20981934.3434
 -21418692.38747 -16668843.05042  22110261.5384   22110259.0424
 -24418672.46548 -19005298.01244  20735559.5464   20735555.4254
 -44380841.93049 -34559652.86446  19266713.3044   19266710.7964
 -34559321.34449 -26905844.84946  19617900.4374   19617898.0734
 04  7 30  1 16 29.9950000  0  8G10G13G23G28G 3G19G27G 8
 -12704673.96547  -9877892.83642  21940003.7654   21940002.5154
 -48977486.17649 -38142426.39946  19417171.7414   19417168.9334
 -45648497.08246 -35546796.59242  22585749.4294   22585746.2574
 -18306777.78948 -14238839.28944  20957244.6634   20957242.2534
 -21407072.29347 -16659788.43042  22112472.5694   22112470.3084
 -24481437.87148 -19054206.10644  20723616.1554   20723611.6794
 -44446901.80549 -34611128.09546  19254142.7494   19254139.9914
 -34659512.39849 -26983915.78846  19598834.9684   19598832.3704
 04  7 30  1 16 59.9950000  0  8G10G13G23G28G 3G19G27G 8
 -12770122.91047  -9928892.01442  21927550.0694   21927547.8354
 -48968155.32049 -38135155.61646  19418947.1714   19418944.2614
 -45593408.58646 -35503870.47742  22596232.6084   22596229.6444
 -18436248.14148 -14339725.23244  20932607.0544   20932604.5074
 -21394990.29347 -16650373.89642  22114771.5154   22114769.9174
 -24543645.67648 -19102679.70244  20711778.0934   20711773.5814
 -44512791.27749 -34662470.53346  19241604.4374   19241601.7414
 -34759524.64849 -27061847.40746  19579803.1714   19579800.5464
 04  7 30  1 17 29.9950000  0  8G10G13G23G28G 3G19G27G 8
 -12835007.81246  -9979451.66342  21915202.7334   21915200.8904
 -48958366.06249 -38127527.63646  19420810.1164   19420807.3234
 -45538169.70346 -35460827.37242  22606744.4764   22606741.0654
 -18565428.43048 -14440385.13644  20908024.7964   20908022.2884
 -21382447.34447 -16640600.18142  22117158.5304   22117156.6054
 -24605293.69148 -19150717.11144  20700046.7334   20700042.3584
 -44578508.53148 -34713678.77046  19229098.7574   19229096.0504
 -34859356.56649 -27139638.49346  19560805.7104   19560803.1594
 04  7 30  1 17 59.9950000  0  8G10G13G23G28G 3G19G27G 8
 -12899334.42647 -10029576.31542  21902960.8434   21902959.9214
 -48948125.62549 -38119548.10346  19422758.9834   19422756.0774
 -45482788.05946 -35417672.90742  22617283.0624   22617280.1054
 -18694323.67648 -14540822.91944  20883496.9214   20883494.3704
 -21369451.60247 -16630473.63842  22119631.5694   22119629.8624
 -24666387.18048 -19198322.40244  20688421.2734   20688416.7454
 -44644058.75449 -34764756.86246  19216625.2024   19216622.4444
 -34959013.18049 -27217292.98746  19541841.6084   19541839.1204
 04  7 30  1 18 29.9950000  0  8G10G13G23G28G 3G19G27G 8
 -12963094.98847 -10079259.86542  21890828.4764   21890827.1084
 -48937427.11749 -38111211.62546  19424794.5234   19424791.8274
 -45427257.85546 -35374402.72542  22627850.3824   22627846.9524
 -18822925.22748 -14641031.87144  20859024.4444   20859022.3004
 -21355996.87947 -16619989.43742  22122192.1164   22122189.9564
 -24726917.55148 -19245488.92644  20676902.2414   20676898.1484
 -44709433.40649 -34815698.14046  19204184.8044   19204182.1444
 -35058486.05549 -27294804.31546  19522912.8354   19522910.0464
 04  7 30  1 18 59.9950000  0  8G10G13G23G28G 3G19G27G 8
 -13026299.60546 -10128510.20442  21878801.2264   21878799.4054
 -48926281.24249 -38102526.54346  19426915.7964   19426912.7924
 -45371590.63346 -35331025.79642  22638444.0854   22638440.9564
 -18951241.90648 -14741018.83744  20834607.1084   20834604.5034
 -21342095.05147 -16609156.85842  22124837.4054   22124835.4954
 -24786893.75848 -19292223.62945  20665489.8514   20665485.2924
 -44774641.46549 -34866509.60746  19191775.8274   19191773.4684
 -35157783.89149 -27372179.23446  19504016.8274   19504014.5234
 04  7 30  1 19 29.9950000  0  8G10G13G23G28G 3G19G27G 8
 -13088940.82848 -10177321.55742  21866881.1634   21866878.8354
 -48914681.79749 -38093488.05146  19429123.1014   19429120.2224
 -45315780.75445 -35287537.65942  22649063.8124   22649060.6404
 -19079265.39848 -14840777.35244  20810244.6164   20810242.3194
 -21327740.77047 -16597971.73942  22127569.1714   22127566.7614
 -24846307.54348 -19338520.07144  20654183.2734   20654179.0424
 -44839674.79749 -34917184.93146  19179400.4764   19179397.9954
 -35256899.41849 -27449412.09146  19485155.7024   19485153.4724
 04  7 30  1 19 59.9940000  0  8G10G13G23G28G 3G19G27G 8
 -13151016.75448 -10225692.40642  21855067.8464   21855066.1474
 -48902630.34849 -38084097.33746  19431416.3934   19431413.4634
 -45259832.02746 -35243941.29342  22659710.6044   22659707.7834
 -19206990.66048 -14940303.46144  20785939.2134   20785936.6664
 -21312936.58247 -16586436.02642  22130385.4634   22130384.0654
 -24905156.28548 -19384376.23045  20642984.6584   20642980.7364
 -44904530.44949 -34967721.78846  19167058.9004   19167056.4474
 -35355828.80949 -27526499.91846  19466330.1584   19466327.8464
 04  7 30  1 20 29.9940000  0  8G10G13G23G28G 3G19G27G 8
 -13212534.84047 -10273628.57642  21843361.5494   21843360.0924
 -48890130.69949 -38074357.37946  19433795.0804   19433792.1354
 -45203746.03145 -35200238.12042  22670383.1974   22670380.8224
 -19334428.83648 -15039605.86944  20761688.7214   20761686.3304
 -21297686.68747 -16574552.99142  22133287.6504   22133286.2094
 -24963446.71948 -19429797.32945  20631892.6504   20631888.2054
 -44969215.54749 -35018125.75546  19154749.5724   19154747.3504
 -35454580.97749 -27603449.64146  19447538.4794   19447535.8614
 04  7 30  1 20 59.9940000  0  8G10G13G23G28G 3G19G27G 8
 -13273493.41047 -10321128.73542  21831761.6114   21831760.0654
 -48877185.07849 -38064269.88346  19436258.2994   19436255.6974
 -45147527.02745 -35156431.08242  22681081.5334   22681078.4434
 -19461574.89848 -15138680.67044  20737493.9244   20737491.2994
 -21281994.26647 -16562325.13343  22136273.6044   22136272.2914
 -25021176.51648 -19474781.58445  20620906.6664   20620902.8734
 -45033727.40649 -35068394.72347  19142473.5494   19142471.1154
 -35553152.64149 -27680258.72246  19428780.3614   19428778.1864
 04  7 30  1 21 29.9940000  0  8G10G13G23G28G 3G19G27G 8
 -13333897.26648 -10368196.68742  21820267.6664   21820265.3544
 -48863797.90249 -38053838.35146  19438805.5024   19438803.3774
 -45091180.74246 -35112525.06642  22691804.2364   22691801.6354
 -19588432.31648 -15237530.54444  20713353.1274   20713350.7254
 -21265865.40247 -16549757.23542  22139342.8384   22139341.5684
 -25078349.21548 -19519331.73044  20610027.1114   20610023.0724
 -45098069.37949 -35118531.32546  19130229.6584   19130227.0684
 -35651547.00449 -27756929.62946  19410056.8224   19410054.4594
 04  7 30  1 21 59.9940000  0  8G10G13G23G28G 3G19G27G 8
 -13393743.68747 -10414830.24442  21808878.7054   21808877.1114
 -48849967.78149 -38043061.66045  19441437.7834   19441435.1434
 -45034706.07845 -35068518.90642  22702550.5334   22702547.3894
 -19714997.42248 -15336152.64344  20689268.5884   20689266.4164
 -21249298.97747 -16536848.31642  22142495.4324   22142494.3184
 -25134961.05548 -19563444.83344  20599254.6194   20599250.3574
 -45162237.72749 -35168532.64046  19118018.7294   19118016.1114
 -35749760.38749 -27833459.52846  19391367.5494   19391365.2444
 04  7 30  1 22 29.9940000  0  8G10G13G23G28G 3G19G27G 8
 -13453028.75047 -10461026.43042  21797597.2684   21797595.5924
 -48835692.32049 -38031937.94646  19444154.2604   19444151.6114
 -44978100.90646 -35024411.11742  22713322.4714   22713319.9634
 -19841265.30148 -15434543.15944  20665240.7214   20665238.1864
 -21232293.31647 -16523597.18642  22145731.3384   22145730.3304
 -25191007.48848 -19607117.38244  20588589.0724   20588584.6704
 -45226227.69949 -35218394.94346  19105841.7834   19105839.2644
 -35847788.23449 -27909844.84146  19372713.2054   19372710.8694
 04  7 30  1 22 59.9940000  0  8G10G13G23G28G 3G19G27G 8
 -13511752.08247 -10506784.89342  21786421.5884   21786420.7324
 -48820971.84449 -38020467.46545  19446955.2684   19446952.8154
 -44921366.75445 -34980202.75142  22724118.8384   22724115.6824
 -19967234.52048 -15532700.92244  20641269.6194   20641266.8934
 -21214849.87547 -16510004.86942  22149051.0804   22149049.5724
 -25246487.34048 -19650348.41944  20578031.4864   20578027.3934
 -45290037.95749 -35268117.22346  19093699.2994   19093696.5924
 -35945629.00049 -27986084.38446  19354094.7754   19354092.4864
 04  7 30  1 23 29.9940000  0  8G10G13G23G28G 3G19G27G 8
 -13569924.48447 -10552114.01242  21775353.0024   21775351.3074
 -48805818.02349 -38008659.31846  19449839.2054   19449836.4084
 -44864516.08646 -34935903.61742  22734937.6354   22734934.5294
 -20092914.72348 -15630633.48744  20617353.4554   20617350.6004
 -21196981.25446 -16496081.31042  22152450.7444   22152449.6824
 -25301410.64148 -19693145.77644  20567580.0334   20567575.6074
 -45353678.14849 -35317706.97646  19081588.9404   19081586.2604
 -36043293.00849 -28062186.19846  19335510.0884   19335507.3774
 04  7 30  1 23 59.9940000  0  8G10G13G23G28G 3G19G27G 8
 -13627530.71147 -10597002.01242  21764389.6904   21764388.3934
 -48790216.77049 -37996502.52745  19452808.2214   19452805.4284
 -44807535.24246 -34891503.12142  22745780.6904   22745777.4324
 -20218289.87948 -15728328.35744  20593495.3774   20593492.6474
 -21178674.26247 -16481816.11642  22155935.1114   22155933.6194
 -25355761.37548 -19735496.99744  20557237.4794   20557232.7954
 -45417132.09849 -35367151.61446  19069513.9324   19069511.3694
 -36140764.14149 -28138137.71646  19316961.7054   19316959.2364
 04  7 30  1 24 29.9940000  0  8G10G13G23G28G 3G19G27G 8
 -13684575.00447 -10641452.10242  21753534.4324   21753533.5654
 -48774173.10549 -37984000.98245  19455860.8854   19455858.7564
 -44750429.69946 -34847005.30942  22756646.8854   22756644.2644
 -20343362.97748 -15825787.85444  20569694.7054   20569692.2134
 -21159934.68447 -16467213.87242  22159500.9864   22159499.5804
 -25409542.73448 -19777404.53244  20547003.5024   20546998.7914
 -45480402.78149 -35416453.43746  19057473.7364   19057471.2054
 -36238044.98849 -28213940.95646  19298449.6584   19298447.3304
 04  7 30  1 24 59.9940000  0  8G10G13G23G28G 3G19G27G 8
 -13741054.85948 -10685462.39542  21742786.8694   21742785.4674
 -48757685.41849 -37971153.46946  19458998.5724   19458995.8344
 -44693198.39846 -34802409.71242  22767538.0254   22767535.6114
 -20468130.08248 -15923008.93244  20545952.0024   20545949.5104
 -21140761.56247 -16452273.83242  22163149.9794   22163148.0294
 -25462751.14148 -19818865.62145  20536878.2294   20536873.6114
 -45543486.35549 -35465609.47546  19045469.5884   19045467.0574
 -36335132.43449 -28289593.50046  19279974.5024   19279972.0454
 04  7 30  1 25 29.9940000  0  8G10G13G23G28G 3G19G27G 8
 -13796971.76647 -10729033.99942  21732146.5804   21732145.2014
 -48740756.17649 -37957961.88545  19462220.1664   19462217.3734
 -44635844.60246 -34757718.45442  22778452.1744   22778448.8814
 -20592591.65648 -16019991.92344  20522267.8224   20522265.2874
 -21121158.73847 -16436998.83842  22166879.9084   22166878.0374
 -25515387.63748 -19859881.06044  20526861.2524   20526857.2134
 -45606383.28149 -35514620.05746  19033500.8464   19033497.6974
 -36432026.89149 -28365095.66846  19261536.4004   19261534.0184
 04  7 30  1 25 59.9940000  0  8G10G13G23G28G 3G19G27G 8
 -13852327.92647 -10772168.68342  21721613.1434   21721611.6234
 -48723388.32449 -37944428.51046  19465525.1584   19465522.5964
 -44578372.00446 -34712934.72242  22789389.1504   22789387.0224
 -20716749.02348 -16116737.87744  20498641.2914   20498638.8614
 -21101129.70347 -16421391.87842  22170691.5964   22170689.5334
 -25567453.41848 -19900451.78244  20516953.8074   20516949.3114
 -45669094.56249 -35563485.98846  19021567.1044   19021564.5144
 -36528729.39549 -28440448.24346  19243134.3854   19243131.8384
 04  7 30  1 26 29.9940000  0  9G10G31G13G23G28G 3G19G27G 8
 -13907132.68747 -10814873.73542  21711183.8614   21711182.4794
   -259535.09457   -173945.69952  22823627.1354   22823628.0924
 -48705592.32049 -37930561.53245  19468911.6194   19468909.1154
 -44520791.22746 -34668066.69142  22800346.4554   22800343.7794
 -20840610.08648 -16213252.92744  20475071.5804   20475068.8544
 -21080685.57447 -16405461.36242  22174582.0574   22174580.2174
 -25618957.13348 -19940584.54445  20507152.6904   20507148.5844
 -45731628.05549 -35612213.38046  19009667.5024   19009664.6624
 -36625247.25049 -28515656.95146  19224767.6904   19224764.9984
 04  7 30  1 26 59.9940000  0  9G10G31G13G23G28G 3G19G27G 8
 -13961391.55547 -10857153.37242  21700859.4404   21700857.2644
   -428349.97746   -305489.54542  22791502.4244   22791503.6114
 -48687374.32449 -37916365.71445  19472378.5654   19472375.7604
 -44463109.39846 -34623119.86642  22811323.3774   22811319.7324
 -20964179.32048 -16309540.58644  20451557.1044   20451554.5374
 -21059833.81247 -16389213.28242  22178549.9404   22178548.1864
 -25669903.37548 -19980282.90244  20497457.7834   20497453.9634
 -45793988.25049 -35660805.73346  18997800.5024   18997798.1274
 -36721585.92649 -28590726.02846  19206434.8544   19206432.7094
 04  7 30  1 27 29.9940000  0  9G10G31G13G23G28G 3G19G27G 8
 -14015109.07048 -10899011.19242  21690636.5184   21690635.2754
   -597229.55545   -437083.85642  22759365.7604   22759367.2294
 -48668740.02349 -37901845.50345  19475924.4474   19475921.4594
 -44405332.59446 -34578099.13342  22822317.8614   22822314.9674
 -21087460.13748 -16405603.49844  20428097.3384   20428094.9514
 -21038580.51247 -16372652.30942  22182594.1114   22182592.6154
 -25720296.00448 -20019549.87144  20487868.6974   20487864.6194
 -45856178.42249 -35709265.61046  18985966.2214   18985963.5574
 -36817748.74249 -28665658.07746  19188135.9084   19188133.5454
 04  7 30  1 27 59.9940000  0  8G10G31G13G28G 3G19G27G 8
 -14068283.06648 -10940445.49842  21680518.1504   21680516.4944
   -766168.35945   -568724.13342  22727217.3544   22727218.5614
 -48649687.84049 -37886999.68445  19479550.0574   19479547.3424
 -21210448.79748 -16501438.78544  20404693.0254   20404690.6274
 -21016924.87546 -16355777.78942  22186715.7754   22186713.6824
 -25770131.47348 -20058382.70244  20478385.6274   20478381.1114
 -45918194.71149 -35757589.98346  18974164.8464   18974162.2724
 -36913731.53949 -28740449.86046  19169871.0024   19169868.2174
 04  7 30  1 28 29.9940000  0  8G10G31G13G28G 3G19G27G 8
 -14120906.89847 -10981451.06942  21670504.5494   21670502.7094
   -935156.46546   -700402.88741  22695060.2834   22695061.0064
 -48630212.04349 -37871823.76645  19483256.2364   19483253.4864
 -21333137.59848 -16597040.39944  20381346.4404   20381343.6074
 -20994862.27746 -16338586.19842  22190913.7364   22190911.9004
 -25819402.41848 -20096775.63844  20469009.3074   20469004.8264
 -45980029.27349 -35805772.75746  18962398.1434   18962395.3424
 -37009526.49249 -28815095.25746  19151641.4634   19151639.4634
 04  7 30  1 28 59.9940000  0  8G10G31G13G28G 3G19G27G 8
 -14172964.81647 -11022015.69242  21660598.1504   21660596.3264
  -1104174.93745   -832105.38041  22662895.2364   22662897.6784
 -48610297.60949 -37856306.06245  19487045.8934   19487043.0804
 -21455509.44548 -16692395.02544  20358059.7214   20358057.1154
 -20972378.51646 -16321066.39842  22195191.9404   22195190.1474
 -25868092.66048 -20134716.06544  20459744.0334   20459739.8184
 -46041664.88749 -35853800.50446  18950669.2754   18950666.6434
 -37105116.98049 -28889581.33246  19133451.5254   19133449.1904
 04  7 30  1 29 29.9940000  0  8G10G31G13G28G 3G19G27G 8
 -14224460.92247 -11062142.54342  21650798.8774   21650797.1704
  -1273224.76646   -963832.25442  22630727.9794   22630728.4364
 -48589949.66449 -37840450.54845  19490918.1354   19490915.2294
 -21577567.27048 -16787504.97744  20334833.2444   20334830.3694
 -20949479.62145 -16303223.09942  22199548.2604   22199548.0804
 -25916205.10548 -20172206.27844  20450588.3694   20450584.0104
 -46103104.30148 -35901675.36846  18938977.7444   18938974.9754
 -37200505.87549 -28963910.32646  19115299.5414   19115296.8264
 04  7 30  1 29 59.9940000  0  8G10G31G13G28G 3G19G27G 8
 -14275398.76247 -11101834.36442  21641105.2604   21641103.6544
  -1442306.05545  -1095583.67641  22598551.7294   22598553.2644
 -48569172.50049 -37824260.57245  19494871.7524   19494868.7404
 -21699313.39148 -16882372.03644  20311665.2994   20311662.8264
 -20926170.60546 -16285060.25742  22203985.2754   22203983.2014
 -25963742.38348 -20209248.31345  20441542.6974   20441537.8224
 -46164349.54349 -35949398.93046  18927323.2134   18927320.4364
 -37295695.23049 -29038083.83846  19097185.5574   19097183.1194
 04  7 30  1 30 29.9940000  0  8G10G31G13G28G 3G19G27G 8
 -14325775.81648 -11141089.22942  21631518.8774   21631517.3184
  -1611412.99246  -1227354.99742  22566371.3694   22566372.4984
 -48547964.42249 -37807734.83445  19498907.2834   19498904.4204
 -21820743.84848 -16976993.12844  20288558.1434   20288555.0104
 -20902450.46545 -16266577.04942  22208498.4714   22208497.3424
 -26010701.15248 -20245839.53945  20432606.6274   20432602.0454
 -46225396.59449 -35996968.05546  18915706.4084   18915703.6904
 -37390680.67649 -29112098.45146  19079110.3384   19079107.9084
 04  7 30  1 30 59.9940000  0  8G10G31G13G28G 3G19G27G 8
 -14375601.62547 -11179914.56142  21622037.2834   21622035.7564
  -1780551.63746  -1359151.15642  22534185.2914   22534186.3734
 -48526335.69549 -37790881.29845  19503023.0964   19503020.6784
 -21941866.93448 -17071374.71144  20265508.8544   20265506.0804
 -20878330.21145 -16247782.07442  22213088.6904   22213087.1784
 -26057090.33648 -20281986.95844  20423778.6664   20423774.3504
 -46286253.46549 -36044388.98546  18904125.6904   18904122.8654
 -37485470.98449 -29185961.01946  19061072.1744   19061069.8264
 04  7 30  1 31 29.9940000  0  8G10G31G13G28G 3G19G27G 8
 -14424880.50847 -11218313.70242  21612659.3934   21612658.3344
  -1949722.71546  -1490972.45642  22501993.7134   22501994.3464
 -48504291.23849 -37773703.82845  19507218.4944   19507215.3224
 -22062685.47748 -17165518.99844  20242517.9164   20242515.2524
 -20853815.60246 -16228679.85042  22217754.6274   22217752.3544
 -26102913.11748 -20317692.98944  20415059.1664   20415054.6744
 -46346922.66049 -36091663.68246  18892580.7754   18892577.8854
 -37580068.13749 -29259673.06046  19043070.9714   19043068.5414
 04  7 30  1 31 59.9940000  0  8G10G31G13G28G 3G19G27G 8
 -14473611.21547 -11256285.68042  21603386.8074   21603385.0964
  -2118921.75846  -1622815.63842  22469796.0414   22469796.1504
 -48481830.55149 -37756202.01545  19511492.2134   19511489.6784
 -22183196.89548 -17259423.94444  20219585.0884   20219582.7564
 -20828907.11345 -16209270.66242  22222494.6044   22222492.3894
 -26148167.43048 -20352956.10045  20406447.4084   20406443.3074
 -46407401.60249 -36138790.11646  18881072.0494   18881069.2484
 -37674469.98449 -29333232.93546  19025107.1434   19025104.3344
 04  7 30  1 32 29.9940000  0  8G10G31G13G28G 3G19G27G 8
 -14521798.94547 -11293834.57542  21594217.0964   21594215.4514
  -2288150.68046  -1754682.10642  22437592.2214   22437593.1474
 -48458960.17649 -37738380.96945  19515844.3074   19515841.8114
 -22303405.18048 -17353092.67044  20196710.3854   20196707.1664
 -20803611.92245 -16189560.04942  22227307.9244   22227304.9004
 -26192857.82448 -20387779.76244  20397943.1194   20397938.6004
 -46467693.96549 -36185771.18046  18869598.5024   18869595.8774
 -37768680.34449 -29406643.59146  19007179.5254   19007177.0964
 04  7 30  1 32 59.9940000  0  8G10G31G13G28G 3G19G27G 8
 -14569433.89147 -11330952.73242  21585152.1904   21585150.6904
  -2457396.40647  -1886561.57042  22405386.6044   22405386.0964
 -48435670.93049 -37720233.52545  19520276.2994   19520273.6044
 -22423299.42248 -17446516.72744  20173895.0804   20173892.3034
 -20777921.73045 -16169541.81542  22232195.9404   22232194.4004
 -26236973.65248 -20422155.73144  20389548.0804   20389543.5144
 -46527788.35249 -36232597.96846  18858163.3614   18858160.6824
 -37862687.84849 -29479896.17346  18989290.3384   18989287.7834
 04  7 30  1 33 29.9940000  0  8G10G31G13G28G 3G19G27G 8
 -14616523.48447 -11367645.93042  21576191.7754   21576190.1544
  -2626662.54746  -2018457.02042  22373174.1434   22373175.7404
 -48411970.70749 -37701765.85145  19524786.2914   19524783.8114
 -22542885.41048 -17539700.56345  20151138.7684   20151136.1074
 -20751845.18745 -16149222.39642  22237158.3854   22237156.3224
 -26280521.52048 -20456089.13544  20381261.1354   20381256.8734
 -46587690.47749 -36279274.95546  18846764.0024   18846761.1904
 -37956498.09049 -29552995.05846  18971438.9794   18971436.4404
 04  7 30  1 33 59.9940000  0  8G10G31G13G28G 3G19G27G 8
 -14663063.56247 -11403910.93142  21567335.0334   21567333.6664
  -2795941.26647  -2150362.34442  22340962.1504   22340962.8384
 -48387856.28149 -37682975.41845  19529374.9474   19529372.2014
 -22662157.84448 -17632640.07445  20128441.8614   20128439.1004
 -20725379.92645 -16128600.20242  22242193.7684   22242193.1744
 -26323496.32048 -20489575.98744  20373083.2834   20373079.0064
 -46647394.41049 -36325797.49246  18835402.6114   18835400.0924
 -38050105.74249 -29625936.06246  18953625.8774   18953623.3464
 04  7 30  1 34 29.9940000  0  8G10G31G13G28G 3G19G27G 8
 -14709062.64848 -11439754.40242  21558582.0104   21558580.3304
  -2965237.77047  -2282281.40942  22308746.6904   22308746.5494
 -48363336.94149 -37663869.47845  19534040.9794   19534038.3264
 -22781123.54748 -17725340.58145  20105803.4864   20105800.7834
 -20698535.79746 -16107682.67242  22247302.8154   22247301.5064
 -26365905.65648 -20522622.21844  20365013.2364   20365008.9434
 -46706907.02349 -36372170.95346  18824077.8154   18824075.2254
 -38143517.34049 -29698724.31846  18935850.3614   18935847.8154
 04  7 30  1 34 59.9930000  0  8G10G31G13G28G 3G19G27G 8
 -14754512.60547 -11475169.94742  21549933.1144   21549931.6074
  -3134535.82847  -2414201.79142  22276530.1384   22276530.2244
 -48338407.47348 -37644443.94245  19538785.1774   19538782.7004
 -22899770.57448 -17817792.76944  20083225.8574   20083222.6614
 -20671308.44145 -16086466.56542  22252483.5754   22252482.7864
 -26407740.76648 -20555220.99544  20357052.3254   20357047.8024
 -46766217.84849 -36418387.18646  18812791.2944   18812788.7554
 -38236721.56649 -29771350.98546  18918114.2784   18918111.7554
 04  7 30  1 35 29.9930000  0  8G10G31G13G28G 3G19G27G 8
 -14799420.81247 -11510163.38042  21541387.1534   21541385.4824
  -3303847.71547  -2546132.94342  22244310.0674   22244311.1774
 -48313071.21548 -37624701.43345  19543606.1774   19543603.7674
 -23018109.85248 -17910005.14144  20060706.5134   20060703.7284
 -20643702.14846 -16064955.20442  22257736.9584   22257735.8294
 -26449008.11348 -20587377.36444  20349199.0524   20349195.1074
 -46825333.52749 -36464451.34646  18801541.8104   18801539.6224
 -38329727.21149 -29843822.89946  18900415.7474   18900413.2204
 04  7 30  1 35 59.9930000  0  8G10G31G13G28G 3G19G27G 8
 -14843783.93447 -11544732.05942  21532944.8174   21532943.6654
  -3473162.48047  -2678066.33642  22212089.9034   22212091.5134
 -48287327.96148 -37604641.79245  19548505.2554   19548502.4154
 -23136134.16448 -18001972.09044  20038247.2944   20038244.1464
 -20615717.43446 -16043148.94642  22263062.9274   22263061.4584
 -26489703.53948 -20619088.07945  20341455.1614   20341450.9194
 -46884248.60949 -36510359.20446  18790330.8724   18790328.2324
 -38422527.95749 -29916135.15846  18882756.2784   18882753.7984
 04  7 30  1 36 29.9930000  0  8G10G31G13G28G 3G19G27G 8
 -14887605.21947 -11578878.54742  21524605.8644   21524605.0244
  -3642479.41447  -2810001.37742  22179871.3254   22179871.2044
 -48261181.46948 -37584267.93045  19553480.7084   19553477.9504
 -23253845.32048 -18093695.02744  20015847.1924   20015844.4074
 -20587358.71946 -16021051.28442  22268459.2714   22268457.6344
 -26529829.27748 -20650354.87844  20333819.7474   20333814.9704
 -46942964.26648 -36556111.67046  18779157.6924   18779155.0604
 -38515124.93448 -29988288.64146  18865135.5364   18865132.7044
 04  7 30  1 36 59.9930000  0  8G10G31G13G28G 3G19G27G 8
 -14930889.45347 -11612606.54042  21516369.0524   21516368.2124
  -3811799.49247  -2941938.94842  22147650.7324   22147650.1034
 -48234637.38748 -37563584.26045  19558532.2084   19558529.5174
 -23371246.44148 -18185176.36244  19993506.5284   19993503.5834
 -20558632.38346 -15998667.12542  22273925.2084   22273924.2394
 -26569389.25449 -20681180.82344  20326291.5054   20326287.1694
 -47001483.27048 -36601710.90246  18768021.8884   18768019.1894
 -38607520.88348 -30060285.47046  18847553.0994   18847550.8494
 04  7 30  1 37 29.9930000  0  8G10G31G13G28G 3G19G27G 8
 -14973641.38347 -11645919.73642  21508234.3804   21508232.8024
  -3981123.70747  -3073879.69542  22115428.9114   22115428.8684
 -48207701.28949 -37542595.12645  19563657.8174   19563655.0324
 -23488340.81648 -18276418.68044  19971224.2004   19971221.4314
 -20529544.48046 -15976001.30242  22279461.1534   22279459.3964
 -26608387.39148 -20711568.97344  20318870.6614   20318865.6494
 -47059808.75848 -36647159.32546  18756922.8964   18756920.4504
 -38699719.52749 -30132128.56146  18830008.5214   18830005.8024
 04  7 30  1 37 59.9930000  0  8G10G31G13G28G 3G19G27G 8
 -15015861.33647 -11678818.40342  21500200.1854   21500198.8174
  -4150448.69947  -3205821.04442  22083206.3414   22083206.6774
 -48180373.85549 -37521301.05445  19568858.3574   19568855.2204
 -23605127.30548 -18367421.09744  19949000.3334   19948997.4074
 -20500096.53146 -15953054.84342  22285064.4664   22285063.0364
 -26646823.30948 -20741519.04244  20311556.4824   20311552.1034
 -47117939.01649 -36692455.63046  18745861.1074   18745858.4854
 -38791718.86749 -30203816.34646  18812501.3024   18812498.9424
 04  7 30  1 38 29.9930000  0  8G10G31G13G28G 3G19G27G 8
 -15057541.60247 -11711296.56143  21492268.8884   21492267.2284
  -4319762.76247  -3337753.90042  22050987.9744   22050987.2824
 -48152647.84049 -37499696.39845  19574133.8964   19574131.5364
 -23721596.55948 -18458176.31444  19926837.0524   19926834.2474
 -20470282.24646 -15929822.97942  22290738.4034   22290736.8494
 -26684688.32448 -20771024.24744  20304350.7554   20304346.1344
 -47175864.12548 -36737592.08246  18734838.2474   18734835.5954
 -38883509.02049 -30275341.13746  18795034.4034   18795031.7394
 04  7 30  1 38 59.9930000  0  8G10G31G13G28G 3G19G27G 8
 -15098680.70347 -11743353.01542  21484439.6384   21484438.8174
  -4489060.87547  -3469674.34342  22018770.4424   22018770.5244
 -48124522.82849 -37477780.83145  19579486.3334   19579483.5094
 -23837745.86748 -18548682.22944  19904734.5754   19904731.8534
 -20440101.78546 -15906305.79242  22296481.5834   22296480.1034
 -26721980.35948 -20800082.96944  20297254.2244   20297250.0484
 -47233581.27349 -36782566.49046  18723855.0994   18723852.4744
 -38975087.44949 -30346700.94646  18777607.8494   18777605.0954
 04  7 30  1 39 29.9930000  0  8G10G31G13G28G 3G19G27G 8
 -15139282.47348 -11774990.77943  21476713.4974   21476712.5714
  -4658342.77746  -3601582.16142  21986556.1924   21986557.1104
 -48096003.03549 -37455557.65345  19584913.6304   19584910.6814
 -23953577.25848 -18638940.39644  19882692.5834   19882689.3964
 -20409560.19946 -15882507.17042  22302293.5364   22302291.9504
 -26758702.28948 -20828697.43444  20290266.5994   20290261.7634
 -47291091.78149 -36827379.87546  18712910.9274   18712908.6144
 -39066455.29749 -30417896.65946  18760220.8414   18760218.3574
 04  7 30  1 39 59.9930000  0  8G10G31G13G28G 3G19G27G 8
 -15179349.42248 -11806211.77942  21469089.4114   21469088.2244
  -4827607.25846  -3733476.39542  21954346.5134   21954347.4584
 -48067091.80949 -37433029.45045  19590415.2244   19590412.4744
 -24069091.98448 -18728951.83045  19860710.8254   19860707.8064
 -20378661.44946 -15858430.26642  22308173.2164   22308171.5754
 -26794855.79348 -20856868.99644  20283386.8414   20283382.5954
 -47348396.59849 -36872032.97846  18702006.2474   18702003.6614
 -39157613.80549 -30488929.26246  18742874.1534   18742871.3764
 04  7 30  1 40 29.9930000  0  8G10G31G13G28G 3G19G27G 8
 -15218887.45747 -11837020.64342  21461566.0214   21461564.0874
  -4996856.30546  -3865358.65042  21922139.5284   21922140.3334
 -48037795.67648 -37410201.33945  19595989.8574   19595987.3844
 -24184294.19948 -18818719.74844  19838788.5914   19838785.6964
 -20347412.78046 -15834080.58342  22314119.9584   22314118.5874
 -26830445.91448 -20884601.56544  20276613.9824   20276610.0094
 -47405499.24649 -36916528.55246  18691140.0994   18691137.7324
 -39248566.52349 -30559801.50046  18725566.2084   18725564.0714
 04  7 30  1 40 59.9930000  0  8G10G31G13G28G 3G19G27G 8
 -15257892.81247 -11867414.46042  21454143.2714   21454141.5174
  -5166081.96146  -3997222.58842  21889936.9274   21889936.7164
 -48008111.25449 -37387070.64145  19601638.3494   19601635.8064
 -24299178.68448 -18908240.07345  19816926.2784   19816923.5484
 -20315811.43046 -15809456.23942  22320133.0284   22320131.4544
 -26865467.91848 -20911891.42245  20269949.4894   20269945.3574
 -47462393.87149 -36960862.02946  18680313.5364   18680311.1614
 -39339307.96949 -30630509.11146  18708298.7634   18708296.1534
 04  7 30  1 41 29.9930000  0  8G10G31G13G28G 3G19G27G 8
 -15296366.02747 -11897393.58642  21446821.7864   21446820.4424
  -5335280.80546  -4129065.63442  21857739.5444   21857739.2674
 -47978039.69948 -37363638.29845  19607361.0604   19607358.1104
 -24413744.25848 -18997511.90645  19795125.5834   19795122.8994
 -20283859.39845 -15784558.60342  22326213.7944   22326212.3684
 -26899921.62948 -20938738.46044  20263393.2084   20263389.1104
 -47519078.94549 -37005032.21446  18669526.5834   18669524.0484
 -39429836.23049 -30701050.59546  18691071.9424   18691069.0834
 04  7 30  1 41 59.9930000  0  8G10G31G13G28G 3G19G27G 8
 -15334303.49647 -11926955.26242  21439603.0444   21439601.5364
  -5504445.27046  -4260881.96741  21825547.8254   21825548.4894
 -47947578.03148 -37339901.96445  19613157.7784   19613155.1574
 -24527985.71548 -19086531.17945  19773386.4274   19773383.0364
 -20251554.35245 -15759385.83242  22332360.7944   22332359.2634
 -26933802.71948 -20965139.31644  20256946.2714   20256941.1344
 -47575548.77349 -37049034.68246  18658780.6924   18658778.1854
 -39520145.96149 -30771421.80046  18673886.2714   18673883.6894
 04  7 30  1 42 29.9930000  0  8G10G31G13G28G 3G19G27G 8
 -15371716.71948 -11956108.46142  21432483.0134   21432481.6534
  -5673582.95746  -4392677.43142  21793362.8644   21793362.3924
 -47916738.28148 -37315871.01044  19619026.0674   19619023.6814
 -24641912.87549 -19175305.55545  19751706.4584   19751703.6384
 -20218909.02745 -15733947.94342  22338573.0674   22338571.4784
 -26967121.85548 -20991102.26644  20250605.5444   20250601.0284
 -47631812.66449 -37092876.66546  18648074.2474   18648071.2744
 -39610246.33249 -30841629.86746  18656740.9194   18656738.5674
 04  7 30  1 42 59.9930000  0  8G10G31G13G28G 3G19G27G 8
 -15408605.16447 -11984852.69942  21425463.4974   21425461.9314
  -5842689.07846  -4524448.26442  21761182.7634   21761182.6894
 -47885520.69148 -37291545.66445  19624966.8414   19624964.5404
 -24755523.74649 -19263833.46145  19730086.9424   19730084.1694
 -20185924.14145 -15708245.42442  22344850.6534   22344848.4784
 -26999877.67648 -21016626.27644  20244372.3414   20244368.0364
 -47687868.00449 -37136556.14646  18637407.1074   18637404.5794
 -39700135.10949 -30911673.06146  18639635.6304   18639632.8144
 04  7 30  1 43 29.9930000  0  8G10G31G13G28G 3G19G27G 8
 -15444962.03548 -12013182.74642  21418545.1534   21418543.5644
  -6011752.79747  -4656186.03742  21729010.9824   21729010.7354
 -47853918.71948 -37266920.78144  19630980.8494   19630978.2824
 -24868809.74249 -19352108.23145  19708529.5444   19708526.4744
 -20152593.86745 -15682273.91242  22351192.0054   22351190.8254
 -27032062.28548 -21041705.18544  20238247.8804   20238243.2284
 -47743705.78949 -37180066.11046  18626781.5754   18626779.2324
 -39789802.81249 -30981543.97946  18622572.6534   18622570.1464
 04  7 30  1 43 59.9930000  0  8G10G31G13G28G 3G19G27G 8
 -15480801.13347 -12041109.37342  21411725.2474   21411723.8884
  -6180783.70347  -4787898.27842  21696844.2324   21696845.3604
 -47821946.27348 -37242007.21645  19637064.9354   19637062.2944
 -24981783.00849 -19440139.30145  19687031.0284   19687028.0994
 -20118933.19945 -15656044.79642  22357597.5134   22357596.9154
 -27063688.93448 -21066349.31444  20232229.4034   20232224.9624
 -47799337.33649 -37223415.36047  18616195.3254   18616192.7324
 -39879261.48849 -31051252.02846  18605549.0914   18605546.1814
 04  7 30  1 44 29.9930000  0  8G10G31G13G28G 3G19G27G 8
 -15516112.87147 -12068625.02542  21405005.7394   21405004.0404
  -6349768.21147  -4919574.33842  21664688.0994   21664687.7004
 -47789595.01248 -37216798.48044  19643221.1384   19643218.5014
 -25094432.53149 -19527918.11845  19665594.6774   19665591.9034
 -20084933.81645 -15629551.80342  22364068.0364   22364066.6814
 -27094747.19948 -21090550.54744  20226319.2474   20226314.9034
 -47854751.09449 -37266594.91046  18605650.0284   18605647.5994
 -39968499.05549 -31120787.77446  18588567.5214   18588564.7324
 04  7 30  1 44 59.9930000  0  8G10G31G13G28G 3G19G27G 8
 -15550905.03947 -12095735.81842  21398384.3254   21398383.2634
  -6518709.71547  -5051216.88842  21632539.9584   21632539.2824
 -47756873.01648 -37191300.84944  19649447.8024   19649445.3144
 -25206764.22349 -19615449.26445  19644218.6464   19644215.6774
 -20050604.78545 -15602801.97142  22370600.3174   22370598.5284
 -27125244.01248 -21114314.30444  20220515.9664   20220511.3764
 -47909952.51249 -37309608.99646  18595145.8174   18595143.5014
 -40057521.46149 -31190155.87546  18571627.0674   18571624.5874
 04  7 30  1 45 29.9930000  0  8G10G31G13G28G 3G19G27G 8
 -15585177.00047 -12122441.26342  21391863.1534   21391861.4394
  -6687603.41447  -5182822.18142  21600400.5604   21600399.9194
 -47723780.16848 -37165514.23445  19655745.4354   19655742.8174
 -25318775.76249 -19702730.95245  19622903.2164   19622900.5404
 -20015946.45744 -15575795.51442  22377195.5604   22377193.8724
 -27155177.82048 -21137639.33444  20214819.4194   20214814.9894
 -47964938.47749 -37352455.19446  18584682.2944   18584680.0404
 -40146325.28949 -31259353.64646  18554728.2634   18554725.7864
 04  7 30  1 45 59.9930000  0  9G10G31G13G29G28G 3G19G27G 8
 -15618932.50447 -12148744.29942  21385439.6304   21385438.5834
  -6856448.87546  -5314389.91642  21568269.3254   21568270.0284
 -47690320.70348 -37139441.95744  19662112.2394   19662109.9544
   -235948.69955   -158030.98751  22582956.8804   22582954.8994
 -25430469.14849 -19789764.73645  19601649.0604   19601645.8644
 -19980963.97744 -15548536.44642  22383852.5674   22383850.9824
 -27184551.57848 -21160527.98444  20209230.0914   20209225.4314
 -48019710.55149 -37395134.74146  18574259.6304   18574257.1774
 -40234912.63349 -31328382.74446  18537870.9974   18537868.0834
 04  7 30  1 46 29.9930000  0  9G10G31G13G29G28G 3G19G27G 8
 -15652184.59047 -12174655.05242  21379112.1074   21379110.4974
  -7025254.96147  -5445926.96642  21536147.3724   21536147.4354
 -47656508.12948 -37113094.52944  19668546.7554   19668544.1184
   -389297.98046   -277523.83942  22553775.1464   22553773.4704
 -25541855.68049 -19876559.39045  19580452.8804   19580449.6654
 -19945671.40644 -15521035.74941  22390568.4664   22390567.1304
 -27213377.68448 -21182989.86644  20203744.3494   20203739.7714
 -48074279.60249 -37437656.06846  18563875.4584   18563872.9114
 -40323293.82049 -31397251.17146  18521052.3724   18521049.8024
 04  7 30  1 46 59.9930000  0  9G10G31G13G29G28G 3G19G27G 8
 -15684926.51247 -12200168.25042  21372881.6854   21372879.7204
  -7194010.49647  -5577424.63342  21504034.0604   21504033.6104
 -47622335.91048 -37086466.85644  19675049.6774   19675046.8534
   -542549.06646   -396940.19042  22524612.8334   22524610.7784
 -25652926.99649 -19963108.43245  19559316.7944   19559313.8414
 -19910062.61745 -15493288.64141  22397345.2084   22397343.5324
 -27241648.45348 -21205019.04344  20198364.4744   20198360.1144
 -48128636.08249 -37480011.76346  18553531.9584   18553529.0174
 -40411460.13749 -31465952.19646  18504275.0134   18504272.5404
 04  7 30  1 47 29.9930000  0  9G10G31G13G29G28G 3G19G27G 8
 -15717160.47347 -12225285.63943  21366747.5364   21366746.2284
  -7362713.49247  -5708881.36342  21471930.7324   21471930.6774
 -47587806.63348 -37059560.95844  19681620.4114   19681617.6384
   -695700.41446   -516278.95542  22495470.3964   22495467.0174
 -25763683.69549 -20049412.31145  19538240.0834   19538237.2044
 -19874141.07445 -15465297.87041  22404180.2554   22404178.9584
 -27269365.37148 -21226616.63244  20193090.3804   20193085.8604
 -48182780.07849 -37522201.88546  18543228.4744   18543226.3104
 -40499410.77749 -31534485.14946  18487538.5364   18487535.8604
 04  7 30  1 47 59.9930000  0  9G10G31G13G29G28G 3G19G27G 8
 -15748888.12547 -12250008.52742  21360710.9274   21360708.6854
  -7531361.10547  -5840294.92242  21439837.8414   21439837.8534
 -47552922.89548 -37032378.85744  19688258.5524   19688256.0444
   -848749.94146   -635538.20342  22466344.5754   22466342.2204
 -25874125.45349 -20135470.79145  19517224.0444   19517220.7124
 -19837909.67245 -15437065.63442  22411074.9974   22411073.3994
 -27296529.14847 -21247783.20844  20187921.5054   20187917.3804
 -48236710.84449 -37564225.85746  18532966.0604   18532963.2944
 -40587145.52049 -31602849.88046  18470843.0214   18470840.5444
 04  7 30  1 48 29.9930000  0  8G10G31G13G29G28G19G27G 8
 -15780106.77747 -12274334.79842  21354769.3804   21354768.0564
  -7699946.25447  -5971659.83042  21407757.0834   21407756.8574
 -47517682.23848 -37004918.62944  19694964.2554   19694961.8684
  -1001690.91446   -754712.95942  22437240.3494   22437238.4034
 -25984247.86349 -20221280.41845  19496268.0284   19496265.0604
 -27323136.28547 -21268516.03944  20182858.2084   20182853.7474
 -48290423.10948 -37606079.57546  18522744.7394   18522742.2744
 -40674658.87549 -31671042.10146  18454189.9504   18454187.3104
 04  7 30  1 48 59.9930000  0  8G10G31G13G29G28G19G27G 8
 -15810815.22347 -12298263.49642  21348925.9274   21348924.1224
  -7868463.37947  -6102971.72942  21375689.5994   21375688.6074
 -47482083.70748 -36977179.54644  19701738.8574   19701736.4824
  -1154518.20346   -873799.09142  22408158.2944   22408156.6034
 -26094047.99649 -20306838.93645  19475373.6924   19475371.0954
 -27349184.73047 -21288813.53644  20177901.7084   20177896.7434
 -48343913.03149 -37647760.03346  18512565.9114   18512563.1464
 -40761947.32849 -31739059.06446  18437579.5054   18437576.6534
 04  7 30  1 49 29.9920000  0  8G10G31G13G29G28G19G27G 8
 -15841005.22748 -12321788.18542  21343181.0944   21343179.7894
  -8036895.11347  -6234217.11042  21343639.0314   21343637.0354
 -47446121.96948 -36949157.44544  19708582.3674   19708579.7544
  -1307215.84046   -992784.27542  22379100.7114   22379099.1254
 -26203513.05949 -20392136.32745  19454543.1884   19454540.3634
 -27374665.50847 -21308668.68144  20173052.5554   20173048.2894
 -48397169.27748 -37689258.39746  18502431.5244   18502428.9654
 -40848998.73049 -31806891.32146  18421013.8134   18421011.6804
 04  7 30  1 49 59.9920000  0  8G10G31G13G29G28G19G27G 8
 -15870676.44147 -12344908.65343  21337534.7114   21337533.2114
  -8205246.28147  -6365399.68842  21311601.0004   21311600.9574
 -47409792.62548 -36920848.90744  19715495.3994   19715492.8324
  -1459787.88747  -1111671.51042  22350068.2894   22350065.0124
 -26312646.48849 -20477175.33545  19433775.8054   19433772.8634
 -27399577.44547 -21328080.57244  20168311.4924   20168307.2624
 -48450190.75848 -37730573.84846  18492341.9694   18492339.1724
 -40935814.22749 -31874539.75446  18404493.7114   18404491.0984
 04  7 30  1 50 29.9920000  0  8G10G31G13G29G28G19G27G 8
 -15899832.81647 -12367627.95642  21331985.9384   21331984.7974
  -8373511.66847  -6496515.45642  21279581.3444   21279580.6024
 -47373102.15648 -36892258.95644  19722477.1024   19722474.6374
  -1612230.24247  -1230457.76842  22321059.2034   22321055.9694
 -26421447.70749 -20561955.46745  19413071.6334   19413068.5664
 -27423923.81647 -21347051.79444  20163678.5704   20163674.3284
 -48502977.96548 -37771706.74046  18482296.8994   18482294.4454
 -41022392.78149 -31942003.55146  18388018.0314   18388015.7704
 04  7 30  1 50 59.9920000  0  8G10G31G13G29G28G19G27G 8
 -15928484.28947 -12389953.77542  21326534.2504   21326532.5204
  -8541696.37547  -6627568.32942  21247577.0394   21247576.2974
 -47336060.83248 -36863395.61144  19729526.1334   19729523.7854
  -1764548.88346  -1349147.54942  22292072.4144   22292070.9924
 -26529924.59849 -20646482.87545  19392429.2744   19392426.0984
 -27447713.60247 -21365589.28044  20159152.0634   20159147.6494
 -48555538.14548 -37812662.72746  18472295.1174   18472292.5744
 -41108741.75049 -32009288.46146  18371586.7274   18371584.2504
 04  7 30  1 51 29.9920000  0  8G10G31G13G29G28G19G27G 8
 -15956636.32447 -12411890.45642  21321176.8054   21321175.6954
  -8709801.44547  -6758559.13642  21215587.3444   21215586.3364
 -47298674.43048 -36834263.37344  19736640.8674   19736638.0044
  -1916744.98846  -1467741.94942  22263110.6334   22263109.2664
 -26638080.77049 -20730760.37345  19371847.5944   19371844.4184
 -27470951.51647 -21383696.73844  20154730.1094   20154725.7424
 -48607874.14148 -37853444.03246  18462335.8134   18462332.9104
 -41194863.99649 -32076396.70146  18355198.1804   18355195.6844
 04  7 30  1 51 59.9920000  0  8G10G31G13G29G28G19G27G 8
 -15984280.53147 -12433431.43342  21315916.3594   21315915.0704
  -8877814.05547  -6889477.89642  21183615.4144   21183614.7464
 -47260935.21548 -36804856.24644  19743822.1494   19743819.6454
  -2068806.34447  -1586231.21942  22234175.2034   22234172.2934
 -26745906.31249 -20814780.24245  19351329.2894   19351326.1064
 -27493628.46548 -21401367.09444  20150414.3834   20150410.1334
 -48659975.08249 -37894042.16946  18452421.3914   18452418.7194
 -41280749.06249 -32143320.12646  18338854.8054   18338852.1174
 04  7 30  1 52 29.9920000  0  8G10G31G13G29G28G19G27G 8
 -16011434.81246 -12454590.64242  21310749.4064   21310747.7114
  -9045747.29346  -7020334.84542  21151658.5084   21151658.1414
 -47222860.98848 -36775188.03844  19751067.5634   19751065.3364
  -2220746.80947  -1704626.42842  22205262.3834   22205259.5164
 -26853417.01649 -20898554.77545  19330870.5084   19330867.3634
 -27515761.42248 -21418613.54944  20146202.9694   20146198.5314
 -48711856.14849 -37934468.98446  18442548.8444   18442546.1684
 -41366411.50049 -32210070.06946  18322553.7344   18322551.1604
 04  7 30  1 52 59.9920000  0  8G10G31G13G29G28G19G27G 8
 -16038092.35247 -12475362.76942  21305677.2274   21305675.1494
  -9213589.99647  -7151121.24142  21119719.7814   21119718.6334
 -47184445.57448 -36745253.98544  19758377.7894   19758374.9884
  -2372555.66047  -1822919.02242  22176373.5244   22176371.5474
 -26960604.57049 -20982077.50445  19310473.5004   19310470.6764
 -27537342.80148 -21435430.21344  20142096.1024   20142091.5944
 -48763507.89149 -37974717.09446  18432719.7744   18432717.2074
 -41451842.36749 -32276639.57646  18306296.9304   18306294.1954
 04  7 30  1 53 29.9920000  0  8G10G31G13G29G28G19G27G 8
 -16064253.96547 -12495748.45542  21300697.6954   21300696.7424
  -9381338.42247  -7281834.17042  21087798.3594   21087796.9384
 -47145690.13748 -36715054.99044  19765752.6094   19765749.9304
  -2524229.46946  -1941106.32242  22147510.3524   22147508.5434
 -27067467.78149 -21065347.49845  19290137.9304   19290134.9494
 -27558372.63348 -21451817.12144  20138094.1174   20138089.9184
 -48814928.66049 -38014785.23946  18422934.8054   18422932.1524
 -41537039.93749 -32343027.28346  18290083.8594   18290081.6914
 04  7 30  1 53 59.9920000  0  8G10G31G13G29G28G19G27G 8
 -16089924.89146 -12515751.78542  21295813.4224   21295811.4454
  -9548993.06247  -7412474.04442  21055893.7424   21055893.1334
 -47106600.28548 -36684595.39344  19773190.9844   19773188.6524
  -2675769.53947  -2059189.42442  22118673.6804   22118670.8564
 -27174009.85249 -21148367.25345  19269863.6724   19269860.7544
 -27578855.62948 -21467777.88344  20134196.1804   20134192.1804
 -48866120.94949 -38054675.33046  18413193.2424   18413190.5274
 -41622006.42249 -32409234.93046  18273915.6254   18273912.8134
 04  7 30  1 54 29.9920000  0  8G10G31G13G29G28G19G27G 8
 -16115103.91447 -12535371.82742  21291022.0944   21291020.4104
  -9716548.22346  -7543036.36042  21024008.5314   21024008.5634
 -47067175.21148 -36653874.59044  19780693.6724   19780691.1414
  -2827170.48047  -2177164.21642  22089863.1174   22089860.5554
 -27280227.85549 -21231134.49945  19249651.1884   19249647.8564
 -27598789.81647 -21483311.00944  20130403.0314   20130398.5704
 -48917080.80948 -38094384.31846  18403495.6414   18403493.3914
 -41706738.50049 -32475259.90946  18257791.6804   18257788.8714
 04  7 30  1 54 59.9920000  0  8G10G31G13G29G28G19G27G 8
 -16139791.12946 -12554608.61942  21286324.0944   21286322.8634
  -9883998.93446  -7673517.31442  20992144.3364   20992143.4224
 -47027414.82448 -36622892.52144  19788259.4844   19788257.1134
  -2978428.24246  -2295027.30942  22061079.3914   22061076.3634
 -27386119.78149 -21313647.66445  19229500.5864   19229497.3094
 -27618174.15647 -21498415.70644  20126714.3364   20126710.0204
 -48967805.41449 -38133909.99646  18393843.1094   18393840.6844
 -41791232.58249 -32541099.46146  18241713.0004   18241710.1764
 04  7 30  1 55 29.9920000  0  8G10G31G13G29G28G19G27G 8
 -16163992.78546 -12573467.08542  21281718.6564   21281717.1684
 -10051346.78946  -7803918.10142  20960299.0394   20960297.9414
 -46987325.89148 -36591654.42944  19795888.2194   19795885.9454
  -3129544.61746  -2412780.30742  22032322.7974   22032320.7584
 -27491689.98049 -21395910.11145  19209411.0944   19209407.8324
 -27637014.00047 -21513096.10444  20123128.9844   20123124.5314
 -49018298.25049 -38173255.06446  18384234.6564   18384232.3094
 -41875492.53549 -32606756.55946  18225678.7274   18225676.1254
 04  7 30  1 55 59.9920000  0  8G10G31G13G29G28G19G27G 8
 -16187711.00847 -12591948.81642  21277205.7814   21277203.5984
 -10218589.09446  -7934236.67842  20928473.0394   20928472.8524
 -46946910.71548 -36560162.11744  19803579.0704   19803576.6724
  -3280517.51646  -2530421.52742  22003593.3054   22003591.6094
 -27596938.56649 -21477921.95445  19189382.8204   19189379.6994
 -27655310.83248 -21527353.38544  20119647.5634   20119643.0314
 -49068558.43449 -38212418.85246  18374670.6334   18374667.9844
 -41959517.75849 -32672230.75246  18209689.0474   18209686.7704
 04  7 30  1 56 29.9920000  0  8G10G31G13G29G28G19G27G 8
 -16210936.94546 -12610046.99642  21272785.0244   21272783.8914
 -10385712.37147  -8064462.47442  20896671.8054   20896670.4264
 -46906160.69148 -36528408.89144  19811333.4774   19811331.2114
  -3431334.06246  -2647940.85042  21974894.1414   21974891.6604
 -27701854.88749 -21559674.90145  19169417.8834   19169414.5944
 -27673055.24248 -21541180.19944  20116270.8284   20116266.1174
 -49118574.60249 -38251392.49846  18365153.1174   18365150.2704
 -42043296.81249 -32737513.11746  18193746.4454   18193743.7854
 04  7 30  1 56 59.9920000  0  8G10G31G13G29G28G19G27G 8
 -16233683.28947 -12627771.45042  21268456.7814   21268455.8134
 -10552724.48447  -8194601.63842  20864890.0084   20864888.7154
 -46865089.10248 -36496405.09544  19819149.2424   19819147.1454
  -3582002.56646  -2765344.74142  21946222.6494   21946220.4924
 -27806449.61349 -21641177.25745  19149514.1254   19149511.0704
 -27690258.72748 -21554585.53344  20112996.7894   20112992.8594
 -49168356.48449 -38290183.57746  18355679.6804   18355677.1524
 -42126839.16449 -32802611.04646  18177848.7744   18177846.3164
 04  7 30  1 57 29.9920000  0  8G10G31G13G29G28G19G27G 8
 -16255942.23447 -12645116.09042  21264221.2424   21264219.5164
 -10719612.85247  -8324644.39642  20833131.7664   20833130.7854
 -46823688.02748 -36464144.55944  19827027.8284   19827025.5004
  -3732511.00846  -2882624.09742  21917581.6884   21917579.9344
 -27910713.06249 -21722421.47045  19129673.6024   19129670.5244
 -27706912.89148 -21567562.79744  20109827.8134   20109823.6524
 -49217893.46149 -38328783.81846  18346252.9304   18346250.7504
 -42210134.14549 -32867516.21147  18161998.4614   18161995.9104
 04  7 30  1 57 59.9920000  0  8G10G31G13G29G28G19G27G 8
 -16277723.64847 -12662088.63542  21260076.6094   21260074.4574
 -10886382.55547  -8454594.70342  20801397.1564   20801395.6494
 -46781967.74648 -36431635.28044  19834966.9694   19834964.6064
  -3882864.98847  -2999783.00142  21888971.6494   21888968.1954
 -28014653.15249 -21803413.70845  19109894.6884   19109891.3444
 -27723027.02748 -21580119.27144  20106761.3524   20106757.1134
 -49267192.72349 -38367198.81646  18336871.8524   18336869.3054
 -42293189.22749 -32932234.45146  18146193.5704   18146191.4534
 04  7 30  1 58 29.9920000  0  8G10G31G13G29G28G19G27G 8
 -16299026.64547 -12678688.41742  21256022.7664   21256020.6914
 -11053027.81247  -8584448.01642  20769685.2894   20769683.8014
 -46739927.68448 -36398876.83944  19842966.9064   19842964.4264
  -4033059.19946  -3116817.35542  21860389.4384   21860387.3834
 -28118267.01249 -21884151.75545  19090177.3754   19090174.0864
 -27738599.21147 -21592253.44644  20103798.1414   20103793.9024
 -49316250.34049 -38405425.52946  18327536.4384   18327534.0044
 -42376000.37149 -32996762.60647  18130435.1644   18130432.4304
 04  7 30  1 58 59.9920000  0  8G10G31G13G29G28G19G27G 8
 -16319854.19146 -12694917.65942  21252059.1494   21252058.1334
 -11219546.78547  -8714202.90943  20737997.8594   20737996.4844
 -46697571.08648 -36365871.73144  19851026.9614   19851024.4734
  -4183092.45746  -3233726.40842  21831840.0634   21831837.1644
 -28221555.66449 -21964636.38545  19070521.7664   19070518.6334
 -27753631.86748 -21603967.20344  20100937.6804   20100933.4064
 -49365066.48048 -38443464.08146  18318247.0084   18318244.3404
 -42458567.73849 -33061100.80846  18114723.1254   18114720.6724
 04  7 30  1 59 29.9920000  0  8G10G31G13G29G28G19G27G 8
 -16340204.68447 -12710775.21442  21248186.4774   21248185.7114
 -11385932.89547  -8843854.31342  20706335.7974   20706334.0124
 -46654896.27348 -36332618.66644  19859147.4694   19859145.3164
  -4332958.49247  -3350505.05542  21803321.9774   21803318.3754
 -28324515.61749 -22044864.89146  19050929.4064   19050926.0784
 -27768122.64847 -21615258.73944  20098180.1024   20098175.9224
 -49413636.40249 -38481310.76646  18309004.4774   18309001.7154
 -42540886.48849 -33125245.28546  18099058.4304   18099055.8594
 04  7 30  1 59 59.9920000  0  8G10G31G13G29G28G19G27G 8
 -16360084.22747 -12726265.80542  21244403.3054   21244402.7744
 -11552187.34847  -8973403.13542  20674697.7974   20674696.5634
 -46611909.64148 -36299122.62544  19867327.8594   19867325.3564
  -4482659.26246  -3467154.93542  21774833.9144   21774831.0904
 -28427150.82049 -22124840.34445  19031398.4454   19031395.4534
 -27782076.79347 -21626132.10544  20095525.3994   20095520.1644
 -49461963.51249 -38518968.25646  18299807.9534   18299805.4654
 -42622960.34449 -33189198.92546  18083440.4924   18083437.6724
 04  7 30  2  0 29.9920000  0  8G10G31G13G29G28G19G27G 8
 -16379492.57446 -12741389.22742  21240710.6644   21240709.0124
 -11718305.16847  -9102845.45443  20643086.8834   20643085.3094
 -46568611.37148 -36265383.76144  19875567.4224   19875564.5084
  -4632190.11347  -3583672.48742  21746380.0634   21746376.3954
 -28529459.35949 -22204561.26245  19011929.9454   19011926.6644
 -27795493.37548 -21636586.56744  20092971.7194   20092967.1134
 -49510044.73449 -38556434.13846  18290658.6644   18290656.1414
 -42704785.49249 -33252958.77846  18067869.6174   18067867.0084
 04  7 30  2  0 59.9920000  0  8G10G31G13G29G28G19G27G 8
 -16398434.36347 -12756149.07242  21237106.1954   21237104.8634
 -11884285.80147  -9232180.92143  20611501.7194   20611500.4534
 -46525006.02748 -36231405.61044  19883865.1564   19883862.7704
  -4781551.10246  -3700057.65742  21717955.0704   21717954.4264
 -28631443.36749 -22284029.28745  18992522.9694   18992520.1604
 -27808376.09448 -21646625.07644  20090520.2424   20090515.8164
 -49557881.37549 -38593709.44946  18281555.3444   18281553.0554
 -42786363.71949 -33316526.21046  18052345.5704   18052343.3134
 04  7 30  2  1 29.9920000  0  8G10G31G13G29G28G19G27G 8
 -16416902.20346 -12770539.61242  21233591.6174   21233590.0704
 -12050116.97347  -9361399.88443  20579945.0164   20579943.7384
 -46481086.37548 -36197182.55243  19892222.9534   19892220.7934
  -4930730.56246  -3816301.34042  21689567.7584   21689566.3954
 -28733093.69149 -22363237.30645  18973179.4224   18973176.4574
 -27820716.91848 -21656241.31244  20088171.7814   20088167.2894
 -49605463.16048 -38630786.16046  18272500.8284   18272498.5084
 -42867684.58249 -33379893.10746  18036870.5084   18036868.2384
 04  7 30  2  1 59.9920000  0  8G10G31G13G29G28G19G27G 8
 -16434905.50046 -12784568.16842  21230165.9224   21230164.2074
 -12215802.94947  -9490505.73643  20548416.0164   20548414.6454
 -46436861.87148 -36162721.91944  19900638.6094   19900636.4304
  -5079732.88346  -3932407.04842  21661213.0084   21661212.4734
 -28834417.63749 -22442191.00045  18953898.3444   18953894.8134
 -27832524.30948 -21665441.88144  20085924.8284   20085920.1954
 -49652796.46949 -38667669.25746  18263493.9614   18263491.4184
 -42948754.55949 -33443064.50347  18021443.5634   18021441.2744
 04  7 30  2  2 29.9920000  0  8G10G31G13G29G28G19G27G 8
 -16452441.49246 -12798232.61742  21226828.7424   21226827.4534
 -12381335.93447  -9619492.37743  20516915.7424   20516914.3634
 -46392329.84448 -36128021.68844  19909112.9774   19909110.3444
  -5228551.07447  -4048369.24242  21632895.9224   21632893.1914
 -28935410.21149 -22520886.48945  18934679.9304   18934676.7814
 -27843794.91848 -21674224.17244  20083780.1254   20083775.7854
 -49699875.29749 -38704354.05746  18254535.0634   18254532.2584
 -43029567.34449 -33506035.49646  18006065.5634   18006063.0744
 04  7 30  2  2 59.9920000  0  8G10G31G13G29G28G19G27G 8
 -16469513.92245 -12811535.85842  21223579.9614   21223578.8284
 -12546714.74247  -9748358.86343  20485445.2894   20485444.5244
 -46347494.42248 -36093085.03844  19917644.4144   19917642.4694
  -5377184.52046  -4164187.49542  21604610.2274   21604608.9184
 -29036073.31249 -22599325.22545  18915524.2274   18915521.5594
 -27854531.82448 -21682590.59944  20081737.1174   20081732.3954
 -49746700.62948 -38740841.32546  18245624.3914   18245621.7234
 -43110123.81649 -33568806.76046  17990736.1954   17990733.6174
 04  7 30  2  3 29.9920000  0  8G10G31G13G29G28G19G27G 8
 -16486130.18046 -12824483.60042  21220417.8204   21220416.6914
 -12711941.67247  -9877107.01543  20454003.3674   20454002.0864
 -46302363.36747 -36057918.03843  19926232.8674   19926230.4344
  -5525635.78146  -4279863.73942  21576361.5474   21576359.6724
 -29136412.30149 -22677511.42745  18896430.6644   18896427.2464
 -27864741.56648 -21690546.25044  20079793.7274   20079789.8674
 -49793276.70748 -38777134.37646  18236761.1414   18236758.8244
 -43190428.71949 -33631382.00746  17975454.7034   17975451.9844
 04  7 30  2  3 59.9920000  0  8G10G31G13G29G28G19G27G 8
 -16502296.44546 -12837080.73742  21217341.7974   21217340.4534
 -12877017.72347 -10005737.59543  20422590.6954   20422589.3404
 -46256942.51648 -36022525.20844  19934875.8754   19934874.0244
  -5673906.58647  -4395399.45742  21548145.6494   21548144.6334
 -29236431.02049 -22755448.05745  18877397.3054   18877394.3564
 -27874429.41048 -21698095.23144  20077950.3834   20077946.2384
 -49839606.54749 -38813235.55746  18227944.9454   18227942.4384
 -43270484.66849 -33693763.25747  17960220.5394   17960217.9814
 04  7 30  2  4 29.9910000  0  8G10G31G13G29G28G19G27G 8
 -16518004.23446 -12849320.59242  21214353.1674   21214351.5694
 -13041924.40647 -10134236.20942  20391209.2064   20391208.3194
 -46211225.64548 -35986901.71144  19943575.4254   19943573.9174
  -5821979.37947  -4510780.81642  21519969.5344   21519967.4764
 -29336116.45749 -22833125.00045  18858427.9484   18858424.8004
 -27883586.61748 -21705230.72044  20076208.0894   20076203.5464
 -49885677.46949 -38849134.96146  18219177.8234   18219175.5194
 -43350277.77749 -33755939.69246  17945036.3314   17945033.6794
 04  7 30  2  4 59.9910000  0  8G10G31G13G29G28G19G27G 8
 -16533263.36746 -12861210.84942  21211449.0974   21211447.9094
 -13206676.29746 -10262614.20743  20359857.9414   20359856.7614
 -46165218.45748 -35951052.00743  19952330.7224   19952328.4054
  -5969868.26647  -4626018.82042  21491827.4334   21491824.8554
 -29435481.73049 -22910552.44845  18839519.4644   18839516.0194
 -27892221.50048 -21711959.20144  20074565.1674   20074560.3824
 -49931498.21949 -38884839.45746  18210458.7454   18210456.2494
 -43429819.42249 -33817920.19346  17929900.0814   17929897.5584
 04  7 30  2  5 29.9910000  0  8G10G31G13G29G28G19G27G 8
 -16548072.93046 -12872750.80042  21208630.4174   21208629.4644
 -13371262.59047 -10390863.16643  20328538.5664   20328536.8944
 -46118922.38348 -35914977.18143  19961140.8004   19961138.6284
  -6117563.25847  -4741105.85542  21463721.0424   21463719.7694
 -29534521.03949 -22987725.91445  18820672.3314   18820669.5854
 -27900332.79747 -21718279.70744  20073021.6514   20073017.0344
 -49977063.85949 -38920345.15346  18201787.7454   18201785.2224
 -43509103.18049 -33879699.74447  17914812.9014   17914810.2494
 04  7 30  2  5 59.9910000  0  8G10G31G13G29G28G19G27G 8
 -16562431.08646 -12883939.04342  21205899.0264   21205896.8864
 -13535676.14547 -10518977.54143  20297251.2534   20297250.2264
 -46072335.62147 -35878675.86043  19970006.2534   19970003.5934
  -6265057.92647  -4856036.70442  21435653.6124   21435651.9684
 -29633230.56649 -23064642.39546  18801889.1284   18801885.9054
 -27907918.19548 -21724190.40444  20071577.7764   20071573.7454
 -50022369.32049 -38955648.10746  18193166.4954   18193163.8984
 -43588124.02349 -33941274.42146  17899775.6444   17899772.9644
 04  7 30  2  6 29.9910000  0  8G10G31G13G29G28G19G27G 8
 -16576346.96946 -12894782.54742  21203250.2764   21203248.9804
 -13699920.83247 -10646960.31143  20265996.9874   20265994.7304
 -46025467.38347 -35842155.18643  19978924.9724   19978922.4254
  -6412356.50847  -4970814.76142  21407623.5974   21407622.3354
 -29731617.34049 -23141307.37246  18783166.4724   18783163.3044
 -27914985.75048 -21729697.58644  20070233.2764   20070228.4914
 -50067420.59849 -38990752.99046  18184593.3004   18184590.8274
 -43666887.45349 -34002648.50546  17884787.6984   17884785.0664
 04  7 30  2  6 59.9910000  0  9G10G31G13G29G28G 7G19G27G 8
 -16589819.14846 -12905280.39542  21200687.1594   21200685.2614
 -13863990.36347 -10774806.58443  20234774.7924   20234773.7024
 -45978316.37947 -35805414.19443  19987896.9014   19987894.9764
  -6559453.23847  -5085435.53942  21379631.8624   21379630.2304
 -29829678.02049 -23217718.27246  18764506.4804   18764502.9564
   -243193.31255   -163033.69451  21778990.6834   21778990.9804
 -27921533.42647 -21734799.68044  20068986.8084   20068982.7414
 -50112213.17649 -39025656.30146  18176069.8084   18176067.1364
 -43745389.42249 -34063818.87646  17869848.8554   17869846.4954
 04  7 30  2  7 29.9910000  0  9G10G31G13G29G28G 7G19G27G 8
 -16602861.99646 -12915443.71542  21198204.6674   21198203.7884
 -14027893.54347 -10902523.29443  20203585.7454   20203583.9874
 -45930896.64147 -35768463.79543  19996921.2304   19996918.9174
  -6706357.46547  -5199906.32342  21351678.0504   21351675.0584
 -29927424.50449 -23293884.34145  18745905.6444   18745902.3784
   -401245.35545   -286190.83441  21748913.5734   21748914.6914
 -27927574.83248 -21739507.28244  20067837.6984   20067833.0894
 -50156757.95349 -39060366.52046  18167593.0734   18167590.7654
 -43823640.55949 -34124793.78047  17854958.3234   17854955.7964
 04  7 30  2  7 59.9910000  0  9G10G31G13G29G28G 7G19G27G 8
 -16615475.96546 -12925272.83542  21195804.6054   21195803.2454
 -14191626.00847 -11030106.93243  20172428.3004   20172426.7964
 -45883209.30547 -35731304.86843  20005995.2064   20005993.2574
  -6853065.23047  -5314223.98542  21323759.2454   21323757.5234
 -30024855.41449 -23369804.51145  18727365.1834   18727361.6084
   -559275.86745   -409331.16841  21718840.2534   21718842.1714
 -27933110.03148 -21743820.42644  20066783.9724   20066779.8474
 -50201052.57849 -39094881.81146  18159163.8704   18159161.2964
 -43901638.16449 -34185571.13346  17840115.6984   17840113.3784
 04  7 30  2  8 29.9910000  0  9G10G31G13G29G28G 7G19G27G 8
 -16627665.94147 -12934771.50442  21193484.9564   21193483.2334
 -14355187.04347 -11157557.01143  20141303.9804   20141301.7304
 -45835258.51648 -35693940.66043  20015120.0664   20015118.1244
  -6999576.29347  -5428388.41142  21295879.7614   21295877.1944
 -30121973.13749 -23445480.62646  18708884.1514   18708880.6794
   -717284.94545   -532454.83841  21688772.7304   21688773.7614
 -27938142.69948 -21747741.98444  20065826.5264   20065822.1244
 -50245098.26249 -39129203.12046  18150782.3784   18150779.8664
 -43979383.53949 -34246151.92947  17825321.3704   17825318.7534
 04  7 30  2  8 59.9910000  0  9G10G31G13G29G28G 7G19G27G 8
 -16639431.31647 -12943939.35442  21191246.1594   21191244.7264
 -14518570.90247 -11284869.02043  20110212.1204   20110211.1164
 -45787044.47748 -35656371.32943  20024295.3234   20024293.2964
  -7145885.44147  -5542395.50342  21268038.0974   21268035.8554
 -30218775.13749 -23520910.73146  18690463.5264   18690460.0734
   -875267.29744   -655557.70041  21658709.0194   21658710.2614
 -27942671.60548 -21751271.01544  20064964.6364   20064960.2764
 -50288891.42649 -39163327.66946  18142448.8394   18142446.2734
 -44056873.16049 -34306533.44947  17810575.4954   17810572.6674
 04  7 30  2  9 29.9910000  0  9G10G31G13G29G28G 7G19G27G 8
 -16650770.15247 -12952774.81242  21189088.4254   21189087.4804
 -14681770.48447 -11412037.45043  20079156.8164   20079154.6324
 -45738565.07447 -35618595.21743  20033519.9414   20033518.3554
  -7291986.10947  -5656240.12942  21240235.9174   21240233.7414
 -30315257.46949 -23596091.76345  18672103.4094   18672100.2694
  -1033216.48446   -778634.68641  21628652.6514   21628653.1754
 -27946694.38748 -21754405.65444  20064199.1674   20064194.6014
 -50332426.80549 -39197251.34446  18134164.5264   18134161.8274
 -44134101.65649 -34366711.49646  17795879.3004   17795876.7454
 04  7 30  2  9 59.9910000  0  9G10G31G13G29G28G 7G19G27G 8
 -16661676.20347 -12961273.08442  21187013.4724   21187011.7494
 -14844774.13747 -11539053.18843  20048137.6594   20048136.4954
 -45689813.85548 -35580607.30143  20042797.7304   20042795.2454
  -7437867.06647  -5769913.55842  21212475.2304   21212473.4334
 -30411411.44149 -23671016.90346  18653805.8784   18653802.4954
  -1191121.46145   -901677.19942  21598603.3004   21598604.3824
 -27950203.67648 -21757140.15544  20063531.0894   20063526.8864
 -50375694.84449 -39230966.70446  18125930.5424   18125928.1594
 -44211059.22349 -34426678.42247  17781234.9564   17781232.4014
 04  7 30  2 10 29.9910000  0  9G10G31G13G29G28G 7G19G27G 8
 -16672155.48847 -12969438.79642  21185019.2924   21185018.2764
 -15007582.57047 -11665916.82443  20017156.5974   20017155.1204
 -45640796.75048 -35542412.20543  20052125.6364   20052123.1834
  -7583529.47747  -5883416.71342  21184756.4954   21184754.6124
 -30507240.97749 -23745689.24246  18635570.2614   18635566.9174
  -1348983.28946  -1024686.18642  21568563.5194   21568564.4834
 -27953205.05148 -21759478.90744  20062960.1594   20062955.9994
 -50418698.24649 -39264475.83646  18117747.4014   18117744.6204
 -44287748.40649 -34486436.22346  17766641.5264   17766638.9134
 04  7 30  2 10 59.9910000  0  9G10G31G13G29G28G 7G19G27G 8
 -16682208.82847 -12977272.58742  21183106.2764   21183104.7414
 -15170191.24647 -11792624.80443  19986213.2924   19986211.7534
 -45591514.78948 -35504010.74443  20061503.5424   20061501.1514
  -7728969.07047  -5996746.24042  21157080.1834   21157078.7104
 -30602744.91849 -23820107.88046  18617396.3474   18617392.9994
  -1506798.55545  -1147658.86642  21538532.0264   21538533.0814
 -27955698.62948 -21761421.94844  20062485.8234   20062481.2534
 -50461434.61749 -39297776.91446  18109614.9484   18109612.4374
 -44364167.07849 -34545983.23046  17752099.5894   17752096.9524
 04  7 30  2 11 29.9910000  0  9G10G31G13G29G28G 7G19G27G 8
 -16691842.33647 -12984779.21242  21181272.7374   21181271.4174
 -15332601.04747 -11919177.79643  19955306.9954   19955305.6984
 -45541973.90248 -35465407.49843  20070930.3314   20070928.1594
  -7874187.50047  -6109903.44442  21129447.3394   21129444.0344
 -30697927.03149 -23894275.74146  18599283.7224   18599280.4684
  -1664568.19546  -1270596.04742  21508510.7304   21508510.4094
 -27957689.82848 -21762973.54544  20062106.6364   20062102.3624
 -50503906.67249 -39330872.01846  18101533.0974   18101530.5894
 -44440317.50449 -34605321.21947  17737608.5114   17737605.9334
 04  7 30  2 11 59.9910000  0  9G10G31G13G29G28G 7G19G27G 8
 -16701054.40646 -12991957.50342  21179520.0814   21179518.7304
 -15494804.70348 -12045570.19243  19924441.4094   19924439.3124
 -45492172.19548 -35426601.01843  20080407.1364   20080405.4954
  -8019178.04747  -6222883.02942  21101855.5114   21101853.6834
 -30792783.29749 -23968189.69846  18581233.3394   18581230.0464
  -1822285.97346  -1393492.62242  21478495.8234   21478497.1514
 -27959176.02048 -21764131.60444  20061824.1444   20061819.3984
 -50546109.26249 -39363757.15246  18093501.9254   18093499.5034
 -44516194.58249 -34664446.20646  17723169.5504   17723166.9764
 04  7 30  2 12 29.9910000  0  9G10G31G13G29G28G 7G19G27G 8
 -16709853.21546 -12998813.75142  21177845.1204   21177844.2144
 -15656805.10547 -12171804.18943  19893613.1364   19893611.4954
 -45442118.19548 -35387597.93143  20089933.0344   20089930.5974
  -8163943.90247  -6335687.55642  21074306.9414   21074305.2884
 -30887319.88349 -24041854.55245  18563243.3554   18563240.1444
  -1979955.19146  -1516351.56642  21448493.1834   21448493.8704
 -27960164.75848 -21764902.05744  20061635.9874   20061631.3084
 -50588047.44949 -39396436.25846  18085521.5584   18085518.8704
 -44591803.30549 -34723362.08546  17708781.5114   17708779.1794
 04  7 30  2 12 59.9910000  0  9G10G31G13G29G28G 7G19G27G 8
 -16718236.32447 -13005346.09042  21176250.1984   21176248.9094
 -15818594.97747 -12297874.14443  19862825.7144   19862823.8784
 -45391809.31648 -35348396.25443  20099505.8704   20099504.2764
  -8308478.00847  -6448311.50242  21046803.5584   21046801.5544
 -30981532.39149 -24115266.87446  18545315.4954   18545312.0894
  -2137568.73446  -1639167.08742  21418499.9174   21418500.4764
 -27960653.13348 -21765282.63044  20061542.7144   20061538.4994
 -50629715.26649 -39428904.68746  18077592.2534   18077589.5504
 -44667137.55949 -34782064.09847  17694446.1984   17694443.7144
 04  7 30  2 13 29.9910000  0  9G10G31G13G29G28G 7G19G27G 8
 -16726205.72746 -13011555.98442  21174733.1834   21174732.3944
 -15980170.32848 -12423776.93943  19832078.7144   19832076.9994
 -45341247.35247 -35308997.39743  20109127.9804   20109125.9094
  -8452777.27347  -6560752.46942  21019344.4094   21019342.3904
 -31075420.48849 -24188426.40546  18527448.9094   18527445.9254
  -2295123.79346  -1761937.01342  21388517.6204   21388518.4484
 -27960642.16048 -21765274.08444  20061545.1834   20061540.5894
 -50671111.55549 -39461161.54546  18069714.6674   18069712.2884
 -44742196.12149 -34840551.28347  17680162.8004   17680160.2024
 04  7 30  2 13 59.9910000  0 10G10G31G13G29G28G 7G19G27G 8G26
 -16733769.75847 -13017450.07842  21173294.6984   21173293.1914
 -16141534.26647 -12549515.00443  19801372.6204   19801370.1914
 -45290441.00848 -35269408.07043  20118795.9804   20118793.8164
  -8596845.07047  -6673013.05342  20991928.4254   20991927.0114
 -31168990.28549 -24261337.91046  18509643.2694   18509640.2334
  -2452623.89546  -1884664.12142  21358546.7764   21358546.6794
 -27960139.69148 -21764882.55644  20061640.4484   20061636.1484
 -50712241.21949 -39493210.63346  18061888.3704   18061885.7534
 -44816983.59849 -34898827.22847  17665931.4564   17665928.9954
   -236253.79755   -158438.35351  21578039.6754   21578038.2454
 04  7 30  2 14 29.9910000  0 10G10G31G13G29G28G 7G19G27G 8G26
 -16740941.33247 -13023038.34042  21171929.0664   21171928.0974
 -16302694.34848 -12675094.21043  19770703.9954   19770702.7574
 -45239402.68447 -35229638.02843  20128508.1124   20128506.5694
  -8740689.45347  -6785099.58442  20964557.0734   20964554.8314
 -31262252.49249 -24334009.74446  18491896.1984   18491893.0624
  -2610077.01646  -2007354.63242  21328584.5194   21328584.1874
 -27959157.91448 -21764117.54544  20061827.4644   20061822.9644
 -50753113.72349 -39525059.34146  18054110.1284   18054107.7374
 -44891509.48049 -34956899.34346  17651749.8864   17651746.7884
   -389514.53945   -277862.23241  21548874.3784   21548873.4014
 04  7 30  2 14 59.9910000  0 10G10G31G13G29G28G 7G19G27G 8G26
 -16747721.19947 -13028321.36742  21170640.0894   21170637.9484
 -16463645.62548 -12800510.70643  19740076.2064   19740074.7144
 -45188133.15247 -35189687.78743  20138264.4724   20138263.1444
  -8884305.97747  -6897008.48042  20937227.5114   20937225.0464
 -31355205.29349 -24406440.47246  18474208.0974   18474204.1554
  -2767479.09047  -2130005.34842  21298631.0974   21298631.9374
 -27957696.70348 -21762978.91644  20062105.7374   20062100.9334
 -50793726.17249 -39556705.40846  18046382.3164   18046379.6324
 -44965770.78949 -35014765.29246  17637618.2764   17637615.3514
   -542579.52345   -397133.67641  21519748.8234   21519746.3164
 04  7 30  2 15 29.9910000  0 10G10G31G13G29G28G 7G19G27G 8G26
 -16754112.31247 -13033301.49742  21169423.6984   21169421.9294
 -16624385.87148 -12925762.74243  19709488.0114   19709486.6514
 -45136635.16848 -35149559.54843  20148064.5584   20148062.8234
  -9027692.82047  -7008738.46342  20909941.4874   20909939.8194
 -31447849.90249 -24478631.04346  18456578.0114   18456574.5734
  -2924828.23446  -2252614.83142  21268688.4874   21268688.9724
 -27955758.58648 -21761468.70544  20062474.1984   20062469.8744
 -50834078.43049 -39588148.72946  18038703.3164   18038700.6714
 -45039767.32049 -35072424.91547  17623536.9644   17623533.9484
   -695446.73045   -516250.86642  21490658.5734   21490656.5934
 04  7 30  2 15 59.9910000  0 10G10G31G13G29G28G 7G19G27G 8G26
 -16760100.22346 -13037967.40242  21168284.3234   21168282.7374
 -16784895.32448 -13050834.98543  19678944.8234   19678942.8274
 -45084894.42247 -35109242.12943  20157910.4484   20157908.7064
  -9170830.68447  -7120274.42942  20882703.3164   20882701.0114
 -31540169.67249 -24550568.50446  18439010.2144   18439006.8234
  -3082105.34446  -2375168.19542  21238759.2924   21238759.5234
 -27953328.50848 -21759575.13544  20062936.8864   20062932.0974
 -50874152.78949 -39619375.50246  18031077.2614   18031074.8584
 -45113480.86749 -35129864.04947  17609509.7534   17609507.0974
   -848096.72345   -635198.94042  21461609.1834   21461608.2764
 04  7 30  2 16 29.9910000  0 10G10G31G13G29G28G 7G19G27G 8G26
 -16765699.40647 -13042330.44742  21167217.7224   21167216.4724
 -16945182.75048 -13175734.19743  19648442.8314   19648441.0304
 -45032925.34447 -35068746.79142  20167799.8624   20167798.0664
  -9313728.65647  -7231623.45642  20855510.3314   20855508.7694
 -31632176.59049 -24622262.17846  18421501.8944   18421498.2734
  -3239319.69946  -2497672.66442  21208842.1054   21208842.7764
 -27950420.12948 -21757308.88744  20063490.4334   20063485.7184
 -50913959.91049 -39650394.04346  18023502.4254   18023499.7804
 -45186922.37949 -35187091.19346  17595534.2454   17595531.5624
  -1000538.48846   -753984.64541  21432602.3704   21432598.6914
 04  7 30  2 16 59.9910000  0 10G10G31G13G29G28G 7G19G27G 8G26
 -16770903.72747 -13046385.77342  21166227.8004   21166226.5384
 -17105236.54748 -13300451.37043  19617985.2374   19617983.4834
 -44980721.44547 -35028068.47643  20177733.7534   20177732.3234
  -9456375.75047  -7342777.01442  20828366.0034   20828363.9684
 -31723862.30949 -24693705.58346  18404054.2614   18404051.1054
  -3396460.37546  -2620119.70042  21178939.5734   21178939.5264
 -27947026.58248 -21754664.56844  20064136.1754   20064131.4414
 -50953490.31649 -39681196.96146  18015980.2374   18015977.6324
 -45260082.03149 -35244098.71047  17581612.6594   17581609.9334
  -1152760.77345   -872599.35942  21403633.4414   21403632.2694
 04  7 30  2 17 29.9910000  0 10G10G31G13G29G28G 7G19G27G 8G26
 -16775716.03947 -13050135.64942  21165312.7764   21165310.9874
 -17265054.12548 -13424984.46343  19587572.9804   19587571.0194
 -44928285.47747 -34987209.33443  20187712.6204   20187710.2024
  -9598769.84447  -7453733.39342  20801268.5734   20801266.7884
 -31815227.59849 -24764899.28545  18386668.2694   18386665.0894
  -3553525.30146  -2742507.71642  21149050.2064   21149050.9804
 -27943150.20348 -21751644.02244  20064873.6674   20064869.2534
 -50992743.35949 -39711783.75346  18008510.1444   18008507.9174
 -45332959.25849 -35300886.16147  17567744.4094   17567741.6364
  -1304761.47346   -991041.45242  21374709.7924   21374707.3824
 04  7 30  2 17 59.9910000  0 10G10G31G13G29G28G 7G19G27G 8G26
 -16780141.16047 -13053583.82042  21164470.1444   21164468.9294
 -17424634.60548 -13549332.81144  19557206.1054   19557203.9684
 -44875622.07047 -34946172.97143  20197733.6364   20197732.1794
  -9740910.36747  -7564492.22142  20774220.2764   20774218.5894
 -31906274.70349 -24835845.06546  18369342.8624   18369339.3394
  -3710514.18446  -2864836.49942  21119176.1284   21119176.3704
 -27938794.64848 -21748250.08744  20065702.0504   20065698.2334
 -51031720.37149 -39742155.45346  18001093.3004   18001090.4914
 -45405554.73449 -35357454.06346  17553930.1914   17553927.4374
  -1456539.85545  -1109310.29842  21345826.9954   21345824.9834
 04  7 30  2 18 29.9910000  0 10G10G31G13G29G28G 7G19G27G 8G26
 -16784177.32047 -13056728.91542  21163702.4804   21163701.0544
 -17583970.74248 -13673490.78343  19526884.8704   19526883.4094
 -44822729.55947 -34904958.05543  20207798.6674   20207797.2064
  -9882790.58647  -7675048.20942  20747221.7614   20747219.5384
 -31996999.91049 -24906540.01146  18352078.1284   18352074.7654
  -3867420.33646  -2987100.77942  21089317.9094   21089317.7844
 -27933957.70748 -21744481.04244  20066623.0734   20066618.2614
 -51070416.08249 -39772307.96146  17993729.9414   17993727.1984
 -45477863.31649 -35413798.41947  17540170.1124   17540167.4914
  -1608088.95346  -1227400.53042  21316988.6834   21316986.1874
 04  7 30  2 18 59.9910000  0 10G10G31G13G29G28G 7G19G27G 8G26
 -16787826.46947 -13059572.39842  21163007.8474   21163006.9644
 -17743059.05547 -13797455.61144  19496611.4804   19496609.6944
 -44769609.52747 -34863565.87842  20217907.3864   20217905.4484
 -10024407.60547  -7785399.09842  20720273.0814   20720270.8664
 -32087402.64149 -24976983.66946  18334875.0344   18334871.6084
  -4024240.87946  -3109298.42842  21059476.0584   21059475.3554
 -27928640.84448 -21740338.04744  20067634.6054   20067630.4564
 -51108828.98449 -39802240.09146  17986420.2924   17986417.5504
 -45549883.23849 -35469917.82747  17526465.3864   17526462.4484
  -1759405.50446  -1345309.47342  21288193.8084   21288191.8944
 04  7 30  2 19 29.9900000  0 10G10G31G13G29G28G 7G19G27G 8G26
 -16791089.21547 -13062114.81942  21162387.1864   21162386.0574
 -17901889.48848 -13921219.50743  19466386.5614   19466385.1744
 -44716264.18447 -34821998.13943  20228059.2174   20228056.6544
 -10165752.16047  -7895537.64242  20693375.3504   20693373.1474
 -32177478.66049 -25047172.74646  18317733.9364   18317730.9124
  -4180966.39146  -3231421.97342  21029652.3974   21029651.3114
 -27922844.31248 -21735821.26244  20068737.7954   20068733.4634
 -51146954.99249 -39831948.66946  17979164.5224   17979162.2604
 -45621609.61349 -35525808.50746  17512816.1314   17512813.1934
  -1910480.10946  -1463029.86242  21259445.0844   21259443.4364
 04  7 30  2 19 59.9900000  0 10G10G31G13G29G28G 7G19G27G 8G26
 -16793977.73847 -13064365.63242  21161837.8734   21161836.4674
 -18060478.96548 -14044795.65243  19436208.3034   19436206.5684
 -44662702.07447 -34780261.49243  20238250.9824   20238249.2014
 -10306840.58247  -8005476.64742  20666527.5064   20666525.3694
 -32267243.39549 -25117119.26246  18300652.4984   18300649.0334
  -4337614.21145  -3353484.99842  20999842.3114   20999842.4674
 -27916578.91448 -21730939.14844  20069930.2564   20069925.5374
 -51184805.03149 -39861442.20146  17971962.4364   17971959.5294
 -45693055.07849 -35581480.30147  17499220.4204   17499217.7754
  -2061329.44946  -1580574.77442  21230739.1394   21230737.4004
 04  7 30  2 20 29.9900000  0 10G10G31G13G29G28G 7G19G27G 8G26
 -16796489.73047 -13066323.07642  21161359.6704   21161358.1784
 -18218814.35947 -14168173.80844  19406078.0844   19406076.3974
 -44608922.46947 -34738355.35542  20248484.9674   20248483.3774
 -10447660.63747  -8115206.53442  20639730.4364   20639728.3184
 -32356689.37549 -25186817.40246  18283631.5374   18283628.1974
  -4494171.95345  -3475477.85441  20970049.5534   20970049.6904
 -27909841.81248 -21725689.45944  20071212.4904   20071207.5294
 -51222372.23049 -39890715.34446  17964813.5454   17964810.7134
 -45764211.53949 -35636926.89047  17485679.9364   17485677.2134
  -2211940.75046  -1697934.23742  21202079.4984   21202077.0414
 04  7 30  2 20 59.9900000  0 10G10G31G13G29G28G 7G19G27G 8G26
 -16798630.19547 -13067991.00442  21160951.8574   21160950.7254
 -18376895.27748 -14291353.67443  19375995.9284   19375994.6114
 -44554930.07847 -34696283.40742  20258760.3034   20258757.6904
 -10588212.59047  -8224727.50942  20612984.2724   20612982.1624
 -32445819.53549 -25256269.45246  18266670.6234   18266667.3034
  -4650639.65245  -3597400.60342  20940275.4514   20940275.0764
 -27902637.60548 -21720075.80044  20072582.9204   20072578.7874
 -51259658.15249 -39919769.30346  17957718.2254   17957715.4984
 -45835080.02049 -35692149.08446  17472193.8814   17472191.3344
  -2362314.21946  -1815108.28742  21173462.8504   21173461.1314
 04  7 30  2 21 29.9900000  0 10G10G31G13G29G28G 7G19G27G 8G26
 -16800400.31247 -13069370.33442  21160615.1234   21160614.3074
 -18534717.21148 -14414331.72744  19345963.7724   19345961.8344
 -44500726.06647 -34654046.57742  20269074.2014   20269072.6314
 -10728492.13347  -8334036.18842  20586290.0684   20586287.3074
 -32534632.88749 -25325474.62546  18249770.1474   18249766.3184
  -4807013.34045  -3719250.01842  20910519.0144   20910517.9594
 -27894966.75848 -21714098.52344  20074042.8114   20074038.6274
 -51296660.30149 -39948602.15246  17950676.7564   17950674.7094
 -45905658.31249 -35747145.14346  17458763.4514   17458760.8074
  -2512445.38346  -1932093.64342  21144893.9514   21144892.8114
 04  7 30  2 21 59.9900000  0 10G10G31G13G29G28G 7G19G27G 8G26
 -16801808.55147 -13070467.71142  21160346.7174   21160345.8504
 -18692282.86347 -14537110.10343  19315980.1784   19315978.0024
 -44446318.50847 -34611651.12042  20279428.0374   20279426.6904
 -10868502.63347  -8443135.29142  20559646.7644   20559644.5724
 -32623135.25449 -25394437.50046  18232928.7324   18232925.2214
  -4963296.41445  -3841028.78342  20880778.6154   20880778.2954
 -27886836.91848 -21707763.59244  20075589.6234   20075585.3424
 -51333383.35948 -39977217.52246  17943688.8034   17943686.2054
 -45975951.15249 -35801918.77847  17445387.3034   17445384.6904
  -2662337.20746  -2048892.36042  21116371.9434   21116369.3934
 04  7 30  2 22 29.9900000  0 10G10G31G13G29G28G 7G19G27G 8G26
 -16802850.53547 -13071279.67742  21160148.8184   21160148.0924
 -18849582.21547 -14659680.95344  19286046.8654   19286044.7604
 -44391702.96947 -34569093.62542  20289820.3114   20289819.2444
 -11008234.44947  -8552017.18342  20533056.2014   20533054.7794
 -32711319.89849 -25463152.79046  18216147.8034   18216144.0184
  -5119479.34445  -3962729.63742  20851057.9364   20851057.2794
 -27878243.10948 -21701067.12443  20077225.2794   20077220.7724
 -51369819.48449 -40005609.31246  17936755.1004   17936752.5144
 -46045950.03549 -35856463.37047  17432066.9284   17432063.8544
  -2811980.08246  -2165497.19842  21087894.4284   21087893.5024
 04  7 30  2 22 59.9900000  0 10G10G31G13G29G28G 7G19G27G 8G26
 -16803527.15247 -13071806.96242  21160020.7484   21160019.0614
 -19006610.73047 -14782040.76744  19256165.2174   19256163.3344
 -44336880.06247 -34526374.51842  20300254.0844   20300251.5144
 -11147683.07047  -8660678.41943  20506520.6624   20506517.8814
 -32799185.40649 -25531619.39146  18199427.2094   18199423.5764
  -5275558.14845  -4084349.33742  20821358.1004   20821357.1044
 -27869185.38348 -21694009.17344  20078948.7724   20078944.3734
 -51405966.11348 -40033775.50946  17929876.5844   17929874.0724
 -46115651.82049 -35910776.43847  17418802.9594   17418800.3974
  -2961369.42646  -2281904.44242  21059467.6394   21059465.2794
 04  7 30  2 23 29.9900000  0 10G10G31G13G29G28G 7G19G27G 8G26
 -16803845.88347 -13072055.34842  21159959.5224   21159958.3384
 -19163370.26648 -14904190.98244  19226335.1314   19226332.9204
 -44281857.07047 -34483499.50342  20310723.7324   20310721.9594
 -11286851.46147  -8769121.29042  20480037.2324   20480035.4634
 -32886737.28149 -25599841.60646  18182766.7794   18182763.0764
  -5431535.31245  -4205889.82742  20791674.7094   20791675.5024
 -27859670.72348 -21686595.16744  20080759.2874   20080755.0334
 -51441827.05549 -40061719.09346  17923052.6234   17923050.1004
 -46185060.75849 -35964861.31946  17405594.8734   17405592.1544
  -3110507.53946  -2398115.93342  21031087.5844   21031085.0684
 04  7 30  2 23 59.9900000  0 10G10G31G13G29G28G 7G19G27G 8G26
 -16803804.23047 -13072022.93242  21159967.7324   21159966.2644
 -19319852.77748 -15026125.34744  19196557.7014   19196555.3264
 -44226631.33247 -34440466.51642  20321233.6624   20321231.0534
 -11425731.53547  -8877339.48842  20453609.4754   20453607.7014
 -32973970.78149 -25667815.74746  18166166.8184   18166163.2484
  -5587403.27046  -4327345.14042  20762014.1624   20762014.3694
 -27849696.28148 -21678822.88544  20082657.3114   20082653.2364
 -51477396.50049 -40089435.54346  17916283.8424   17916281.2014
 -46254171.19549 -36018713.60847  17392443.8504   17392441.0614
  -3259386.78546  -2514125.70042  21002755.8344   21002754.3654
 04  7 30  2 24 29.9900000  0 10G10G31G13G29G28G 7G19G27G 8G26
 -16803413.39547 -13071718.40542  21160042.0614   21160041.0254
 -19476063.65248 -15147848.05944  19166831.3574   19166829.2094
 -44171213.45346 -34397283.82042  20331778.8034   20331776.6114
 -11564329.07447  -8985337.55643  20427235.0844   20427232.6974
 -33060894.44549 -25735548.46746  18149625.6784   18149622.1544
  -5743167.90246  -4448720.08242  20732373.3974   20732372.8654
 -27839272.39548 -21670700.38244  20084641.2404   20084636.6584
 -51512681.81248 -40116930.60546  17909569.4984   17909566.6154
 -46322989.43049 -36072338.20847  17379348.0224   17379345.2404
  -3408012.40646  -2629937.76642  20974474.2644   20974471.8614
 04  7 30  2 24 59.9900000  0 10G10G31G13G29G28G 7G19G27G 8G26
 -16802662.47347 -13071133.35142  21160184.7094   21160184.1044
 -19631986.44947 -15269346.27944  19137160.1704   19137158.1234
 -44115592.74647 -34353943.03942  20342363.1864   20342361.3814
 -11702628.27747  -9093103.15243  20400917.3974   20400915.6784
 -33147495.11749 -25803029.48446  18133146.0064   18133142.7954
  -5898813.50446  -4570002.21142  20702754.7794   20702754.4244
 -27828387.48448 -21662218.64844  20086712.5844   20086707.8424
 -51547668.57849 -40144193.01346  17902911.8184   17902908.9794
 -46391500.85249 -36125723.72947  17366310.7644   17366307.8574
  -3556368.67246  -2745540.02142  20946241.5534   20946240.0924
 04  7 30  2 25 29.9900000  0 10G10G31G13G29G28G 7G19G27G 8G26
 -16801562.35247 -13070276.16542  21160394.0684   21160393.4904
 -19787626.39548 -15390624.08744  19107542.9904   19107540.6074
 -44059779.66846 -34310452.36642  20352983.9594   20352982.6354
 -11840634.80947  -9200640.67242  20374655.9044   20374654.1274
 -33233781.50449 -25870265.61546  18116725.9514   18116723.0374
  -6054345.71946  -4691195.95542  20673157.5844   20673157.2054
 -27817051.84448 -21653385.68844  20088869.4904   20088865.2604
 -51582363.94948 -40171228.37046  17896309.7254   17896307.2564
 -46459712.92249 -36178875.98047  17353330.2794   17353327.6704
  -3704460.59046  -2860936.33242  20918061.9594   20918059.6664
 04  7 30  2 25 59.9900000  0 11G10G31G13G29G28G 7G19G27G 8G26G11
 -16800118.10547 -13069150.80742  21160669.1314   21160668.4244
 -19942983.02048 -15511681.12544  19077979.2484   19077977.1314
 -44003779.21546 -34266815.69642  20363640.4124   20363639.0184
 -11978348.50847  -9307950.05243  20348450.5374   20348447.8344
 -33319756.47749 -25937259.08046  18100365.9674   18100362.4984
  -6209764.47746  -4812301.36642  20643582.9594   20643582.1664
 -27805269.92248 -21644204.98043  20091111.0924   20091106.9984
 -51616769.65249 -40198038.00546  17889762.1154   17889759.6314
 -46527627.10549 -36231796.12747  17340406.6004   17340403.7294
  -3852288.25045  -2976126.71742  20889929.8344   20889929.4284
   -172625.56256   -115680.06551  21567333.3264   21567331.5414
 04  7 30  2 26 29.9900000  0 11G10G31G13G29G28G 7G19G27G 8G26G11
 -16798336.39147 -13067762.50742  21161008.6234   21161007.3544
 -20098057.24247 -15632518.10244  19048469.7644   19048467.2364
 -43947597.41847 -34223037.72742  20374332.0294   20374330.2644
 -12115770.60247  -9415032.19942  20322298.9364   20322297.2874
 -33405424.28549 -26004013.21646  18084063.7254   18084060.0884
  -6365071.45746  -4933319.63642  20614028.3424   20614028.1584
 -27793047.70748 -21634681.19143  20093437.5684   20093432.7364
 -51650888.66048 -40224624.25746  17883269.6314   17883266.9244
 -46595245.95749 -36284486.14347  17327539.2564   17327536.7524
  -3999852.51247  -3091111.77942  20861852.3114   20861848.5374
   -284631.95346   -202957.78041  21546019.4904   21546016.2874
 04  7 30  2 26 59.9900000  0 11G10G31G13G29G28G 7G19G27G 8G26G11
 -16796222.71947 -13066115.54442  21161410.1784   21161410.1044
 -20252848.69548 -15753134.75044  19019013.5224   19019011.3344
 -43891239.71147 -34179122.67342  20385056.1004   20385054.3504
 -12252901.25847  -9521887.22042  20296204.6234   20296202.2364
 -33490788.02049 -26070530.39846  18067819.5764   18067815.9434
  -6520266.78546  -5054250.93942  20584495.6544   20584495.1934
 -27780390.10248 -21624818.12843  20095845.8574   20095841.5654
 -51684722.55949 -40250988.33546  17876831.1394   17876828.8114
 -46662570.77349 -36336947.04347  17314727.6544   17314725.0374
  -4147153.50846  -3205891.68142  20833821.2644   20833817.5144
   -396467.04747   -290101.95941  21524737.9434   21524735.1194
 04  7 30  2 27 29.9900000  0 11G10G31G13G29G28G 7G19G27G 8G26G11
 -16793780.80547 -13064212.75842  21161874.8504   21161874.1114
 -20407355.61748 -15873529.67444  18989611.9364   18989609.9824
 -43834709.58247 -34135073.23742  20395813.6154   20395811.2134
 -12389739.19947  -9628514.19842  20270165.2794   20270162.7834
 -33575849.18749 -26136811.80146  18051632.8504   18051629.5964
  -6675349.14846  -5175094.20242  20554985.1004   20554984.4474
 -27767300.24648 -21614618.25244  20098337.0374   20098332.9124
 -51718271.63749 -40277130.47546  17870447.0454   17870444.1394
 -46729602.45749 -36389179.51247  17301972.1154   17301969.5534
  -4294189.59046  -3320465.19342  20805839.2874   20805837.7724
   -508128.72346   -377110.95041  21503489.6314   21503486.6784
 04  7 30  2 27 59.9900000  0 11G10G31G13G29G28G 7G19G27G 8G26G11
 -16791013.09847 -13062056.16442  21162401.9984   21162400.9324
 -20561574.82448 -15993700.43544  18960265.2484   18960262.8424
 -43778009.14547 -34090891.13842  20406603.3814   20406601.1474
 -12526281.57847  -9734910.83243  20244181.7174   20244179.6234
 -33660607.96149 -26202857.58946  18035503.6624   18035500.1584
  -6830315.93445  -5295847.39142  20525494.9594   20525494.7174
 -27753779.82448 -21604082.87543  20100909.7404   20100905.6194
 -51751534.82849 -40303049.84646  17864117.1314   17864114.6354
 -46796338.71949 -36441181.80147  17289272.6004   17289269.9324
  -4440957.64547  -3434829.88242  20777911.4904   20777908.8224
   -619614.46546   -463982.94441  21482274.3734   21482271.6234
 04  7 30  2 28 29.9900000  0 11G10G31G13G29G28G 7G19G27G 8G26G11
 -16787913.52347 -13059640.97942  21162991.1704   21162990.9364
 -20715494.35547 -16113637.67044  18930975.1394   18930973.1394
 -43721131.99247 -34046571.33542  20417426.9824   20417424.3694
 -12662516.73447  -9841068.09743  20218256.9364   20218254.6314
 -33745055.71549 -26268661.02246  18019434.0534   18019430.5294
  -6985155.87146  -5416501.78642  20496030.1394   20496029.1744
 -27739822.10248 -21593206.71843  20103565.9754   20103561.9044
 -51784502.14549 -40328738.67646  17857843.7644   17857841.4794
 -46862769.32049 -36492945.90747  17276631.4434   17276628.5924
  -4587446.15246  -3548976.71342  20750033.6544   20750033.2054
   -730912.37947   -550708.57041  21461095.1864   21461091.8934
 04  7 30  2 28 59.9900000  0 11G10G31G13G29G28G 7G19G27G 8G26G11
 -16784477.94547 -13056963.91042  21163645.8504   21163644.8774
 -20869104.31648 -16233333.68644  18901744.1934   18901741.8344
 -43664073.51246 -34002110.20542  20428284.6394   20428282.7644
 -12798435.29348  -9946978.65843  20192392.4124   20192390.2684
 -33829185.86349 -26334216.97346  18003424.8264   18003421.1904
  -7139859.43446  -5537049.85742  20466591.8654   20466590.1004
 -27725422.18448 -21581986.03843  20106305.8974   20106301.6354
 -51817165.72749 -40354190.82546  17851627.9204   17851625.3304
 -46928886.86349 -36544466.07347  17264049.5684   17264046.9004
  -4733645.15246  -3662897.97142  20722213.3574   20722212.7794
   -842012.50046   -637280.04042  21439953.3814   21439949.5414
 04  7 30  2 29 29.9900000  0 11G10G31G13G29G28G 7G19G27G 8G26G11
 -16780713.79747 -13054030.88842  21164361.2724   21164360.5724
 -21022406.71147 -16352790.01944  18872571.4754   18872569.2364
 -43606841.27047 -33957513.70142  20439175.8424   20439174.8654
 -12934039.62948 -10052644.34843  20166588.2174   20166586.1004
 -33913003.68049 -26399529.54046  17987474.5764   17987471.0024
  -7294429.13745  -5657493.63242  20437177.0144   20437176.3034
 -27710587.21548 -21570426.31443  20109128.8114   20109124.8934
 -51849529.71549 -40379409.51346  17845469.2794   17845466.7564
 -46994694.90649 -36595745.06047  17251526.7404   17251524.0184
  -4879557.04746  -3776595.50342  20694447.9124   20694446.5224
   -952917.17646   -723699.20341  21418848.9904   21418845.2954
 04  7 30  2 29 59.9900000  0 11G10G31G13G29G28G 7G19G27G 8G26G11
 -16776625.34847 -13050845.12842  21165140.5064   21165138.7134
 -21175399.91848 -16472005.43144  18843458.2724   18843455.6114
 -43549438.68047 -33912784.45842  20450098.9124   20450097.4634
 -13069328.55947 -10158064.26542  20140843.8184   20140841.1744
 -33996511.14849 -26464600.28246  17971583.6544   17971579.9714
  -7448863.87946  -5777832.27142  20407788.4364   20407788.3734
 -27695320.77348 -21558530.40343  20112033.5294   20112029.6114
 -51881594.60549 -40404395.14946  17839367.7404   17839365.3544
 -47060193.71549 -36646783.09346  17239062.8654   17239059.8424
  -5025180.55147  -3890068.31742  20666736.1314   20666734.4634
  -1063624.85946   -809964.90441  21397782.0294   21397778.4404
 04  7 30  2 30 29.9900000  0 11G10G31G13G29G28G 7G19G27G 8G26G11
 -16772211.60247 -13047405.88242  21165980.3734   21165979.2014
 -21328077.33648 -16590974.79644  18814403.6544   18814401.8184
 -43491864.79746 -33867921.72242  20461054.2954   20461052.8544
 -13204295.81247 -10263233.52843  20115160.3034   20115157.6504
 -34079704.89149 -26529426.57046  17955752.4364   17955748.7174
  -7603157.62946  -5898061.06142  20378427.7254   20378427.4284
 -27679621.21548 -21546296.99443  20115021.8034   20115017.3614
 -51913355.72349 -40429144.07146  17833323.7564   17833321.2524
 -47125378.03949 -36697576.07147  17226658.3114   17226655.9864
  -5170508.94947  -4003311.19842  20639081.7404   20639079.6664
  -1174128.87946   -896071.85741  21376753.5534   21376749.3654
 04  7 30  2 30 59.9900000  0 11G10G31G13G29G28G 7G19G27G 8G26G11
 -16767478.30146 -13043717.65842  21166880.1314   21166879.4474
 -21480439.12948 -16709698.20544  18785410.6234   18785408.0574
 -43434125.16046 -33822929.86942  20472042.0144   20472040.4434
 -13338942.05147 -10368152.66543  20089537.5844   20089535.3224
 -34162588.54349 -26594011.21646  17939980.1234   17939976.4474
  -7757311.09846  -6018180.49642  20349093.1074   20349092.6194
 -27663493.78948 -21533730.18443  20118090.8034   20118086.3304
 -51944815.30549 -40453658.04546  17827337.6394   17827334.5454
 -47190250.12549 -36748125.75947  17214313.7874   17214311.1664
  -5315542.70347  -4116324.45642  20611482.4044   20611480.4084
  -1284429.80546   -982020.60341  21355763.3974   21355760.6824
 04  7 30  2 31 29.9900000  0 11G10G31G13G29G28G 7G19G27G 8G26G11
 -16762417.07047 -13039773.88842  21167844.3264   21167843.1074
 -21632470.93448 -16828164.49944  18756479.8814   18756477.6584
 -43376210.78946 -33777801.86242  20483062.5374   20483061.8344
 -13473253.12148 -10472810.61343  20063978.8184   20063976.8034
 -34245150.79349 -26658345.43446  17924269.1784   17924265.6004
  -7911310.38746  -6138179.84342  20319788.0614   20319787.2174
 -27646929.19148 -21520822.70343  20121243.2324   20121238.4904
 -51975961.05149 -40477927.45146  17821410.4124   17821407.6544
 -47254797.27749 -36798422.23747  17202030.9824   17202028.2994
  -5460267.74647  -4229097.16742  20583941.8504   20583940.4404
  -1394513.38346  -1067799.91841  21334815.2954   21334812.4634
 04  7 30  2 31 59.9900000  0 11G10G31G13G29G28G 7G19G27G 8G26G11
 -16757038.65246 -13035582.99342  21168867.4044   21168866.5104
 -21784177.91848 -16946377.66744  18727610.8974   18727608.7724
 -43318132.09446 -33732545.77242  20494115.4674   20494114.0924
 -13607234.66047 -10577211.77443  20038483.3344   20038481.0334
 -34327400.42249 -26722436.03846  17908617.4824   17908613.5104
  -8065161.21546  -6258063.46642  20290510.6314   20290509.6544
 -27629937.76648 -21507582.66743  20124476.4514   20124471.7254
 -52006800.14149 -40501957.92146  17815541.8734   17815539.2404
 -47319026.92649 -36848471.31147  17189808.1474   17189805.7564
  -5604689.18747  -4341633.28842  20556459.9594   20556457.9284
  -1504384.58245  -1153413.85241  21313907.8504   21313904.3464
 04  7 30  2 32 29.9900000  0 11G10G31G13G29G28G 7G19G27G 8G26G11
 -16751350.17646 -13031150.45142  21169949.7254   21169949.2994
 -21935561.62148 -17064338.93844  18698803.6474   18698800.9284
 -43259895.93446 -33687166.99342  20505197.3264   20505196.1624
 -13740888.66847 -10681357.75343  20013049.4434   20013047.3734
 -34409342.35549 -26786286.87546  17893024.0764   17893020.8344
  -8218865.57846  -6377832.98842  20261261.6934   20261261.0104
 -27612526.18747 -21494015.20143  20127789.1544   20127785.4284
 -52037336.12149 -40525752.19146  17809731.1474   17809728.3264
 -47382942.03949 -36898275.30347  17177645.6544   17177643.1234
  -5748808.96146  -4453934.37742  20529033.9674   20529033.4474
  -1614045.33646  -1238863.72442  21293040.2094   21293037.6744
 04  7 30  2 32 59.9900000  0 11G10G31G13G29G28G 7G19G27G 8G26G11
 -16745352.18446 -13026476.71042  21171091.0764   21171090.4204
 -22086616.68448 -17182044.11944  18670058.6784   18670056.6004
 -43201502.74246 -33641665.83042  20516308.6624   20516306.9864
 -13874210.14147 -10785244.57243  19987679.1864   19987677.0334
 -34490974.71549 -26849896.49446  17877490.3264   17877486.4984
  -8372418.69546  -6497484.61442  20232041.5764   20232040.9754
 -27594694.15247 -21480120.10543  20131182.9204   20131178.5144
 -52067565.87949 -40549307.84546  17803978.6154   17803975.7644
 -47446538.96149 -36947831.33547  17165543.6074   17165540.9674
  -5892621.89846  -4565996.36742  20501667.5534   20501666.3384
  -1723490.49246  -1324145.59441  21272213.9284   21272210.4634
 04  7 30  2 33 29.9900000  0 11G10G31G13G29G28G 7G19G27G 8G26G11
 -16739045.85546 -13021562.78142  21172290.6394   21172290.6864
 -22237338.65248 -17299489.76344  18641377.2644   18641375.2174
 -43142953.16446 -33596042.85242  20527450.8654   20527448.5224
 -14007194.91848 -10888869.02043  19962373.2874   19962370.8574
 -34572296.20349 -26913263.88046  17862015.4674   17862011.7134
  -8525816.55146  -6617015.32542  20202850.2794   20202849.9634
 -27576442.25847 -21465897.88743  20134656.0454   20134651.5104
 -52097486.80149 -40572622.85246  17798284.8344   17798282.0224
 -47509815.05549 -36997137.39047  17153502.5684   17153499.8654
  -6036123.53146  -4677815.76242  20474359.9754   20474358.4284
  -1832715.43745  -1409255.90341  21251428.5454   21251424.8654
 04  7 30  2 33 59.9900000  0 11G10G31G13G29G28G 7G19G27G 8G26G11
 -16732433.35246 -13016410.20742  21173549.5764   21173549.2994
 -22387724.00848 -17416673.09044  18612759.6864   18612757.8614
 -43084248.96946 -33550299.38142  20538620.9434   20538620.5024
 -14139840.01248 -10992228.79743  19937131.8114   19937129.3464
 -34653306.73849 -26976388.94646  17846599.4904   17846595.9084
  -8679056.01246  -6736422.55242  20173690.6074   20173689.6904
 -27557772.21548 -21451349.81544  20138208.8344   20138204.9084
 -52127097.37949 -40595696.03346  17792649.9674   17792647.3384
 -47572768.70349 -37046192.17146  17141522.9754   17141520.3694
  -6179310.47347  -4789389.96742  20447112.4904   20447110.5374
  -1941716.90645  -1494192.04341  21230685.9204   21230682.7324
 04  7 30  2 34 29.9890000  0 11G10G31G13G29G28G 7G19G27G 8G26G11
 -16725530.78547 -13011031.62842  21174863.4154   21174862.0714
 -22537777.59448 -17533597.91644  18584205.4854   18584203.2904
 -43025407.37146 -33504448.84242  20549818.5404   20549818.2284
 -14272151.20348 -11095328.40243  19911953.3764   19911951.4074
 -34734016.80949 -27039279.90046  17831240.9544   17831237.1924
  -8832142.51646  -6855710.63342  20144558.7204   20144557.9584
 -27538699.71547 -21436488.13543  20141838.3454   20141834.2124
 -52156408.62949 -40618535.97346  17787072.5094   17787069.6854
 -47635408.99249 -37095002.78647  17129602.8374   17129599.9824
  -6322188.25446  -4900723.30042  20419922.9154   20419922.4664
  -2050501.46145  -1578959.16642  21209985.1574   21209982.5324
 04  7 30  2 34 59.9890000  0 11G10G31G13G29G28G 7G19G27G 8G26G11
 -16718327.48046 -13005418.66742  21176234.0244   21176233.1814
 -22687493.72748 -17650259.78944  18555715.4074   18555713.3994
 -42966414.12146 -33458480.11942  20561045.4854   20561043.4034
 -14404122.02047 -11198162.74043  19886840.4854   19886838.1104
 -34814419.49249 -27101931.32946  17815940.5644   17815937.3964
  -8985071.01246  -6974875.55442  20115457.1264   20115456.3964
 -27519212.77048 -21421303.52743  20145546.6264   20145542.4544
 -52185408.96949 -40641133.64446  17781553.4464   17781551.3334
 -47697726.31649 -37143561.73147  17117744.1654   17117741.6034
  -6464750.73047  -5011810.88242  20392795.6734   20392792.8964
  -2159060.41045  -1663550.51042  21189326.8764   21189323.9274
 04  7 30  2 35 29.9890000  0 11G10G31G13G29G28G 7G19G27G 8G26G11
 -16710819.48046 -12999568.35642  21177662.3454   21177661.5564
 -22836857.44548 -17766647.03744  18527292.7354   18527290.1464
 -42907266.73446 -33412391.25742  20572300.8214   20572298.2714
 -14535738.32848 -11300720.86443  19861794.5404   19861792.3374
 -34894505.57449 -27164336.05246  17800700.9544   17800697.3574
  -9137826.83646  -7093905.93642  20086389.1104   20086387.8994
 -27499307.39547 -21405792.87243  20149334.6264   20149329.8924
 -52214089.34849 -40663481.99146  17776096.3604   17776093.2634
 -47759710.58249 -37191861.15747  17105949.0404   17105946.2864
  -6606983.28947  -5122641.43142  20365728.6734   20365727.3994
  -2267380.51245  -1747955.77342  21168713.8764   21168711.4784
 04  7 30  2 35 59.9890000  0 11G10G31G13G29G28G 7G19G27G 8G26G11
 -16703018.85946 -12993490.03742  21179147.8064   21179146.1854
 -22985875.02048 -17882764.57845  18498935.2044   18498933.2124
 -42847976.39846 -33366191.06342  20583582.5484   20583581.4744
 -14667006.87948 -11403008.02343  19836814.9154   19836812.5014
 -34974284.65649 -27226501.56146  17785519.5644   17785515.7244
  -9290416.78147  -7212807.11742  20057351.8214   20057351.3604
 -27478994.80947 -21389964.88843  20153199.7904   20153195.6774
 -52242458.18449 -40685587.57746  17770697.7594   17770694.9424
 -47821369.60249 -37239907.14247  17094215.9934   17094212.8684
  -6748892.24247  -5233219.79242  20338724.1424   20338722.8884
  -2375467.97346  -1832179.73442  21148145.6104   21148142.7554
 04  7 30  2 36 29.9890000  0 11G10G31G13G29G28G 7G19G27G 8G26G11
 -16694923.37546 -12987181.92142  21180687.6894   21180686.7944
 -23134538.55548 -17998606.24945  18470645.6264   18470642.8604
 -42788540.65646 -33319877.53642  20594893.7284   20594892.0484
 -14797920.13748 -11505018.30843  19811902.8604   19811900.8964
 -35053752.19949 -27288424.31446  17770397.2204   17770393.5244
  -9442833.44546  -7331573.22142  20028348.1964   20028347.3174
 -27458272.23847 -21373817.44543  20157143.3214   20157138.9934
 -52270509.44949 -40707445.71246  17765359.8214   17765357.0054
 -47882697.52049 -37287695.12647  17082545.5564   17082542.6894
  -6890470.08246  -5343540.19542  20311783.6814   20311780.7714
  -2483314.80545  -1916216.15742  21127623.2514   21127619.3144
 04  7 30  2 36 59.9890000  0 11G10G31G13G29G28G 7G19G27G 8G26G11
 -16686539.92646 -12980649.37742  21182284.1494   21182282.2784
 -23282849.10248 -18114172.85445  18442423.1264   18442420.7514
 -42728966.31246 -33273456.02842  20606229.4234   20606228.8334
 -14928479.35948 -11606752.72043  19787058.3534   19787056.2714
 -35132912.53549 -27350107.67046  17755333.2284   17755329.6104
  -9595078.31247  -7450205.45042  19999376.2744   19999375.6694
 -27437145.87948 -21357355.35143  20161163.4394   20161159.2514
 -52298246.44949 -40729058.96646  17760081.6574   17760079.0524
 -47943697.12149 -37335227.27747  17070937.4934   17070934.8994
  -7031717.69946  -5453603.27442  20284904.5244   20284902.6894
  -2590922.70345  -2000066.41442  21107146.5244   21107143.1924
 04  7 30  2 37 29.9890000  0 11G10G31G13G29G28G 7G19G27G 8G26G11
 -16677877.60946 -12973899.55042  21183932.2044   21183931.0754
 -23430810.36748 -18229467.28844  18414266.7204   18414264.4114
 -42669261.98846 -33226933.20342  20617591.1734   20617589.5404
 -15058688.96548 -11708214.73142  19762280.3214   19762278.0094
 -35211772.79749 -27411557.21446  17740327.0094   17740323.2554
  -9747155.64847  -7568707.17442  19970437.6184   19970436.3884
 -27415624.77347 -21340585.67143  20165258.8064   20165254.4974
 -52325674.68749 -40750431.61346  17754862.2354   17754859.6074
 -48004373.64549 -37382507.68447  17059391.2044   17059388.3684
  -7172639.11347  -5563412.14242  20258089.3534   20258086.2674
  -2698295.17645  -2083733.27742  21086713.8294   21086710.8414
 04  7 30  2 37 59.9890000  0 11G10G31G13G29G28G 7G19G27G 8G26G11
 -16668936.62146 -12966932.60542  21185633.8844   21185631.9464
 -23578416.43048 -18344484.94545  18386177.9704   18386175.8644
 -42609427.17246 -33180308.70142  20628977.7594   20628975.9974
 -15188543.18048 -11809399.78243  19737569.3924   19737567.4664
 -35290330.49649 -27472770.99646  17725377.9154   17725374.2124
  -9899060.05947  -7687074.15142  19941531.0244   19941529.5444
 -27393707.99647 -21323507.65943  20169429.5174   20169425.1034
 -52352790.54749 -40771560.85046  17749702.1184   17749699.6574
 -48064722.89849 -37429533.07547  17047906.8764   17047904.4424
  -7313228.62547  -5672962.39642  20231334.8144   20231333.0874
  -2805426.26646  -2167212.00642  21066327.6424   21066324.2784
 04  7 30  2 38 29.9890000  0 11G10G31G13G29G28G 7G19G27G 8G26G11
 -16659723.55546 -12959753.67942  21187387.0404   21187385.5484
 -23725668.48048 -18459226.75045  18358156.9624   18358154.9154
 -42549468.54746 -33133587.78242  20640386.8294   20640386.1224
 -15318043.48448 -11910309.06643  19712926.1814   19712924.4274
 -35368590.14149 -27533752.51746  17710485.7824   17710482.3764
 -10050792.95747  -7805307.46142  19912657.0714   19912656.0644
 -27371401.93447 -21306126.34343  20173674.2044   20173669.7984
 -52379597.01249 -40792448.99746  17744601.1894   17744598.4544
 -48124747.84449 -37476305.74547  17036484.5874   17036482.1344
  -7453487.40647  -5782254.97442  20204645.3764   20204643.3684
  -2912317.51246  -2250503.89042  21045986.9704   21045983.8534
 04  7 30  2 38 59.9890000  0 11G10G31G13G29G28G 7G19G27G 8G26G11
 -16650232.47346 -12952358.07742  21189192.4624   21189191.6964
 -23872554.81648 -18573683.58045  18330205.3684   18330203.0284
 -42489379.73046 -33086765.36242  20651822.0244   20651820.2944
 -15447178.82048 -12010933.97743  19688353.0564   19688350.4824
 -35446543.43749 -27594495.33546  17695651.3764   17695647.9424
 -10202343.42247  -7923398.62642  19883817.9074   19883816.6574
 -27348700.08247 -21288436.59343  20177994.4314   20177989.7554
 -52406084.66849 -40813088.73446  17739560.5874   17739558.0284
 -48184438.52749 -37522817.97047  17025125.7354   17025123.2354
  -7593403.96146  -5891280.79542  20178018.5174   20178017.5794
  -3018957.46146  -2333599.86742  21025693.6894   21025690.4854
 04  7 30  2 39 29.9890000  0 11G10G31G13G29G28G 7G19G27G 8G26G11
 -16640466.68746 -12944748.41642  21191050.9934   21191050.2594
 -24019072.88348 -18687853.46045  18302324.1344   18302321.9424
 -42429163.22746 -33039843.48242  20663280.7674   20663278.8604
 -15575946.76248 -12111272.59043  19663849.3924   19663846.7594
 -35524190.94949 -27654999.88646  17680875.6104   17680872.0054
 -10353709.13747  -8041345.86343  19855013.6574   19855012.8374
 -27325605.13747 -21270440.55043  20182389.1894   20182384.7474
 -52432252.82449 -40833479.51646  17734580.6424   17734578.2594
 -48243794.00049 -37569068.99246  17013831.0954   17013828.0564
  -7732975.61746  -6000037.94642  20151459.6104   20151458.1534
  -3125343.36746  -2416497.92942  21005449.4394   21005446.2204
 04  7 30  2 39 59.9890000  0 11G10G31G13G29G28G 7G19G27G 8G26G11
 -16630430.03546 -12936927.71942  21192961.3144   21192960.3534
 -24165220.75048 -18801734.84945  18274512.8844   18274510.4894
 -42368822.61746 -32992824.88042  20674762.8374   20674761.7594
 -15704345.85948 -12211323.78843  19639415.7674   19639412.9854
 -35601534.41049 -27715267.50046  17666157.6494   17666154.0564
 -10504888.57447  -8159147.91642  19826245.2434   19826243.9354
 -27302120.07048 -21252140.53243  20186858.1494   20186853.8684
 -52458101.66849 -40853621.46046  17729661.7674   17729659.3414
 -48302814.14849 -37615058.70646  17002599.6264   17002597.1894
  -7872200.91047  -6108525.17742  20124965.9544   20124964.7634
  -3231473.39846  -2499196.57242  20985253.1344   20985249.9784
 04  7 30  2 40 29.9890000  0 11G10G31G13G29G28G 7G19G27G 8G26G11
 -16620130.13346 -12928901.90942  21194921.0324   21194919.8884
 -24311000.48448 -18915329.39845  18246771.8214   18246769.4894
 -42308365.04746 -32945715.19042  20686267.9394   20686266.7554
 -15832378.22748 -12311089.24743  19615051.6034   19615049.4894
 -35678579.02749 -27775302.25646  17651496.3924   17651492.7244
 -10655884.26647  -8276806.80443  19797511.2284   19797510.2284
 -27278252.08647 -21233542.10143  20191399.8764   20191395.5134
 -52483635.08649 -40873517.62846  17724803.1494   17724800.5564
 -48361502.43449 -37660789.83747  16991431.7904   16991429.0484
  -8011081.75446  -6216744.01442  20098537.7824   20098535.8064
  -3337349.77046  -2581697.62542  20965105.7674   20965102.5794
 04  7 30  2 40 59.9890000  0 11G10G31G13G29G28G 7G19G27G 8G26G11
 -16609567.16046 -12920671.05542  21196930.7434   21196930.3144
 -24456406.06249 -19028632.38245  18219102.1344   18219099.7984
 -42247789.99646 -32898513.84342  20697795.5324   20697793.2674
 -15960038.51248 -12410564.74943  19590758.9394   19590756.6774
 -35755322.32449 -27835102.20746  17636892.7744   17636889.2044
 -10806690.72747  -8394318.24443  19768814.1264   19768813.0834
 -27254000.67647 -21214644.90043  20196015.0324   20196010.2004
 -52508849.37149 -40893165.11646  17720005.0564   17720002.7594
 -48419854.98849 -37706259.34947  16980327.5404   16980324.9194
  -8149612.43746  -6324689.96142  20072176.1034   20072174.4624
  -3442966.99646  -2663996.71742  20945007.6734   20945004.5284
 04  7 30  2 41 29.9890000  0 11G10G31G13G29G28G 7G19G27G 8G26G11
 -16598740.74246 -12912234.97442  21198991.2824   21198990.7944
 -24601431.81249 -19141639.41945  18191504.8144   18191502.1184
 -42187096.82846 -32851220.55042  20709345.3144   20709343.0994
 -16087321.24248 -12509746.06843  19566538.1344   19566535.5134
 -35831761.81249 -27894665.44346  17622346.8454   17622343.2244
 -10957302.74247  -8511678.15242  19740152.9544   19740152.1694
 -27229365.12547 -21195448.36743  20200702.9934   20200698.9034
 -52533740.58249 -40912560.86846  17715268.8764   17715266.0674
 -48477867.49649 -37751463.90247  16969288.4154   16969285.4824
  -8287787.25846  -6432358.63842  20045883.0794   20045880.8294
  -3548318.97046  -2746089.16042  20924959.4704   20924956.2354
 04  7 30  2 41 59.9890000  0 11G10G31G13G29G28G 7G19G27G 8G26G11
 -16587661.25846 -12903601.70942  21201100.0794   21201098.5954
 -24746082.32049 -19254354.05644  18163978.2434   18163976.2674
 -42126295.37145 -32803842.87942  20720914.5794   20720913.5134
 -16214231.60948 -12608637.23243  19542387.4544   19542385.3374
 -35907905.37949 -27953998.07346  17607857.1654   17607853.4744
 -11107725.29748  -8628890.44842  19711529.2044   19711527.5014
 -27204354.99647 -21175959.98643  20205462.3294   20205457.7594
 -52558315.64849 -40931710.27946  17710592.1654   17710589.3104
 -48535546.62149 -37796408.67547  16958312.3374   16958309.4974
  -8425610.85946  -6539753.58342  20019656.0874   20019653.6574
  -3653410.26646  -2827978.35642  20904961.3924   20904958.7124
 04  7 30  2 42 29.9890000  0 11G10G31G13G29G28G 7G19G27G 8G26G11
 -16576339.18046 -12894779.34642  21203253.9544   21203253.6384
 -24890362.54349 -19366780.14845  18136523.0014   18136520.5364
 -42065396.09446 -32756388.96041  20732504.5794   20732501.8104
 -16340774.63748 -12707242.16243  19518306.9394   19518304.8684
 -35983761.28949 -28013106.56046  17593422.0324   17593418.5644
 -11257963.66847  -8745959.20843  19682939.2284   19682938.2244
 -27178980.43448 -21156187.59943  20210290.5954   20210286.4854
 -52582581.37549 -40950618.63746  17705974.5404   17705971.9074
 -48592898.31649 -37841098.30347  16947398.4854   16947396.0604
  -8563088.15246  -6646878.69942  19993493.7904   19993492.7554
  -3758245.56646  -2909668.22142  20885011.8684   20885008.6224
 04  7 30  2 42 59.9890000  0 11G10G31G13G29G28G 7G19G27G 8G26G11
 -16564768.57047 -12885763.31042  21205456.7904   21205455.3494
 -25034260.72749 -19478908.55345  18109140.0794   18109137.1854
 -42004392.42246 -32708853.68141  20744112.3924   20744110.2164
 -16466939.01648 -12805552.04543  19494299.0244   19494296.6774
 -36059321.09849 -28071984.32746  17579043.8534   17579040.1494
 -11408006.66848  -8862875.73642  19654387.3684   19654385.6694
 -27153234.72347 -21136126.03543  20215190.4234   20215185.7594
 -52606528.27749 -40969278.56146  17701417.5404   17701414.7744
 -48649912.87149 -37885525.22547  16936549.0564   16936546.4394
  -8700207.84847  -6753725.19542  19967400.9074   19967400.0604
  -3862813.97346  -2991150.02942  20865112.6734   20865109.8104
 04  7 30  2 43 29.9890000  0 11G10G31G13G29G28G 7G19G27G 8G26G11
 -16552953.52747 -12876556.84842  21207705.0094   21207703.3804
 -25177775.36748 -19590738.10645  18081829.8454   18081827.3214
 -41943288.13346 -32661239.98241  20755739.1104   20755738.5484
 -16592723.56648 -12903565.95743  19470362.7744   19470360.6654
 -36134586.84849 -28130632.95246  17564721.3374   17564717.4424
 -11557853.07448  -8979639.07443  19625871.8924   19625871.2864
 -27127121.66047 -21115778.22443  20220159.6654   20220154.9504
 -52630156.43049 -40987690.11046  17696920.7434   17696918.5714
 -48706590.50049 -37929689.61547  16925763.3924   16925760.8684
  -8836968.25047  -6860291.69642  19941376.0244   19941374.8294
  -3967113.94946  -3072422.71442  20845264.9154   20845261.9544
 04  7 30  2 43 59.9890000  0 11G10G31G13G29G28G 7G19G27G 8G26G11
 -16540886.40246 -12867153.97742  21210001.1964   21210000.0994
 -25320892.90249 -19702258.20344  18054595.7354   18054593.0174
 -41882074.46546 -32613541.02042  20767389.1344   20767387.0244
 -16718115.11748 -13001273.63643  19446501.4934   19446499.2864
 -36209548.28149 -28189044.45146  17550456.4234   17550452.9624
 -11707489.89848  -9096239.10943  19597396.9934   19597395.7634
 -27100632.87147 -21095137.61442  20225199.7044   20225195.5244
 -52653454.57849 -41005844.51146  17692487.3924   17692485.1184
 -48762919.59849 -37973582.41247  16915044.8064   16915041.9784
  -8973355.85247  -6966567.69742  19915423.3294   19915420.7634
  -4071131.91446  -3153475.62342  20825471.6654   20825468.3494
 04  7 30  2 44 29.9890000  0 11G10G31G13G29G28G 7G19G27G 8G26G11
 -16528573.28546 -12857559.45142  21212344.1964   21212343.0484
 -25463613.73048 -19813469.18245  18027436.3064   18027433.9354
 -41820757.52046 -32565761.62342  20779056.4314   20779055.3374
 -16843114.37148 -13098675.64743  19422714.5484   19422712.6734
 -36284208.60249 -28247221.31546  17536248.9544   17536245.5284
 -11856917.67247  -9212676.26043  19568961.7284   19568960.5444
 -27073773.51247 -21074208.27843  20230311.4854   20230306.6494
 -52676425.20749 -41023743.70846  17688116.0484   17688113.6894
 -48818902.06649 -38017205.10447  16904391.6734   16904388.9744
  -9109371.28947  -7072553.69642  19889540.8214   19889538.2944
  -4174868.00446  -3234308.92142  20805730.9464   20805727.8604
 04  7 30  2 44 59.9890000  0 11G10G31G13G29G28G 7G19G27G 8G26G11
 -16516014.64546 -12847773.55542  21214734.2514   21214732.6694
 -25605932.68048 -19924367.01045  18000354.1494   18000351.6224
 -41759337.38747 -32517901.86842  20790744.9394   20790743.4504
 -16967716.41448 -13195768.12943  19399004.3144   19399001.5794
 -36358566.46149 -28305162.49546  17522099.1344   17522095.4504
 -12006131.98048  -9328947.05443  19540567.4314   19540566.0644
 -27046544.06647 -21052990.53243  20235492.8454   20235488.3174
 -52699064.99249 -41041385.09746  17683808.2354   17683805.9074
 -48874534.31649 -38060554.89847  16893805.2434   16893802.4544
  -9245009.53947  -7178245.81742  19863729.6964   19863727.4854
  -4278317.43446  -3314918.83642  20786045.9154   20786042.1574
 04  7 30  2 45 29.9890000  0 11G10G31G13G29G28G 7G19G27G 8G26G11
 -16503215.09046 -12837799.93442  21217170.1424   21217169.0874
 -25747848.96149 -20034951.07945  17973348.3064   17973345.8024
 -41697818.12147 -32469964.85042  20802452.2984   20802451.0834
 -17091920.92648 -13292550.86043  19375368.6814   19375366.4584
 -36432624.31649 -28362869.89546  17508006.3684   17508003.0324
 -12155132.35547  -9445051.14843  19512213.2904   19512212.1964
 -27018948.86747 -21031487.79543  20240744.1034   20240739.6144
 -52721375.12149 -41058769.62246  17679562.6034   17679560.2864
 -48929816.86749 -38103632.21246  16883285.1964   16883282.2824
  -9380269.75447  -7283643.34042  19837989.6654   19837987.7824
  -4381479.48846  -3395304.79742  20766413.8994   20766410.7204
 04  7 30  2 45 59.9890000  0 11G10G31G13G29G28G 7G19G27G 8G26G11
 -16490173.62946 -12827637.79842  21219651.4394   21219651.1424
 -25889355.68748 -20145216.01945  17946420.4854   17946417.8174
 -41636198.16047 -32421949.31442  20814177.2044   20814176.5054
 -17215721.30148 -13389018.66743  19351810.3684   19351807.6384
 -36506378.48849 -28420340.67646  17493971.4074   17493967.7394
 -12303912.24647  -9560983.45543  19483901.4074   19483899.9354
 -26990985.92247 -21009698.49843  20246064.8534   20246060.5214
 -52743350.94949 -41075893.63846  17675380.6184   17675378.4744
 -48984744.62949 -38146433.05547  16872832.6814   16872829.9194
  -9515145.07846  -7388740.95542  19812323.9154   19812322.0954
  -4484347.30546  -3475461.47942  20746838.6424   20746835.6574
 04  7 30  2 46 29.9890000  0 11G10G31G13G29G28G 7G19G27G 8G26G11
 -16476900.60246 -12817295.27642  21222176.6344   21222176.1774
 -26030457.37948 -20255165.33745  17919569.7204   17919567.3964
 -41574487.24646 -32373862.95942  20825920.0174   20825918.9784
 -17339122.41848 -13485175.37043  19328327.5714   19328325.4894
 -36579836.83249 -28477580.91846  17479992.8374   17479989.1424
 -12452476.42248  -9676747.65443  19455630.1964   19455629.0834
 -26962665.10947 -20987630.35943  20251454.2984   20251449.6614
 -52764998.69548 -41092762.01446  17671261.2284   17671258.8804
 -49039323.41449 -38188961.97147  16862446.8064   16862443.9664
  -9649639.98446  -7493542.11542  19786730.7044   19786728.9854
  -4586925.47346  -3555392.52842  20727318.8214   20727316.1614
 04  7 30  2 46 59.9890000  0 11G10G31G13G29G28G 7G19G27G 8G26G11
 -16463403.58247 -12806778.16242  21224746.7124   21224745.4394
 -26171156.12148 -20364800.66945  17892795.5324   17892792.9544
 -41512692.47746 -32325711.25842  20837680.5324   20837678.5564
 -17462126.45348 -13581022.64943  19304920.8764   19304918.0994
 -36653004.91049 -28534594.99746  17466069.1814   17466065.6654
 -12600827.49248  -9792345.80443  19427399.9624   19427399.1184
 -26933993.41847 -20965288.80842  20256910.7674   20256906.0674
 -52786322.42648 -41109377.91245  17667203.6424   17667201.1894
 -49093557.46149 -38231222.25547  16852126.4234   16852123.5404
  -9783756.72347  -7598048.63342  19761208.6034   19761206.5214
  -4689215.97346  -3635099.40342  20707854.0644   20707850.9504
 04  7 30  2 47 29.9890000  0 11G10G31G13G29G28G 7G19G27G 8G26G11
 -16449680.07046 -12796084.63042  21227356.2434   21227356.5874
 -26311443.66448 -20474115.59945  17866099.5794   17866097.1464
 -41450810.96546 -32277491.95142  20849455.5714   20849454.0794
 -17584725.66048 -13676554.49343  19281590.8294   19281588.6104
 -36725877.77049 -28591379.03146  17452201.9394   17452198.6224
 -12748957.50048  -9907771.71343  19399212.0244   19399210.5214
 -26904968.10547 -20942671.68442  20262433.6104   20262429.5054
 -52807316.19148 -41125736.69246  17663208.6104   17663206.5284
 -49147440.12149 -38273208.73647  16841872.8294   16841870.1184
  -9917487.19146  -7702254.11342  19735760.7354   19735758.6614
  -4791211.07446  -3714576.03542  20688444.6264   20688441.4074
 04  7 30  2 47 59.9890000  0 11G10G31G13G29G28G 7G19G27G 8G26G11
 -16435737.23046 -12785220.16842  21230008.8994   21230009.7474
 -26451321.39548 -20583111.18245  17839481.8144   17839479.1924
 -41388849.12546 -32229210.03642  20861246.5794   20861245.2634
 -17706921.78148 -13771772.23543  19258337.7824   19258335.7744
 -36798459.64549 -28647936.32946  17438390.1034   17438386.6104
 -12896868.44147 -10023026.90243  19371065.0174   19371064.0324
 -26875595.08247 -20919783.64242  20268023.6424   20268019.0444
 -52827983.41448 -41141841.01845  17659275.8214   17659273.5444
 -49200974.14849 -38314923.55747  16831685.6574   16831682.8064
 -10050832.80947  -7806159.75142  19710386.1964   19710383.8534
  -4892911.74646  -3793823.27642  20669092.0014   20669088.6494
 04  7 30  2 48 29.9890000  0 11G10G31G13G29G28G 7G19G27G 8G26G11
 -16421576.09046 -12774185.55942  21232704.5564   21232705.1224
 -26590784.87548 -20691783.97845  17812942.9394   17812940.3534
 -41326807.66046 -32180866.08142  20873052.7984   20873052.6384
 -17828710.70348 -13866672.69044  19235162.3214   19235159.8214
 -36870749.59449 -28704266.14746  17424633.8924   17424630.5714
 -13044555.98448 -10138108.02843  19342961.0954   19342959.7594
 -26845875.15647 -20896625.27442  20273678.8764   20273674.4504
 -52848321.45348 -41157688.85046  17655405.7434   17655403.2634
 -49254156.89549 -38356364.65047  16821565.1034   16821562.5444
 -10183788.95747  -7909761.87842  19685084.6654   19685082.9314
  -4994313.58647  -3872837.68442  20649796.0244   20649792.6534
 04  7 30  2 48 59.9890000  0 11G10G31G13G29G28G 7G19G27G 8G26G11
 -16407211.09446 -12762992.16142  21235438.9704   21235438.5754
 -26729842.93048 -20800140.88045  17786481.2434   17786478.4234
 -41264700.34846 -32132470.84042  20884871.1344   20884870.1104
 -17950101.45748 -13961262.87843  19212062.1344   19212059.6104
 -36942759.76249 -28760377.95646  17410930.9074   17410927.0444
 -13192029.25448 -10253022.18143  19314897.9784   19314896.5564
 -26815822.18746 -20873207.39642  20279397.6264   20279393.3174
 -52868341.07848 -41173288.55846  17651596.0484   17651593.3374
 -49306998.82849 -38397540.17647  16811509.7674   16811506.9504
 -10316364.69947  -8013067.59943  19659857.1184   19659854.8604
  -5095425.65647  -3951626.24842  20630555.0954   20630551.1854
 04  7 30  2 49 29.9880000  0 11G10G31G13G29G28G 7G19G27G 8G26G11
 -16392637.19946 -12751635.94142  21238212.9184   21238212.0244
 -26868479.80948 -20908169.56245  17760099.0904   17760096.6994
 -41202523.83646 -32084021.69342  20896704.2314   20896702.4774
 -18071079.24648 -14055531.26643  19189040.8874   19189038.4614
 -37014479.84049 -28816263.71546  17397282.9264   17397279.2894
 -13339272.84448 -10367757.37643  19286878.5824   19286876.6524
 -26785431.50847 -20849526.35242  20285179.8324   20285176.5984
 -52888032.62148 -41188632.62645  17647849.0274   17647846.2934
 -49359488.39849 -38438441.12547  16801521.3634   16801518.5944
 -10448544.37147  -8116064.70042  19634703.4344   19634701.6454
  -5196233.46146  -4030177.73042  20611371.2854   20611368.2854
 04  7 30  2 49 59.9880000  0 11G10G31G13G29G28G 7G19G27G 8G26G11
 -16377853.26646 -12740116.09742  21241025.3874   21241025.8404
 -27006698.98448 -21015872.77645  17733796.9494   17733794.2344
 -41140272.85946 -32035514.41742  20908550.0124   20908548.7704
 -18191646.76648 -14149479.97943  19166097.7774   19166095.5434
 -37085912.05549 -28871925.17146  17383689.5674   17383686.0594
 -13486291.01248 -10482316.91143  19258901.6604   19258900.4964
 -26754700.33647 -20825580.00443  20291028.5824   20291024.2584
 -52907393.65248 -41203719.14445  17644164.6294   17644162.1844
 -49411625.02749 -38479067.06346  16791600.2314   16791597.4454
 -10580331.38347  -8218755.81743  19609625.6764   19609623.7544
  -5296738.16446  -4108493.04642  20592245.2384   20592242.4844
 04  7 30  2 50 29.9880000  0 11G10G31G13G29G28G 7G19G27G 8G26G11
 -16362862.00046 -12728434.67642  21243879.4024   21243878.2154
 -27144492.61748 -21123244.38945  17707575.4184   17707573.2424
 -41077951.37945 -31986952.32842  20920408.4344   20920408.1094
 -18311797.00448 -14243103.53344  19143234.2234   19143231.7424
 -37157054.14549 -28927360.55446  17370151.8714   17370148.2234
 -13633075.94948 -10596694.70443  19230969.7544   19230967.9494
 -26723631.48047 -20801370.53442  20296941.0674   20296936.8404
 -52926422.19148 -41218546.58045  17640543.8324   17640540.8564
 -49463405.54349 -38519415.51347  16781746.6134   16781743.7664
 -10711717.81247  -8321134.81742  19584623.7384   19584621.2154
  -5396933.07446  -4186566.99242  20573179.5674   20573175.8484
 04  7 30  2 50 59.9880000  0 11G10G31G13G29G28G 7G19G27G 8G26G11
 -16347671.59446 -12716598.11042  21246768.7074   21246768.6134
 -27281863.01648 -21230286.21545  17681435.0594   17681432.0474
 -41015566.87545 -31938341.08142  20932280.7544   20932279.4534
 -18431532.61348 -14336403.98444  19120448.9344   19120446.7274
 -37227911.47749 -28982574.03946  17356668.1524   17356664.3594
 -13779630.23048 -10710892.77243  19203080.7704   19203079.5674
 -26692232.26247 -20776903.64042  20302916.3324   20302912.0864
 -52945122.55148 -41233118.28745  17636984.9964   17636982.2894
 -49514833.65249 -38559489.35146  16771959.8484   16771957.2934
 -10842705.96547  -8423203.44542  19559697.5514   19559694.9814
  -5496820.46146  -4264401.29542  20554171.5514   20554167.9654
 04  7 30  2 51 29.9880000  0 11G10G31G13G29G28G 7G19G27G 8G26G11
 -16332268.87146 -12704596.04342  21249700.7934   21249700.0674
 -27418791.27748 -21336983.52045  17655378.4964   17655375.5594
 -40953105.39545 -31889669.85941  20944165.8174   20944165.4844
 -18550835.00848 -14429366.87543  19097746.5434   19097744.2814
 -37298468.43449 -29037553.46946  17343241.7704   17343237.9224
 -13925935.52348 -10824896.83643  19175240.0354   19175238.3284
 -26660488.91846 -20752168.59343  20308957.2544   20308952.2624
 -52963477.80548 -41247421.08745  17633492.2774   17633489.5784
 -49565891.77349 -38599274.89347  16762243.7704   16762241.1134
 -10973277.20347  -8524947.22442  19534849.9344   19534848.5004
  -5596381.59446  -4341981.34342  20535225.3954   20535222.3674
 04  7 30  2 51 59.9880000  0 11G10G31G13G29G28G 7G19G27G 8G26G11
 -16316660.43046 -12692433.75542  21252670.7624   21252670.0554
 -27555278.88748 -21443337.46445  17629405.5124   17629402.6174
 -40890573.54345 -31840943.81841  20956065.6604   20956064.4384
 -18669705.78148 -14521993.43644  19075126.4574   19075123.8794
 -37368729.77349 -29092302.55646  17329871.1844   17329867.6844
 -14071993.37548 -10938708.08043  19147445.6764   19147444.5864
 -26628407.78547 -20727170.31043  20315061.7074   20315057.3714
 -52981491.47348 -41261457.72045  17630064.3564   17630061.6334
 -49616582.72749 -38638774.33347  16752597.8404   16752595.1604
 -11103432.96547  -8626367.26543  19510082.3484   19510080.4144
  -5695617.89146  -4419308.29342  20516341.4494   20516337.7504
 04  7 30  2 52 29.9880000  0 11G10G31G13G29G28G 7G19G27G 8G26G11
 -16300852.20346 -12680115.68142  21255679.9024   21255679.0274
 -27691325.91048 -21549348.10645  17603516.1764   17603513.6884
 -40827976.50445 -31792166.89741  20967976.9814   20967977.1134
 -18788145.53548 -14614284.13844  19052588.1604   19052585.3874
 -37438698.75849 -29146823.82946  17316556.4964   17316552.9924
 -14217804.39548 -11052326.98043  19119699.5204   19119697.3794
 -26595994.12946 -20701912.93042  20321229.8244   20321225.6094
 -52999165.39848 -41275229.60945  17626701.2544   17626698.5674
 -49666908.57049 -38677989.26547  16743021.1684   16743018.4104
 -11233173.31247  -8727463.61742  19485393.4264   19485391.5124
  -5794529.44946  -4496382.26242  20497519.7384   20497515.9064
 04  7 30  2 52 59.9880000  0 11G10G31G13G29G28G 7G19G27G 8G26G11
 -16284852.06646 -12667648.21542  21258724.2234   21258723.9494
 -27826934.66448 -21655017.21145  17577711.3564   17577708.3794
 -40765321.51645 -31743344.96441  20979900.3014   20979899.8594
 -18906156.76248 -14706240.91744  19030131.0594   19030128.7974
 -37508380.90249 -29201121.59546  17303296.6374   17303292.9384
 -14363371.10548 -11165755.52643  19091998.8244   19091997.1804
 -26563255.32447 -20676402.17242  20327460.2314   20327455.9184
 -53016504.06648 -41288740.26045  17623401.8404   17623399.1454
 -49716873.23849 -38716922.76746  16733513.4494   16733510.6334
 -11362500.37147  -8828237.90442  19460783.8244   19460781.5904
  -5893118.68446  -4573204.95642  20478758.5204   20478755.1374
 04  7 30  2 53 29.9880000  0 11G10G31G13G29G28G 7G19G27G 8G26G11
 -16268668.27046 -12655037.54342  21261804.1064   21261803.2274
 -27962107.93449 -21760347.01745  17551988.4104   17551986.1024
 -40702616.30546 -31694483.75941  20991833.5904   20991832.2664
 -19023742.64548 -14797866.26844  19007755.3324   19007752.4884
 -37577782.40649 -29255200.67046  17290089.9494   17290086.3914
 -14508696.60948 -11278996.10643  19064344.4494   19064342.6494
 -26530199.47347 -20650644.38443  20333750.2704   20333745.7774
 -53033512.07448 -41301993.25546  17620164.9654   17620162.2504
 -49766480.75049 -38755577.96547  16724073.3244   16724070.4024
 -11491417.07447  -8928692.45542  19436250.9574   19436249.0704
  -5991388.49246  -4649778.81342  20460058.5044   20460054.9924
 04  7 30  2 53 59.9880000  0 11G10G31G13G29G28G 7G19G27G 8G26G11
 -16252300.97745 -12642283.86942  21264917.7544   21264918.2704
 -28096840.07849 -21865333.05645  17526349.8484   17526346.7584
 -40639860.37545 -31645583.08341  21003775.1214   21003773.3874
 -19140897.59848 -14889155.83644  18985461.4104   18985458.6214
 -37646900.71149 -29309059.07646  17276936.9574   17276933.3794
 -14653775.49648 -11392044.50043  19036736.4884   19036734.8094
 -26496825.73047 -20624638.91742  20340100.9964   20340096.8244
 -53050185.89849 -41314985.84145  17616992.1064   17616989.4814
 -49815727.32849 -38793951.91447  16714701.8094   16714699.0514
 -11619917.76647  -9028822.82742  19411797.9494   19411796.4494
  -6089333.19947  -4726099.32242  20441419.9734   20441416.3754
 04  7 30  2 54 29.9880000  0 11G10G31G13G29G28G 7G19G27G 8G26G11
 -16235753.50045 -12629389.83642  21268066.5984   21268067.0434
 -28231129.16449 -21969973.87145  17500795.1604   17500792.8524
 -40577056.62145 -31596645.17841  21015726.1064   21015725.0594
 -19257620.33648 -14980108.57944  18963249.8094   18963247.2544
 -37715736.70749 -29362697.50846  17263837.7704   17263834.3444
 -14798606.31648 -11504899.61743  19009175.7934   19009174.2274
 -26463136.74247 -20598387.75742  20346512.0044   20346507.4304
 -53066525.37149 -41327717.91345  17613882.7704   17613880.0674
 -49864612.23849 -38832044.04547  16705399.3714   16705396.6884
 -11748000.53547  -9128627.56843  19387425.0824   19387422.7744
  -6186950.74646  -4802164.93642  20422844.0044   20422839.8324
 04  7 30  2 54 59.9880000  0 11G10G31G13G29G28G 7G19G27G 8G26G11
 -16219018.27745 -12616349.49642  21271251.8174   21271252.0514
 -28364962.10949 -22074259.23945  17475327.5514   17475324.7934
 -40514197.16846 -31547663.75541  21027687.7544   21027687.0204
 -19373897.84448 -15070714.41044  18941122.7314   18941120.5004
 -37784280.65649 -29416108.36446  17250794.5824   17250790.8284
 -14943176.12948 -11617551.35243  18981664.9104   18981663.6844
 -26429124.94147 -20571885.07442  20352983.9344   20352979.9924
 -53082519.54749 -41340180.90545  17610839.0594   17610836.4494
 -49913124.32449 -38869845.65347  16696168.0044   16696164.8204
 -11875652.13846  -9228096.29343  19363133.8954   19363132.0244
  -6284228.02346  -4877965.35442  20404332.6844   20404329.8834
 04  7 30  2 55 29.9880000  0 11G10G31G13G29G28G 7G19G27G 8G26G11
 -16202104.03945 -12603169.76542  21274469.7074   21274470.4924
 -28498342.15649 -22178191.71046  17449946.4024   17449943.6604
 -40451289.72746 -31498644.97441  21039659.5124   21039657.4534
 -19489733.73048 -15160976.13144  18919079.9884   18919077.7544
 -37852538.54749 -29469296.31546  17237805.4024   17237801.6684
 -15087488.50448 -11730002.47543  18954203.1064   18954202.4734
 -26394798.33247 -20545137.08643  20359516.1684   20359512.0904
 -53098173.49249 -41352378.78346  17607860.2854   17607857.7664
 -49961267.73049 -38907359.98547  16687006.4574   16687003.7154
 -12002875.94147  -9327231.74343  19338924.0274   19338921.6064
  -6381168.05146  -4953502.99242  20385885.5354   20385881.1884
 04  7 30  2 55 59.9880000  0 10G31G13G29G28G 7G19G27G 8G26G11
 -28631264.31649 -22281767.39245  17424651.9734   17424649.5164
 -40388334.91047 -31449589.32242  21051640.4734   21051638.0554
 -19605123.32448 -15250890.07944  18897122.1214   18897119.7424
 -37920509.17649 -29522260.42946  17224871.0744   17224867.4534
 -15231538.71148 -11842249.31343  18926791.4494   18926789.8094
 -26360157.05147 -20518143.90343  20366107.9814   20366104.2034
 -53113484.41049 -41364309.38145  17604947.1214   17604944.2974
 -50009039.52049 -38944584.75047  16677915.6134   16677912.8634
 -12129667.02747  -9426029.97542  19314796.6994   19314794.3914
  -6477766.39146  -5028774.44442  20367503.5274   20367500.2584
 04  7 30  2 56 29.9880000  0 10G31G13G29G28G 7G19G27G 8G26G11
 -28763719.55149 -22384979.22745  17399446.5274   17399443.7274
 -40325328.16446 -31400493.22741  21063628.6604   21063626.7894
 -19720057.88748 -15340449.47744  18875250.6134   18875248.4844
 -37988186.44949 -29574995.95246  17211992.7234   17211988.7854
 -15375318.03148 -11954285.08143  18899431.0354   18899429.5944
 -26325196.97347 -20490902.30243  20372760.7384   20372756.7274
 -53128444.83248 -41375966.86645  17602100.3714   17602097.3404
 -50056431.69549 -38981513.71647  16668897.4414   16668894.7194
 -12256016.14847  -9524483.80743  19290752.9814   19290751.1134
  -6574013.87547  -5103772.39842  20349188.5744   20349185.2314
 04  7 30  2 56 59.9880000  0 10G31G13G29G28G 7G19G27G 8G26G11
 -28895710.28549 -22487829.11845  17374329.5274   17374326.8444
 -40262277.09046 -31351362.51541  21075627.5204   21075625.7584
 -19834540.05148 -15429656.33544  18853465.1214   18853462.9614
 -38055575.78549 -29627507.11646  17199168.7464   17199165.2854
 -15518829.14147 -12066111.85144  18872121.7774   18872120.3324
 -26289925.37547 -20463417.96343  20379472.9884   20379468.8444
 -53143059.32449 -41387354.78146  17599319.0674   17599316.6844
 -50103448.21149 -39018149.95247  16659950.4574   16659947.7074
 -12381925.89147  -9622595.28843  19266793.2704   19266790.9964
  -6669912.74247  -5178498.71542  20330939.1924   20330935.1414
 04  7 30  2 57 29.9880000  0 10G31G13G29G28G 7G19G27G 8G26G11
 -29027240.71149 -22590320.33145  17349300.4344   17349297.5984
 -40199190.60247 -31302204.29341  21087632.6374   21087631.3484
 -19948574.27748 -15518514.16944  18831765.0594   18831762.8874
 -38122684.20749 -29679799.37646  17186398.1294   17186394.6844
 -15662076.34847 -12177733.00244  18844862.8014   18844861.0244
 -26254351.31247 -20435697.91943  20386242.7154   20386238.2934
 -53157333.85249 -41398477.80445  17596602.4424   17596599.9344
 -50150094.60249 -39054497.78147  16651073.8564   16651071.0004
 -12507400.07447  -9720367.37643  19242916.4264   19242913.8484
  -6765466.88346  -5252956.50642  20312755.8404   20312752.4454
 04  7 30  2 57 59.9880000  0 10G31G13G29G28G 7G19G27G 8G26G11
 -29158300.94549 -22692445.16045  17324360.0674   17324357.4424
 -40136063.51247 -31253014.37741  21099645.2234   21099643.7344
 -20062151.02348 -15607015.50744  18810152.4654   18810150.0514
 -38189505.46549 -29731867.88146  17173682.7384   17173678.8994
 -15805050.14148 -12289141.08244  18817655.8404   18817654.4104
 -26218470.17647 -20407738.63043  20393070.1994   20393065.8204
 -53171260.70749 -41409329.88946  17593952.5744   17593949.8204
 -50196363.21149 -39090551.23347  16642269.6454   16642266.6414
 -12632429.21147  -9817792.66443  19219123.8954   19219121.9734
  -6860667.08246  -5327138.42942  20294639.0594   20294636.5984
 04  7 30  2 58 29.9880000  0 10G31G13G29G28G 7G19G27G 8G26G11
 -29288883.09049 -22794197.44745  17299511.1524   17299508.1064
 -40072892.82046 -31203790.43641  21111664.3094   21111663.9184
 -20175262.41848 -15695154.25344  18788628.0434   18788625.3204
 -38256034.56649 -29783708.72346  17161022.5824   17161019.0244
 -15947742.79748 -12400330.07843  18790502.0744   18790500.5004
 -26182278.79347 -20379537.56743  20399957.5824   20399953.3564
 -53184833.78548 -41419906.33045  17591369.5824   17591367.1414
 -50242247.24649 -39126305.02447  16633537.8484   16633535.0824
 -12757005.00847  -9914864.68143  19195417.9104   19195416.0474
  -6955505.22746  -5401038.21942  20276592.2234   20276589.2544
 04  7 30  2 58 59.9880000  0 10G31G13G29G28G 7G19G27G 8G26G11
 -29418994.93749 -22895583.27445  17274751.8324   17274748.8874
 -40009691.53147 -31154542.70341  21123692.1764   21123690.4064
 -20287916.91448 -15782936.95144  18767190.7774   18767187.8014
 -38322282.41049 -29835330.41646  17148415.8564   17148412.2584
 -16090162.46948 -12511306.40944  18763400.4184   18763399.0904
 -26145790.28547 -20351104.94542  20406900.1924   20406896.9494
 -53198062.75448 -41430214.61245  17588852.6214   17588849.8054
 -50287755.64149 -39161766.10747  16624877.9884   16624875.2464
 -12881135.53147 -10011589.74243  19171796.1924   19171794.6134
  -7049989.12146  -5474661.94742  20258612.5904   20258609.4184
 04  7 30  2 59 29.9880000  0  9G31G29G28G 7G19G27G 8G26G11
 -29548638.83649 -22996604.47446  17250081.2384   17250078.5984
 -20400116.82048 -15870365.44344  18745839.9024   18745837.5004
 -38388254.42249 -29886737.17246  17135862.1134   17135858.3324
 -16232311.58648 -12622071.88144  18736350.0824   18736348.5594
 -26109011.43446 -20322446.13142  20413899.6454   20413895.5314
 -53210951.96548 -41440258.17545  17586399.5354   17586397.0164
 -50332891.94149 -39196937.24547  16616288.7774   16616285.8634
 -13004822.68447 -10107969.31943  19148259.4264   19148257.6844
  -7144121.07846  -5548011.53042  20240700.0514   20240696.3284
 04  7 30  2 59 59.9880000  0  9G31G29G28G 7G19G27G 8G26G11
 -29677808.96549 -23097256.48846  17225501.0984   17225497.9494
 -20511856.81648 -15957435.54844  18724576.1604   18724573.6494
 -38453947.82049 -29937926.81146  17123360.7934   17123357.2584
 -16374184.63748 -12732622.25444  18709352.6924   18709351.1374
 -26071941.57046 -20293560.55042  20420953.8874   20420949.6604
 -53223497.43749 -41450033.85745  17584012.0904   17584009.1924
 -50377652.50049 -39231815.59447  16607771.1454   16607768.1254
 -13128060.97348 -10203999.13843  19124808.1374   19124806.4454
  -7237895.26246  -5621082.27642  20222855.4654   20222852.3594
 04  7 30  3  0 29.9880000  0  9G31G29G28G 7G19G27G 8G26G11
 -29806494.27049 -23197530.72046  17201013.0824   17201010.1764
 -20623125.95348 -16044138.75744  18703402.3174   18703400.1174
 -38519354.61349 -29988893.12746  17110914.6684   17110910.9344
 -16515770.74248 -12842949.04744  18682409.7934   18682408.2774
 -26034574.41047 -20264443.27342  20428064.9964   20428060.6494
 -53235690.05549 -41459534.60945  17581692.0044   17581689.3564
 -50422027.10249 -39266393.20047  16599327.1064   16599324.3994
 -13250838.97748 -10299670.27843  19101444.1294   19101442.5634
  -7331300.49646  -5693865.50742  20205081.4104   20205077.0744
 04  7 30  3  0 59.9880000  0  9G31G29G28G 7G19G27G 8G26G11
 -29934696.45349 -23297428.49346  17176616.8404   17176614.3134
 -20733926.27748 -16130476.65344  18682317.6844   18682315.4924
 -38584479.35949 -30039639.67246  17098521.8244   17098518.2854
 -16657071.83648 -12953053.72144  18655521.2384   18655519.5824
 -25996916.55147 -20235099.50642  20435231.0824   20435226.4814
 -53247533.41048 -41468763.20045  17579438.1924   17579435.7034
 -50466018.91849 -39300672.53247  16590955.2624   16590952.9494
 -13373158.63348 -10394984.26243  19078167.8324   19078165.6844
  -7424338.50846  -5766362.64142  20187376.7154   20187373.0904
 04  7 30  3  1 29.9880000  0  9G31G29G28G 7G19G27G 8G26G11
 -30062403.34449 -23396940.33246  17152315.0904   17152312.2234
 -20844245.86348 -16216439.96544  18661324.5984   18661322.1764
 -38649312.95749 -30090159.35146  17086184.5204   17086180.6454
 -16798075.77748 -13062926.87144  18628688.7464   18628687.0244
 -25958960.58247 -20205523.44642  20442453.9184   20442449.3564
 -53259017.16449 -41477711.59145  17577252.8714   17577250.4384
 -50509616.97749 -39334645.04347  16582659.0744   16582656.3134
 -13495007.46948 -10489931.38743  19054980.6064   19054978.3954
  -7516997.19946  -5838564.22342  20169744.3714   20169740.7154
 04  7 30  3  1 59.9880000  0  9G31G29G28G 7G19G27G 8G26G11
 -30189624.16449 -23496073.40545  17128105.8174   17128103.3204
 -20954094.28948 -16302036.11944  18640420.9264   18640418.7584
 -38713867.69949 -30140461.73846  17073899.8954   17073896.3594
 -16938792.29748 -13172576.05144  18601911.3174   18601909.6454
 -25920720.82446 -20175726.25542  20449730.3324   20449725.7504
 -53270152.39149 -41486388.39145  17575134.1454   17575131.5514
 -50552832.43749 -39368319.42347  16574435.7774   16574432.8164
 -13616394.87548 -10584518.94143  19031881.2544   19031879.3954
  -7609285.68446  -5910477.22242  20152182.3244   20152178.7744
 04  7 30  3  2 29.9880000  0  9G31G29G28G 7G19G27G 8G26G11
 -30316353.27749 -23594823.34546  17103989.9264   17103987.2114
 -21063466.03147 -16387260.83844  18619608.3634   18619605.9494
 -38778140.88749 -30190544.73146  17061669.1524   17061665.5744
 -17079215.89848 -13281996.99344  18575189.6214   18575187.7854
 -25882196.39146 -20145707.19442  20457060.7934   20457056.7934
 -53280935.44948 -41494790.77345  17573082.0594   17573079.6884
 -50595660.77049 -39401692.14847  16566285.5984   16566282.7384
 -13737315.06648 -10678742.42443  19008870.9574   19008868.5864
  -7701198.19547  -5982097.35842  20134691.8404   20134688.6494
 04  7 30  3  2 59.9880000  0  9G31G29G28G 7G19G27G 8G26G11
 -30442590.96949 -23693190.34846  17079967.7544   17079964.8324
 -21172361.72748 -16472114.60344  18598886.1134   18598884.0124
 -38842135.71949 -30240410.82646  17049491.2464   17049487.8204
 -17219346.87548 -13391189.91044  18548523.5594   18548521.8524
 -25843392.16846 -20115470.15242  20464445.3954   20464441.0394
 -53291368.42248 -41502920.36745  17571096.8094   17571094.1454
 -50638103.76249 -39434764.60446  16558208.6294   16558205.9304
 -13857768.12548 -10772601.91543  18985949.7234   18985947.4774
  -7792735.40646  -6053425.02342  20117272.7934   20117268.8014
 04  7 30  3  3 29.9880000  0  9G31G29G28G 7G19G27G 8G26G11
 -30568335.53549 -23791173.10346  17056039.5514   17056036.3244
 -21280779.89848 -16556596.27644  18578254.8794   18578252.4734
 -38905853.40648 -30290060.96146  17037366.2234   17037362.7194
 -17359183.59448 -13500153.52844  18521913.6524   18521911.6254
 -25804311.23046 -20085017.45742  20471882.3324   20471878.0204
 -53301451.46948 -41510777.29645  17569178.0044   17569175.3834
 -50680161.13749 -39467536.58147  16550205.5044   16550202.7344
 -13977752.27048 -10866096.01743  18963117.1524   18963115.1174
  -7883894.91846  -6124458.37542  20099925.3564   20099922.7504
 04  7 30  3  3 59.9880000  0  9G31G29G28G 7G19G27G 8G26G11
 -30693598.20748 -23888780.35346  17032202.7384   17032199.5394
 -21388731.96948 -16640714.76044  18557712.3634   18557709.9924
 -38969308.07848 -30339506.15346  17025291.1374   17025287.4304
 -17498737.68048 -13608896.93244  18495357.3954   18495355.4104
 -25764969.75046 -20054361.77542  20479368.8794   20479364.3874
 -53311197.68448 -41518371.74945  17567323.6134   17567320.8954
 -50721845.32449 -39500017.76347  16542273.1764   16542270.7624
 -14097278.76248 -10959233.52743  18940372.0354   18940370.0434
  -7974688.18046  -6195206.35242  20082648.3244   20082644.4734
 04  7 30  3  4 29.9880000  0  9G31G29G28G 7G19G27G 8G26G11
 -30818362.39149 -23985999.15846  17008460.6134   17008458.1024
 -21496201.69148 -16724457.36844  18537261.8244   18537259.0944
 -39032486.21548 -30388735.84846  17013268.9964   17013265.1024
 -17637992.57848 -13717407.19244  18468857.4494   18468855.9574
 -25725355.77346 -20023493.74942  20486907.4184   20486902.7894
 -53320592.39548 -41525692.30345  17565535.5274   17565532.9534
 -50763141.18749 -39532196.34647  16534415.0594   16534411.9924
 -14216330.84448 -11052001.32643  18917717.1524   18917715.2894
  -8065098.52047  -6265655.91842  20065443.8634   20065440.5044
 04  7 30  3  4 59.9870000  0  9G31G29G28G 7G19G27G 8G26G11
 -30942625.14149 -24082827.25746  16984814.2414   16984811.8314
 -21603186.92248 -16807822.47744  18516902.5624   18516900.5034
 -39095389.80548 -30437751.61746  17001299.1874   17001295.0974
 -17776945.03548 -13825681.78844  18442416.2804   18442413.6444
 -25685476.69546 -19992419.13342  20494495.7344   20494491.3594
 -53329638.27748 -41532741.03745  17563814.2104   17563811.6014
 -50804049.74249 -39564073.14447  16526630.5774   16526627.7024
 -14334905.68448 -11144397.30043  18895153.1554   18895151.0664
  -8155124.27347  -6335805.81042  20048312.5154   20048309.2104
 04  7 30  3  5 29.9870000  0  9G31G29G28G 7G19G27G 8G26G11
 -31066385.14548 -24179263.59646  16961263.5774   16961260.7964
 -21709685.37548 -16890808.25744  18496636.8124   18496634.4524
 -39158016.31648 -30486551.48846  16989381.1874   16989377.4644
 -17915594.85548 -13933720.56244  18416032.0694   18416029.6984
 -25645325.02046 -19961132.12642  20502135.9054   20502131.8394
 -53338328.10948 -41539512.33945  17562160.7804   17562157.7344
 -50844565.52049 -39595643.87347  16518920.4054   16518917.6484
 -14453001.55148 -11236420.03843  18872679.9214   18872677.9334
  -8244761.68047  -6405653.10842  20031254.8514   20031251.7804
 04  7 30  3  5 59.9870000  0  9G31G29G28G 7G19G27G 8G26G11
 -31189647.58248 -24275312.23146  16937807.5304   16937804.4094
 -21815703.09048 -16973419.44544  18476462.5694   18476460.0694
 -39220375.87948 -30535143.34746  16977514.5544   16977510.8234
 -18053946.84848 -14041527.27944  18389704.3274   18389702.4604
 -25604916.12946 -19929644.68042  20509825.8664   20509821.6714
 -53346672.91848 -41546014.78845  17560572.9764   17560570.2844
 -50884697.77749 -39626915.77147  16511283.5624   16511281.0384
 -14570623.69148 -11328073.61643  18850297.4294   18850294.9174
  -8334017.17247  -6475202.77642  20014270.0624   20014266.6714
 04  7 30  3  6 29.9870000  0  9G31G29G28G 7G19G27G 8G26G11
 -31312412.03949 -24370972.81246  16914446.2414   16914443.3314
 -21921239.91448 -17055655.91344  18456379.0934   18456377.1204
 -39282470.91848 -30583529.07646  16965698.2734   16965694.7064
 -18192000.75848 -14149101.69144  18363433.0694   18363431.3474
 -25564254.01646 -19897959.92042  20517563.1554   20517559.3664
 -53354674.10548 -41552249.48345  17559050.3194   17559047.5424
 -50924447.39149 -39657889.49047  16503719.3664   16503716.7804
 -14687771.49248 -11419357.59143  18828004.5774   18828002.9294
  -8422889.95347  -6544454.31642  19997357.7024   19997354.3354
 04  7 30  3  6 59.9870000  0  9G31G29G28G 7G19G27G 8G26G11
 -31434674.13749 -24466241.95746  16891180.3594   16891177.8704
 -22026291.48448 -17137514.26744  18436388.9134   18436386.7024
 -39344299.79349 -30631707.41346  16953932.4914   16953928.9764
 -18329752.07048 -14256440.34344  18337220.1244   18337218.2964
 -25523339.27046 -19866078.30742  20525349.2104   20525344.9444
 -53362328.98048 -41558214.31745  17557593.6794   17557590.7184
 -50963811.21949 -39688562.60547  16496228.8044   16496226.3744
 -14804440.66048 -11510268.60943  18805803.1244   18805801.1164
  -8511375.70347  -6613404.14542  19980520.2024   19980516.7414
 04  7 30  3  7 29.9870000  0  9G31G29G28G 7G19G27G 8G26G11
 -31556431.11349 -24561117.49646  16868010.7964   16868007.9414
 -22130855.67648 -17218992.82544  18416490.9914   18416488.4174
 -39405862.72349 -30679678.51946  16942217.2494   16942213.7734
 -18467198.46548 -14363541.40244  18311064.8124   18311063.0234
 -25482173.82846 -19834001.33042  20533182.3124   20533178.3164
 -53369636.61748 -41563908.57645  17556202.7264   17556200.4094
 -51002787.70349 -39718933.90347  16488811.6084   16488809.0344
 -14920628.20348 -11600804.33243  18783693.7264   18783691.5894
  -8599471.70347  -6682050.32942  19963755.8354   19963752.3164
 04  7 30  3  7 59.9870000  0  9G31G29G28G 7G19G27G 8G26G11
 -31677679.79749 -24655596.98046  16844937.9684   16844935.2844
 -22234929.19948 -17300089.08544  18396686.3124   18396683.7924
 -39467159.38749 -30727442.12746  16930553.2574   16930549.5194
 -18604336.65648 -14470402.28344  18284968.1094   18284966.6554
 -25440759.22346 -19801730.21242  20541063.9764   20541059.5664
 -53376595.60548 -41569331.16745  17554878.8354   17554876.1324
 -51041375.22749 -39749002.09747  16481468.9374   16481466.0344
 -15036330.90648 -11690962.26643  18761676.1244   18761673.8394
  -8687174.68447  -6750390.33242  19947066.3044   19947062.7104
 04  7 30  3  8 29.9870000  0  9G31G29G28G 7G19G27G 8G26G11
 -31798415.69149 -24749676.87146  16821962.6014   16821959.8274
 -22338508.09848 -17380799.88044  18376975.8274   18376973.6014
 -39528188.07449 -30774996.92446  16918940.0074   16918935.8594
 -18741162.48048 -14577019.75644  18258931.2264   18258929.1014
 -25399095.59847 -19769265.09442  20548991.9684   20548988.1754
 -53383203.48048 -41574480.16045  17553621.2884   17553618.8434
 -51079570.57049 -39778764.70647  16474200.4604   16474197.5934
 -15151544.09048 -11780738.73543  18739751.6944   18739749.6124
  -8774480.08647  -6818420.48742  19930453.0934   19930449.5074
 04  7 30  3  8 59.9870000  0  9G31G29G28G 7G19G27G 8G26G11
 -31918640.47749 -24843358.50146  16799084.4914   16799081.8194
 -22441594.13748 -17461126.66344  18357359.5384   18357356.9254
 -39588953.04748 -30822346.25246  16907376.6794   16907372.7654
 -18877677.41448 -14683394.99344  18232953.4764   18232951.6914
 -25357188.92247 -19736610.55242  20556966.9134   20556962.4214
 -53389463.46548 -41579358.06445  17552429.7264   17552427.2764
 -51117376.24249 -39808223.66847  16467006.4764   16467003.5934
 -15266269.33648 -11870135.01643  18717920.1794   18717918.5194
  -8861389.36347  -6886141.93942  19913914.5464   19913910.5774
 04  7 30  3  9 29.9870000  0  9G31G29G28G 7G19G27G 8G26G11
 -32038356.56248 -24936643.73446  16776303.2334   16776300.6404
 -22544189.85248 -17541071.35744  18337835.8124   18337833.5114
 -39649459.35248 -30869493.98646  16895862.7104   16895858.9014
 -19013884.08648 -14789530.02144  18207033.9844   18207032.4054
 -25315045.76647 -19703771.73342  20564986.9844   20564981.5544
 -53395379.77748 -41583968.19245  17551304.3984   17551301.0774
 -51154796.14549 -39837382.03947  16459885.4294   16459882.7414
 -15380508.85948 -11959152.81743  18696181.0854   18696179.2024
  -8947904.60947  -6953556.37442  19897451.0854   19897447.7414
 04  7 30  3  9 59.9870000  0  9G31G29G28G 7G19G27G 8G26G11
 -32157556.10548 -25029526.48446  16753620.4214   16753617.7264
 -22646287.80548 -17620628.19544  18318407.2574   18318404.9014
 -39709702.09048 -30916436.37146  16884399.0384   16884394.8194
 -19149774.69548 -14895418.77744  18181174.7884   18181173.1324
 -25272663.43747 -19670746.53542  20573051.3984   20573047.5264
 -53400946.60548 -41588305.99045  17550244.8274   17550242.0234
 -51191824.27349 -39866235.13847  16452839.4054   16452836.6244
 -15494254.82448 -12047785.99743  18674535.8664   18674533.6204
  -9034018.50047  -7020658.10242  19881064.2184   19881060.9254
 04  7 30  3 10 29.9870000  0  9G31G29G28G 7G19G27G 8G26G11
 -32276241.40249 -25122008.50346  16731035.2104   16731032.6364
 -22747890.35548 -17699798.99044  18299073.2414   18299070.7264
 -39769686.40648 -30963177.38346  16872984.5234   16872980.2654
 -19285351.57848 -15001063.05544  18155375.3274   18155373.5854
 -25230048.94147 -19637540.42742  20581161.2344   20581156.3984
 -53406167.80148 -41592374.45945  17549251.2414   17549248.6914
 -51228463.34849 -39894785.06047  16445866.9764   16445864.4374
 -15607509.16848 -12136036.10743  18652984.5854   18652982.2184
  -9119732.82047  -7087448.43642  19864753.3594   19864749.5304
 04  7 30  3 10 59.9870000  0  9G31G29G28G 7G19G27G 8G26G11
 -32394408.16848 -25214086.48246  16708548.9294   16708546.1984
 -22848993.61348 -17778580.74144  18279833.7574   18279831.3044
 -39829410.73448 -31009715.81146  16861618.8594   16861615.3044
 -19420610.42648 -15106459.50544  18129636.7804   18129634.6944
 -25187202.57047 -19604153.68742  20589314.6634   20589310.0504
 -53411040.87948 -41596171.66545  17548323.7734   17548321.5694
 -51264710.51249 -39923029.60747  16438969.6484   16438966.4874
 -15720267.84048 -12223900.00243  18631527.2964   18631525.0504
  -9205043.37147  -7153924.16542  19848518.8124   19848516.0194
 04  7 30  3 11 29.9870000  0  9G31G29G28G 7G19G27G 8G26G11
 -32512050.20349 -25305755.58746  16686162.7104   16686159.6084
 -22949591.45348 -17856968.65744  18260690.5694   18260688.0114
 -39888871.39849 -31056048.77746  16850303.7804   16850300.1834
 -19555545.23048 -15211603.47244  18103959.2344   18103957.0464
 -25144122.45747 -19570584.72642  20597511.9214   20597507.9564
 -53415561.43048 -41599694.18245  17547463.6164   17547460.8744
 -51300560.98449 -39950965.04547  16432147.6874   16432144.8044
 -15832524.18048 -12311372.45343  18610165.6944   18610163.2884
  -9289943.98047  -7220080.44942  19832362.9764   19832359.3234
 04  7 30  3 11 59.9870000  0  9G31G29G28G 7G19G27G 8G26G11
 -32629175.11749 -25397021.73746  16663874.1714   16663871.5584
 -23049691.74648 -17934968.86944  18241642.1014   18241639.5814
 -39948078.93049 -31102184.50546  16839037.1714   16839033.2534
 -19690163.42648 -15316500.71944  18078342.0234   18078340.2264
 -25100820.67647 -19536843.08642  20605752.3044   20605748.2694
 -53419738.82448 -41602949.29045  17546668.8664   17546666.4134
 -51336023.49249 -39978598.16847  16425399.1244   16425396.1874
 -15944285.87948 -12398459.44843  18588897.7104   18588895.3824
  -9374441.85247  -7285922.93242  19816284.1634   19816279.8944
 04  7 30  3 12 29.9870000  0  9G31G29G28G 7G19G27G 8G26G11
 -32745771.11749 -25487875.73146  16641686.7494   16641683.9804
 -23149282.78548 -18012572.26244  18222690.4054   18222688.0194
 -40007023.91849 -31148115.64546  16827820.1014   16827816.4684
 -19824453.36348 -15421142.19344  18052787.8124   18052785.7024
 -25057289.81646 -19502922.96142  20614035.6554   20614031.5194
 -53423562.98448 -41605929.15745  17545941.3594   17545938.2964
 -51371087.30149 -40005920.62246  16418726.6794   16418724.0544
 -16055540.72348 -12485151.51243  18567726.8194   18567724.6164
  -9458524.92647  -7351442.18642  19800282.8194   19800280.2534
 04  7 30  3 12 59.9870000  0  9G31G29G28G 7G19G27G 8G26G11
 -32861828.05949 -25578309.69246  16619601.9764   16619598.8904
 -23248355.09848 -18089771.45844  18203838.0074   18203835.4484
 -40065698.92649 -31193836.41846  16816654.7104   16816650.8314
 -19958404.88748 -15525519.96144  18027297.2494   18027295.5974
 -25013524.50447 -19468820.09442  20622363.9914   20622360.1204
 -53427025.45748 -41608627.19645  17545282.3194   17545279.7764
 -51405743.20749 -40032925.22047  16412132.1404   16412129.2184
 -16166278.77348 -12571440.89643  18546654.1554   18546651.6164
  -9542183.51247  -7416630.63542  19784363.6484   19784360.0304
 04  7 30  3 13 29.9870000  0  9G31G29G28G 7G19G27G 8G26G11
 -32977359.28549 -25668334.01046  16597616.9524   16597614.1444
 -23346921.72748 -18166576.60844  18185080.9214   18185078.5734
 -40124119.95349 -31239359.27946  16805537.5694   16805534.0304
 -20092031.32048 -15629644.40344  18001869.2184   18001867.6054
 -24969542.33247 -19434548.25842  20630734.3824   20630729.5344
 -53430141.33648 -41611055.16145  17544689.1244   17544686.7304
 -51440006.28149 -40059623.71547  16405611.8744   16405609.1634
 -16276512.94148 -12657337.60243  18525677.2964   18525674.9444
  -9625430.57847  -7481498.46542  19768521.5464   19768518.0424
 04  7 30  3 13 59.9870000  0  9G31G29G28G 7G19G27G 8G26G11
 -33092359.06249 -25757944.20146  16575733.0234   16575730.6364
 -23444977.36348 -18242983.58144  18166421.4214   18166418.4804
 -40182283.96949 -31284681.87946  16794469.4134   16794465.4764
 -20225326.98848 -15733511.10944  17976504.0154   17976501.9484
 -24925342.11747 -19400106.54742  20639144.9294   20639140.2104
 -53432906.56648 -41613209.88645  17544163.3744   17544160.4444
 -51473871.80949 -40086012.42847  16399167.5544   16399164.9214
 -16386237.45348 -12742837.20743  18504797.2734   18504794.9684
  -9708260.37547  -7546041.13742  19752759.9054   19752757.0194
 04  7 30  3 14 29.9870000  0  9G31G29G28G 7G19G27G 8G26G11
 -33206828.88349 -25847141.44546  16553950.2024   16553947.4334
 -23542523.66048 -18318993.68044  18147859.3274   18147856.7614
 -40240194.97349 -31329807.31346  16783449.1874   16783445.3624
 -20358293.36748 -15837121.22144  17951201.0464   17951199.2574
 -24880929.66046 -19365499.44642  20647596.7884   20647591.9294
 -53435324.61748 -41615094.07845  17543703.0154   17543700.2534
 -51507342.43049 -40112093.43347  16392798.1014   16392795.2534
 -16495453.70348 -12827940.73144  18484014.1714   18484011.7184
  -9790674.22347  -7610259.69342  19737077.2494   19737073.1914
 04  7 30  3 14 59.9870000  0  9G31G29G28G 7G19G27G 8G26G11
 -33320769.29749 -25935926.16246  16532268.1244   16532265.7454
 -23639561.52748 -18394607.58844  18129393.4294   18129390.9214
 -40297855.94949 -31374737.93246  16772476.8904   16772473.1554
 -20490930.89549 -15940475.10644  17925961.1244   17925958.7614
 -24836309.84447 -19330730.77842  20656087.8124   20656082.6674
 -53437397.48848 -41616709.31145  17543308.5854   17543305.7454
 -51540419.93049 -40137868.10647  16386503.6874   16386500.8944
 -16604162.00448 -12912648.49244  18463327.7184   18463325.1444
  -9872672.44547  -7674154.39642  19721473.4844   19721470.0384
 04  7 30  3 15 29.9870000  0  9G31G29G28G 7G19G27G 8G26G11
 -33434173.63749 -26024293.15846  16510687.9214   16510685.1754
 -23736084.33648 -18469820.15344  18111025.6714   18111023.2964
 -40355262.86749 -31419470.57746  16761552.4994   16761548.7574
 -20623232.99248 -16043567.60244  17900784.7574   17900782.7574
 -24791480.26646 -19295798.63242  20664617.9374   20664613.9954
 -53439120.23048 -41618051.69945  17542980.6634   17542978.0544
 -51573098.35549 -40163331.81746  16380285.2264   16380282.7064
 -16712355.54748 -12996955.12244  18442739.0234   18442736.7224
  -9954248.47747  -7737720.10242  19705949.9994   19705946.7344
 04  7 30  3 15 59.9870000  0  9G31G29G28G 7G19G27G 8G26G11
 -33547038.54749 -26112239.82846  16489210.5304   16489207.5974
 -23832089.00448 -18544628.97944  18092756.4914   18092754.1754
 -40412415.03549 -31464004.72446  16750676.6484   16750673.1054
 -20755196.05949 -16146395.92744  17875673.1634   17875670.9644
 -24746441.93746 -19260703.80142  20673188.3194   20673184.1284
 -53440491.15648 -41619119.96345  17542719.4684   17542717.0154
 -51605375.37949 -40188482.74046  16374143.1874   16374140.4444
 -16820030.69148 -13080857.79944  18422249.0694   18422247.2304
 -10035398.37947  -7800953.79242  19690507.4214   19690504.3194
 04  7 30  3 16 29.9870000  0  9G31G29G28G 7G19G27G 8G26G11
 -33659351.58649 -26199756.45846  16467838.2964   16467835.3474
 -23927563.28548 -18619024.50344  18074588.6634   18074586.0464
 -40469302.41449 -31508332.55046  16739851.8664   16739847.6444
 -20886807.81648 -16248950.49844  17850628.0074   17850625.7494
 -24701186.89146 -19225440.16842  20681800.0774   20681795.2764
 -53441499.68448 -41619905.82645  17542527.6164   17542525.1674
 -51637240.25849 -40213312.51346  16368079.4994   16368076.7734
 -16927175.03148 -13164346.88344  18401860.2344   18401857.8704
 -10116109.88747  -7863845.83542  19675148.7104   19675145.6404
 04  7 30  3 16 59.9870000  0  9G31G29G28G 7G19G27G 8G26G11
 -33771123.61749 -26286851.52446  16446568.4054   16446565.7574
 -24022518.22748 -18693015.35044  18056519.4374   18056516.6984
 -40525938.27749 -31552464.36246  16729073.8744   16729070.4414
 -21018078.84849 -16351239.57344  17825648.0464   17825645.8824
 -24655730.20346 -19190019.37242  20690450.1404   20690445.6554
 -53442158.02748 -41620418.81945  17542402.5694   17542400.1324
 -51668704.48849 -40237830.08346  16362092.1014   16362089.4764
 -17033799.17248 -13247430.61444  18381570.3274   18381568.2884
 -10196393.78946  -7926404.67042  19659870.8824   19659868.1634
 04  7 30  3 17 29.9870000  0  9G31G29G28G 7G19G27G 8G26G11
 -33882346.37949 -26373518.58246  16425403.6554   16425400.8004
 -24116945.63748 -18766595.13344  18038549.8194   18038547.5974
 -40582316.94949 -31596395.79346  16718345.3904   16718341.7454
 -21149001.05548 -16453256.85444  17800734.3664   17800732.5154
 -24610067.73446 -19154438.22742  20699139.1634   20699135.0264
 -53442459.79348 -41620653.98045  17542345.3434   17542342.5424
 -51699760.80949 -40262029.81846  16356182.1244   16356179.4254
 -17139894.64848 -13330102.39344  18361381.2104   18361378.5114
 -10276241.71947  -7988623.83742  19644676.8744   19644673.0114
 04  7 30  3 17 59.9870000  0  9G31G29G28G 7G19G27G 8G26G11
 -33993023.39849 -26459760.38946  16404342.4834   16404339.7064
 -24210849.33248 -18839766.82444  18020681.0544   18020678.3744
 -40638444.21949 -31640131.31546  16707664.8194   16707661.1204
 -21279577.73849 -16555004.86844  17775886.2964   17775884.3194
 -24564207.27045 -19118702.73942  20707866.3824   20707862.0154
 -53442410.18748 -41620615.33345  17542354.2734   17542351.8664
 -51730414.12549 -40285915.51747  16350349.0154   16350346.0464
 -17245464.77748 -13412364.81243  18341291.6634   18341289.3554
 -10355656.85946  -8050505.74042  19629564.5694   19629560.8784
 04  7 30  3 18 29.9870000  0  9G31G29G28G 7G19G27G 8G26G11
 -34103155.23849 -26545577.39046  16383385.3354   16383382.2614
 -24304230.12948 -18912531.08144  18002911.1794   18002908.6244
 -40694323.11349 -31683673.30446  16697031.6324   16697027.5694
 -21409809.50849 -16656484.13145  17751104.2964   17751102.1554
 -24518153.66446 -19082816.81142  20716629.6164   20716626.0694
 -53442011.39848 -41620304.58945  17542430.6404   17542427.8704
 -51760666.28149 -40309488.62947  16344592.2804   16344589.4804
 -17350510.10248 -13494218.30244  18321302.3044   18321300.0814
 -10434639.79347  -8112050.87142  19614534.2654   19614530.4804
 04  7 30  3 18 59.9870000  0  9G31G29G28G 7G19G27G 8G26G11
 -34212738.34449 -26630966.80446  16362531.9214   16362529.1834
 -24397084.70348 -18984885.25544  17985241.5074   17985239.1364
 -40749952.53549 -31727020.89346  16686445.7654   16686441.8084
 -21539692.50049 -16757691.61345  17726388.1244   17726386.0974
 -24471907.61345 -19046780.91642  20725429.8984   20725425.8944
 -53441261.40248 -41619720.18145  17542573.0934   17542570.2764
 -51790514.41849 -40332746.92146  16338912.3904   16338909.5584
 -17455026.58248 -13575659.69844  18301413.4764   18301410.9724
 -10513186.58247  -8173256.12542  19599587.9524   19599584.0934
 04  7 30  3 19 29.9870000  0  9G31G29G28G 7G19G27G 8G26G11
 -34321772.58249 -26715928.52646  16341783.7024   16341780.6914
 -24489413.00848 -19056829.39544  17967672.2104   17967669.3474
 -40805334.64549 -31770175.77646  16675906.6794   16675902.7374
 -21669226.52049 -16858627.17845  17701738.7574   17701736.6014
 -24425473.06245 -19010598.16442  20734266.0774   20734261.9994
 -53440161.66448 -41618863.26044  17542782.9294   17542779.7884
 -51819959.60249 -40355691.21846  16333309.1634   16333306.4134
 -17559014.09448 -13656688.91844  18281625.2734   18281623.2574
 -10591297.14847  -8234121.47842  19584723.3044   19584720.1444
 04  7 30  3 19 59.9860000  0  9G31G29G28G 7G19G27G 8G26G11
 -34430247.19149 -26800454.15946  16321141.3464   16321138.3894
 -24581204.89548 -19128355.52244  17950204.6434   17950202.1864
 -40860462.91849 -31813132.86546  16665416.1354   16665412.2484
 -21798399.95749 -16959281.75844  17677157.8694   17677155.7834
 -24378848.64846 -18974267.49442  20743138.8774   20743133.8114
 -53438706.78948 -41617729.59744  17543059.4324   17543056.7724
 -51848994.44949 -40378315.77146  16327783.9864   16327781.1194
 -17662461.89148 -13737297.57444  18261939.8384   18261937.6664
 -10668961.45747  -8294639.10442  19569944.1824   19569941.2484
 04  7 30  3 20 29.9860000  0  8G31G29G28G 7G27G 8G26G11
 -34538161.22749 -26884543.01546  16300606.1114   16300603.3464
 -24672458.79348 -19199462.43444  17932839.4014   17932836.9674
 -40915335.16049 -31855890.44446  16654974.1904   16654970.4164
 -21927213.33649 -17059655.78544  17652645.2364   17652643.0884
 -53436890.20348 -41616314.08544  17543405.2294   17543402.3154
 -51877613.89149 -40400616.63546  16322337.9084   16322335.0374
 -17765368.50848 -13817484.53944  18242357.1744   18242355.1474
 -10746176.82047  -8354806.87142  19555250.8224   19555247.5494
 04  7 30  3 20 59.9860000  0  8G31G29G28G 7G27G 8G26G11
 -34645516.18449 -26968196.21846  16280177.3304   16280174.2834
 -24763176.69948 -19270151.70944  17915576.5884   17915573.8654
 -40969956.64849 -31898452.63746  16644580.3464   16644576.1744
 -22055667.07049 -17159749.56445  17628201.1354   17628199.2764
 -53434718.43748 -41614621.80445  17543818.2054   17543815.9124
 -51905823.33249 -40422598.01746  16316969.7994   16316966.9164
 -17867735.30948 -13897250.85944  18222877.4324   18222875.0804
 -10822944.45346  -8414625.78742  19540642.2914   19540638.7484
 04  7 30  3 21 29.9860000  0  8G31G29G28G 7G27G 8G26G11
 -34752315.73849 -27051416.62946  16259853.6664   16259850.9834
 -24853362.63748 -19340426.45344  17898415.1194   17898411.7874
 -41024333.76249 -31940824.39846  16634232.4634   16634228.7054
 -22183764.88349 -17259565.99545  17603825.1664   17603822.7604
 -53432196.92248 -41612656.99845  17544298.3154   17544295.7404
 -51933627.37949 -40444263.50046  16311678.9864   16311676.0224
 -17969565.84048 -13976599.32244  18203500.0024   18203497.7094
 -10899268.66847  -8474099.18142  19526118.1824   19526115.2134
 04  7 30  3 21 59.9860000  0  8G31G29G28G 7G27G 8G26G11
 -34858545.48449 -27134193.04046  16239639.1664   16239635.9474
 -24943002.22348 -19410275.46044  17881356.8774   17881354.6004
 -41078454.39149 -31982996.32146  16623933.5574   16623929.5414
 -22311492.08249 -17359093.63944  17579519.1354   17579516.9204
 -53429312.71948 -41610409.57745  17544847.2364   17544844.4754
 -51961012.16849 -40465602.29646  16306467.7994   16306465.0144
 -18070845.39848 -14055518.43044  18184226.9324   18184224.7294
 -10975135.17647  -8533215.88242  19511681.8304   19511678.4554
 04  7 30  3 22 29.9860000  0  8G31G29G28G 7G27G 8G26G11
 -34964208.69549 -27216527.97946  16219531.6434   16219529.0264
 -25032099.07448 -19479701.56344  17864402.1974   17864399.6044
 -41132324.03949 -32024972.65746  16613682.5964   16613678.8154
 -22438851.86749 -17458334.99345  17555283.6514   17555281.3814
 -53426070.73048 -41607883.35845  17545463.9164   17545461.6234
 -51987982.39849 -40486618.04446  16301335.5024   16301332.7724
 -18171577.19948 -14134010.71844  18165058.4714   18165056.0024
 -11050546.54747  -8591977.93842  19497331.0414   19497327.5574
 04  7 30  3 22 59.9860000  0  8G31G29G28G 7G27G 8G26G11
 -35069301.09849 -27298418.16746  16199533.4634   16199530.2094
 -25120648.96548 -19548701.45444  17847551.4084   17847549.3774
 -41185940.23849 -32066751.50846  16603479.7764   16603475.8614
 -22565839.77049 -17557286.56545  17531118.4944   17531116.4204
 -53422468.25448 -41605076.24345  17546149.4634   17546146.9754
 -52014534.80949 -40507308.24046  16296282.7134   16296280.1004
 -18271756.68748 -14212072.65244  18145994.5654   18145992.3774
 -11125498.44547  -8650382.02942  19483068.0184   19483065.0684
 04  7 30  3 23 29.9860000  0  8G31G29G28G 7G27G 8G26G11
 -35173826.13349 -27379866.22246  16179642.9164   16179640.1154
 -25208655.41048 -19617277.90244  17830805.0804   17830802.0104
 -41239309.01249 -32108337.55646  16593323.9164   16593320.1354
 -22692459.07849 -17655950.91845  17507023.4474   17507021.2214
 -53418510.18448 -41601992.03845  17546902.8224   17546900.2644
 -52040673.41849 -40527675.98246  16291308.5964   16291305.9244
 -18371387.08248 -14289706.69444  18127035.6434   18127033.0534
 -11199994.08247  -8708430.50942  19468891.9634   19468888.5724
 04  7 30  3 23 59.9860000  0  8G31G29G28G 7G27G 8G26G11
 -35277776.98049 -27460866.86446  16159861.7604   16159858.8894
 -25296111.93748 -19685425.81444  17814162.2444   17814159.8224
 -41292425.69549 -32149727.16746  16583216.3074   16583212.3734
 -22818702.58249 -17754322.43545  17483000.3694   17482998.3584
 -53414191.25848 -41598626.66145  17547724.5024   17547721.9124
 -52066392.56249 -40547716.86547  16286414.2684   16286411.8074
 -18470461.37548 -14366907.40644  18108182.4944   18108180.1744
 -11274026.57846  -8766118.16742  19454804.1904   19454800.3384
 04  7 30  3 24 29.9860000  0  8G31G29G28G 7G27G 8G26G11
 -35381161.54349 -27541426.25946  16140188.2364   16140185.5184
 -25383026.76248 -19753151.65144  17797622.8774   17797620.0104
 -41345300.30149 -32190928.15546  16573154.6274   16573150.6624
 -22944578.15649 -17852407.25845  17459046.5574   17459044.8344
 -53409520.93748 -41594987.46144  17548613.5334   17548610.9014
 -52091701.21549 -40567437.89546  16281598.2054   16281595.7014
 -18568987.21548 -14443680.76844  18089433.7524   18089431.5804
 -11347603.59446  -8823450.85642  19440803.0184   19440799.2444
 04  7 30  3 24 59.9860000  0  8G31G29G28G 7G27G 8G26G11
 -35483975.47349 -27621540.98646  16120623.6584   16120620.4714
 -25469395.46547 -19820451.92844  17781187.4554   17781185.1234
 -41397930.39549 -32231938.61146  16563139.4634   16563135.4554
 -23070081.20749 -17950201.80545  17435164.6664   17435162.2334
 -53404496.46548 -41591072.29145  17549569.6354   17549566.7914
 -52116595.65249 -40586836.15846  16276861.1354   16276858.2484
 -18666960.04748 -14520023.21244  18070789.4944   18070787.6154
 -11420720.54747  -8880425.07842  19426888.8074   19426885.9944
 04  7 30  3 25 29.9860000  0  8G31G29G28G 7G27G 8G26G11
 -35586230.33649 -27701220.08046  16101164.9244   16101161.8814
 -25555229.78548 -19887335.81244  17764853.4084   17764851.2764
 -41450329.87949 -32272769.36446  16553167.9794   16553163.9984
 -23195223.00849 -18047714.85245  17411350.5024   17411348.4404
 -53399130.79348 -41586891.28144  17550590.5264   17550587.9904
 -52141088.39549 -40605921.40946  16272200.4014   16272197.7134
 -18764391.23048 -14595943.58844  18052249.2054   18052247.2834
 -11493388.89147  -8937049.71542  19413060.9554   19413057.4674
 04  7 30  3 25 59.9860000  0  8G31G29G28G 7G27G 8G26G11
 -35687912.04349 -27780452.55247  16081815.4864   16081812.6934
 -25640516.01248 -19953792.59144  17748624.4014   17748621.9284
 -41502486.77048 -32313411.09646  16543243.0024   16543239.2684
 -23319989.39149 -18144935.37945  17387608.5964   17387606.2954
 -53393411.50847 -41582434.70445  17551679.0414   17551676.4164
 -52165166.31249 -40624683.41646  16267618.4404   16267615.8304
 -18861266.52348 -14671430.80744  18033814.6664   18033812.2174
 -11565594.05146  -8993313.41542  19399320.4244   19399316.8854
 04  7 30  3 26 29.9860000  0  8G31G29G28G 7G27G 8G26G11
 -35789019.46549 -27859237.54346  16062575.4554   16062572.7174
 -25725253.00448 -20019821.40844  17732499.1904   17732496.7604
 -41554401.83648 -32353864.37446  16533364.0964   16533360.4164
 -23444378.82448 -18241862.16045  17363938.0884   17363935.7564
 -53387338.71148 -41577702.66644  17552834.6584   17552831.9554
 -52188829.23049 -40643122.05046  16263115.5184   16263112.7404
 -18957584.39548 -14746483.65744  18015485.6584   18015483.8264
 -11637334.99247  -9049215.45442  19385668.5964   19385665.2364
 04  7 30  3 26 59.9860000  0  8G31G29G28G 7G27G 8G26G11
 -35889556.66049 -27937578.18346  16043443.6354   16043441.0334
 -25809445.00448 -20085425.54344  17716478.2294   17716475.7604
 -41606081.07048 -32394133.89746  16523529.8154   16523525.8774
 -23568395.07048 -18338498.15945  17340338.1824   17340336.5104
 -53380918.09448 -41572699.59644  17554056.4554   17554053.7094
 -52212082.28148 -40661241.30246  16258690.5964   16258687.8654
 -19053348.91448 -14821105.34144  17997262.3074   17997260.5884
 -11708615.44946  -9104758.61442  19372104.3464   19372101.4084
 04  7 30  3 27 29.9860000  0  8G31G29G28G 7G27G 8G26G11
 -35989523.43749 -28015474.35046  16024420.6744   16024417.9864
 -25893091.82448 -20150604.88845  17700560.5184   17700557.9754
 -41657526.53548 -32434221.26946  16513739.8384   16513736.0724
 -23692037.77748 -18434843.08245  17316809.6514   17316807.5924
 -53374150.69548 -41567426.31744  17555343.9474   17555341.4474
 -52234925.51648 -40679041.21946  16254343.7604   16254340.6394
 -19148559.51248 -14895295.38644  17979144.6744   17979142.4714
 -11779434.95347  -9159942.59842  19358628.3614   19358623.8774
 04  7 30  3 27 59.9860000  0  8G31G29G28G 7G27G 8G26G11
 -36088914.98449 -28092922.28846  16005507.1664   16005504.3074
 -25976189.07847 -20215355.98444  17684747.7764   17684744.9714
 -41708735.29348 -32474124.17846  16503995.1664   16503991.3974
 -23815301.83648 -18530892.95045  17293353.4474   17293351.1784
 -53367033.47348 -41561880.44344  17556698.3774   17556696.0184
 -52257355.51648 -40696519.14946  16250075.1824   16250072.6394
 -19243211.02748 -14969049.77944  17961132.7914   17961130.7484
 -11849788.44946  -9214763.48142  19345240.6584   19345236.6274
 04  7 30  3 28 29.9860000  0  8G31G29G28G 7G27G 8G26G11
 -36187728.25449 -28169919.61446  15986703.6354   15986700.6234
 -26058733.64848 -20279676.41444  17669040.2834   17669037.5104
 -41759706.65248 -32513842.11846  16494296.0574   16494291.8544
 -23938183.84049 -18626645.12545  17269969.5654   17269967.4714
 -53359564.70348 -41556060.63244  17558119.6274   17558117.0764
 -52279369.62549 -40713672.99446  16245886.1194   16245883.4984
 -19337300.52348 -15042366.26544  17943228.1044   17943226.2294
 -11919673.07046  -9269219.00142  19331941.4554   19331937.7914
 04  7 30  3 28 59.9860000  0  8G31G29G28G 7G27G 8G26G11
 -36285959.19949 -28246463.18946  15968010.8934   15968008.0294
 -26140721.75848 -20343563.24644  17653438.2054   17653435.4714
 -41810437.89848 -32553372.95846  16484641.9634   16484637.9204
 -24060679.55148 -18722096.28645  17246659.4244   17246657.4014
 -53351741.70747 -41549964.80644  17559608.7524   17559605.9634
 -52300964.86349 -40730500.46046  16241776.7834   16241774.2404
 -19430823.46547 -15115241.25844  17925431.5724   17925429.0414
 -11989084.05147  -9323305.45142  19318732.9634   19318729.5224
 04  7 30  3 29 29.9860000  0  8G31G29G28G 7G27G 8G26G11
 -36383603.77749 -28322549.83846  15949429.5964   15949426.9554
 -26222149.57848 -20407013.48344  17637942.7834   17637940.2014
 -41860927.03948 -32592715.13646  16475034.0574   16475030.2524
 -24182784.63348 -18817243.05745  17223423.8074   17223421.6474
 -53343562.00448 -41543591.01744  17561164.9324   17561162.4244
 -52322138.06649 -40746999.06046  16237747.6974   16237744.8504
 -19523775.68448 -15187671.53644  17907743.0104   17907741.1624
 -12058017.11747  -9377019.51742  19305616.0184   19305611.7834
 04  7 30  3 29 59.9860000  0  8G31G29G28G 7G27G 8G26G11
 -36480672.61749 -28398187.87346  15930958.0574   15930955.4714
 -26303027.75448 -20470035.42344  17622552.1114   17622549.6044
 -41911186.55948 -32631878.38346  16465469.7834   16465466.3224
 -24304509.24649 -18912093.35645  17200260.1904   17200258.2174
 -53335037.41047 -41536948.47944  17562787.1824   17562784.5334
 -52342900.56249 -40763177.62846  16233796.8544   16233793.7484
 -19616167.45348 -15259665.12744  17890161.2914   17890159.4634
 -12126482.58246  -9430369.18442  19292586.4864   19292583.2094
 04  7 30  3 30 29.9860000  0  8G31G29G28G 7G27G 8G26G11
 -36577161.95349 -28473374.35247  15912596.7364   15912593.3854
 -26383352.68748 -20532626.28145  17607266.9554   17607264.5334
 -41961214.66448 -32670861.32846  16455949.9084   16455946.2874
 -24425849.41049 -19006644.10945  17177170.1974   17177167.9244
 -53326165.70747 -41530035.49544  17564475.6664   17564473.1474
 -52363249.29348 -40779033.79846  16229924.5494   16229921.6864
 -19707994.81648 -15331218.90244  17872687.1974   17872685.1474
 -12194476.86747  -9483351.73142  19279647.4714   19279644.3264
 04  7 30  3 30 59.9860000  0  8G31G29G28G 7G27G 8G26G11
 -36673067.07849 -28548105.59047  15894346.7604   15894343.7484
 -26463119.94148 -20594782.56144  17592087.7524   17592085.4554
 -42011008.52749 -32709661.73246  16446474.5264   16446470.4794
 -24546800.14149 -19100891.38045  17154154.1044   17154151.4244
 -53316943.57447 -41522849.42944  17566230.1194   17566227.6904
 -52383180.49649 -40794564.59946  16226131.6354   16226129.3774
 -19799252.78148 -15402328.99944  17855321.3224   17855319.1004
 -12261994.90647  -9535963.15042  19266799.8934   19266795.9364
 04  7 30  3 31 29.9860000  0  8G31G29G28G 7G27G 8G26G11
 -36768389.00049 -28622382.38646  15876207.6194   15876204.7294
 -26542330.60548 -20656505.15845  17577014.3154   17577011.8974
 -42060570.97748 -32748281.80946  16437042.8074   16437039.0764
 -24667361.92249 -19194835.57945  17131211.7524   17131209.4164
 -53307373.41047 -41515392.16544  17568051.3614   17568049.3344
 -52402695.99249 -40809771.47946  16222418.1434   16222415.2254
 -19889942.21148 -15472996.04944  17838064.2364   17838061.7214
 -12329037.33247  -9588203.97342  19254042.1584   19254038.0764
 04  7 30  3 31 59.9860000  0  8G31G29G28G 7G27G 8G26G11
 -36863121.50049 -28696199.89646  15858180.6274   15858177.8184
 -26620978.57048 -20717789.27444  17562048.1904   17562045.6044
 -42109897.53548 -32786718.09346  16427656.5494   16427652.8654
 -24787528.34849 -19288471.72145  17108344.7994   17108342.3654
 -53297450.28547 -41507659.86944  17569939.8464   17569937.2094
 -52421790.15649 -40824650.05646  16218784.7214   16218781.9044
 -19980056.60248 -15543215.05444  17820915.6584   17820913.4324
 -12395597.71947  -9640069.19142  19241375.9474   19241372.2054
 04  7 30  3 32 29.9860000  0  8G31G29G28G 7G27G 8G26G11
 -36957266.83249 -28769559.87647  15840264.9794   15840262.0334
 -26699066.29348 -20778636.84945  17547188.8464   17547186.3344
 -42158992.25848 -32824973.71646  16418314.0574   16418310.0264
 -24907301.31649 -19381801.26145  17085552.6274   17085550.2404
 -53287177.79747 -41499655.33344  17571894.8694   17571892.1544
 -52440465.85249 -40839202.54646  16215230.6664   16215227.8734
 -20069597.94948 -15612987.52044  17803876.5804   17803874.4554
 -12461677.93747  -9691560.26542  19228800.7444   19228797.5184
 04  7 30  3 32 59.9860000  0  8G31G29G28G 7G27G 8G26G11
 -37050825.75849 -28842462.90846  15822461.4244   15822458.4944
 -26776594.73848 -20839048.60944  17532435.6584   17532433.1004
 -42207857.55548 -32863050.57346  16409015.3934   16409011.2764
 -25026681.00449 -19474824.35445  17062835.5414   17062833.1234
 -53276558.02748 -41491380.20444  17573915.6114   17573912.9864
 -52458724.90648 -40853430.38446  16211755.9864   16211753.4834
 -20158566.79748 -15682313.88044  17786946.6744   17786944.1234
 -12527278.35247  -9742677.42942  19216318.2294   19216313.9794
 04  7 30  3 33 29.9860000  0  8G31G29G28G 7G27G 8G26G11
 -37143796.89149 -28914907.92446  15804769.4864   15804766.5264
 -26853562.30148 -20899023.33144  17517788.9794   17517786.3814
 -42256493.81248 -32900948.94346  16399760.3224   16399756.2014
 -25145665.76248 -19567539.70145  17040193.3614   17040190.9594
 -53265591.10548 -41482834.56344  17576002.4324   17575999.6744
 -52476566.12148 -40867332.61846  16208361.0574   16208358.3854
 -20246961.37548 -15751192.74944  17770125.2054   17770122.9634
 -12592397.52747  -9793419.62542  19203926.0264   19203922.2214
 04  7 30  3 33 59.9860000  0  8G31G29G28G 7G27G 8G26G11
 -37236176.88749 -28986892.30847  15787190.2214   15787187.4944
 -26929966.20348 -20958558.83745  17503249.8774   17503247.6234
 -42304899.34448 -32938667.53646  16390548.6514   16390545.2364
 -25264251.78948 -19659944.35145  17017627.0574   17017624.7684
 -53254274.75048 -41474016.62344  17578155.9244   17578153.5224
 -52493987.38748 -40880907.62446  16205045.9794   16205043.1934
 -20334778.28948 -15819621.50244  17753414.5104   17753411.9124
 -12657031.96547  -9843784.08742  19191626.1904   19191623.0724
 04  7 30  3 34 29.9860000  0  8G31G29G28G 7G27G 8G26G11
 -37327970.27749 -29058419.60147  15769722.6434   15769719.4714
 -27005810.89148 -21017658.59544  17488816.9794   17488814.3544
 -42353080.07448 -32976210.94946  16381380.8074   16381376.7764
 -25382443.28148 -19752041.58045  16995136.1434   16995133.6904
 -53242615.03148 -41464931.16444  17580374.4084   17580371.7764
 -52510993.76248 -40894159.35046  16201809.5494   16201806.8424
 -20422021.57047 -15887603.27044  17736812.2684   17736810.5024
 -12721185.84047  -9893774.10342  19179418.9084   19179414.7604
 04  7 30  3 34 59.9850000  0  8G31G29G28G 7G27G 8G26G11
 -37419170.33649 -29129484.55347  15752367.6464   15752364.8454
 -27081090.51248 -21076318.02544  17474491.7164   17474489.4234
 -42401032.74648 -33013576.66746  16372255.3884   16372251.6964
 -25500232.14848 -19843825.06445  16972721.4894   16972719.4034
 -53230609.69548 -41455576.37544  17582659.2634   17582656.6964
 -52527581.56248 -40907084.89846  16198653.1614   16198650.5404
 -20508684.61348 -15955132.90544  17720321.0214   17720318.9114
 -12784853.14847  -9943384.98942  19167302.9504   19167299.4824
 04  7 30  3 35 29.9850000  0  8G31G29G28G 7G27G 8G26G11
 -37509772.84849 -29200083.88646  15735126.7244   15735123.4704
 -27155799.71548 -21134532.99144  17460275.2634   17460272.8574
 -42448751.63748 -33050760.20746  16363174.5914   16363170.7864
 -25617615.52749 -19935292.59045  16950383.8254   16950381.6144
 -53218249.21148 -41445944.83144  17585011.3184   17585008.7204
 -52543742.41049 -40919677.77046  16195577.7474   16195574.9744
 -20594762.60248 -16022206.65844  17703941.1614   17703938.9704
 -12848027.30547  -9992611.58742  19155281.3964   19155277.5604
 04  7 30  3 35 59.9850000  0  8G31G29G28G 7G27G 8G26G11
 -37599785.95749 -29270223.93947  15717997.7784   15717994.8174
 -27229947.35248 -21192310.36845  17446165.4354   17446162.8644
 -42496247.93749 -33087770.29846  16354136.4664   16354132.7084
 -25734600.29749 -20026449.50345  16928122.6304   16928120.0714
 -53205546.17647 -41436046.39544  17587428.5214   17587425.8644
 -52559487.36749 -40931946.55746  16192581.8254   16192578.6814
 -20680263.53148 -16088830.73144  17687670.8724   17687668.4434
 -12910717.28147 -10041460.89142  19143350.9504   19143347.6464
 04  7 30  3 36 29.9850000  0  8G31G29G28G 7G27G 8G26G11
 -37689210.68049 -29339905.50546  15700980.5994   15700977.7594
 -27303534.65648 -21249651.10944  17432161.8494   17432159.8924
 -42543524.40248 -33124609.09846  16345140.0674   16345136.2754
 -25851187.02348 -20117296.27445  16905936.6464   16905934.4194
 -53192503.09848 -41425882.98344  17589910.8574   17589908.4314
 -52574818.29748 -40943892.72746  16189664.1614   16189661.5254
 -20765188.14848 -16155005.75744  17671510.0994   17671507.8144
 -12972923.73047 -10089933.42442  19131514.5134   19131510.5794
 04  7 30  3 36 59.9850000  0  8G31G29G28G 7G27G 8G26G11
 -37778042.66849 -29409125.22046  15684076.6534   15684073.2824
 -27376557.26248 -21306551.84945  17418266.3644   17418264.2324
 -42590577.98449 -33161274.21846  16336186.0524   16336182.2124
 -25967370.82048 -20207829.05446  16883827.7394   16883825.6854
 -53179116.64848 -41415452.00344  17592458.2634   17592455.6144
 -52589731.54349 -40955513.43946  16186826.0214   16186823.5754
 -20849531.79748 -16220728.06744  17655460.1534   17655457.8104
 -13034641.84847 -10138025.43342  19119769.5754   19119766.1074
 04  7 30  3 37 29.9850000  0  8G31G29G28G 7G27G 8G26G11
 -37866278.25849 -29477880.20147  15667285.8724   15667282.6224
 -27449011.69148 -21363009.83844  17404478.7554   17404476.4274
 -42637406.49649 -33197763.96446  16327274.6614   16327270.8574
 -26083147.52048 -20298044.61746  16861796.1774   16861793.6734
 -53165384.41448 -41404751.57244  17595071.1854   17595068.8104
 -52604223.96549 -40966806.23446  16184068.5524   16184065.5324
 -20933290.63748 -16285994.67244  17639521.2784   17639518.8494
 -13095867.90647 -10185734.03242  19108118.6304   19108115.0794
 04  7 30  3 37 59.9850000  0  8G31G29G28G 7G27G 8G26G11
 -37953913.98849 -29546167.75846  15650609.2714   15650606.0134
 -27520894.77048 -21419022.63145  17390799.9274   17390797.5284
 -42684007.96949 -33234076.79346  16318406.7634   16318402.9154
 -26198513.23448 -20387939.93646  16839842.8104   16839840.1694
 -53151304.19548 -41393779.99544  17597750.2864   17597747.9934
 -52618292.84049 -40977768.99346  16181391.2714   16181388.6964
 -21016460.81248 -16350802.59844  17623694.3804   17623692.1144
 -13156597.89847 -10233056.09742  19096562.2944   19096558.5834
 04  7 30  3 38 29.9850000  0  8G31G29G28G 7G27G 8G26G11
 -38040947.88349 -29613986.34446  15634047.5834   15634044.1774
 -27592204.35548 -21474588.54544  17377230.3574   17377227.7124
 -42730381.76649 -33270212.20746  16309582.1774   16309578.0754
 -26313465.50449 -20477513.10245  16817967.9194   16817965.7434
 -53136875.27047 -41382536.69744  17600496.5914   17600494.0834
 -52631936.55149 -40988400.44746  16178794.9034   16178792.1814
 -21099040.16448 -16415150.13044  17607980.0444   17607977.7004
 -13216829.75447 -10279989.99242  19085100.1614   19085096.8764
 04  7 30  3 38 59.9850000  0  8G31G29G28G 7G27G 8G26G11
 -38127378.09049 -29681334.53846  15617599.9824   15617597.2084
 -27662939.00449 -21529706.44844  17363769.8334   17363767.2784
 -42776527.45348 -33306169.87646  16300800.7864   16300796.9664
 -26428001.98049 -20566762.26545  16796172.3414   16796170.0094
 -53122097.01647 -41371021.20044  17603308.6934   17603306.0444
 -52645153.85949 -40998699.65046  16176279.8644   16176276.9974
 -21181026.60948 -16479035.66944  17592378.7634   17592376.2864
 -13276561.23447 -10326533.98842  19073734.4194   19073729.8334
 04  7 30  3 39 29.9850000  0  8G31G29G28G 7G27G 8G26G11
 -38213210.35949 -29748216.80046  15601266.6854   15601263.7634
 -27733104.40248 -21584380.79244  17350417.7084   17350415.1614
 -42822452.31649 -33341955.48246  16292061.9354   16292057.9854
 -26542127.93448 -20655691.54745  16774454.8964   16774452.4034
 -53106976.38747 -41359238.90244  17606186.1304   17606183.3844
 -52657950.97349 -41008671.42746  16173844.5524   16173841.7084
 -21262425.63348 -16542463.46044  17576888.5364   17576886.0954
 -13335797.78547 -10372692.26342  19062461.2714   19062457.9074
 04  7 30  3 39 59.9850000  0  8G31G29G28G 7G27G 8G26G11
 -38298443.07049 -29814631.88546  15585047.6614   15585044.2354
 -27802699.01648 -21638610.34945  17337174.0834   17337171.7864
 -42868156.32049 -33377568.98046  16283364.7474   16283360.7594
 -26655841.20349 -20744299.25545  16752815.9034   16752813.7124
 -53091512.76647 -41347189.35844  17609128.7944   17609126.4544
 -52670327.19149 -41018315.23046  16171489.5134   16171486.4504
 -21343235.34848 -16605432.05844  17561511.6534   17561509.0014
 -13394537.56247 -10418463.53642  19051283.7634   19051280.2904
 04  7 30  3 40 29.9850000  0  8G31G29G28G 7G27G 8G26G11
 -38383074.13749 -29880578.14346  15568942.6384   15568939.4114
 -27871721.22348 -21692393.89245  17324040.1854   17324037.1854
 -42913638.24249 -33413009.42946  16274709.4664   16274705.9034
 -26769139.21548 -20832583.37446  16731256.0134   16731253.6504
 -53075705.29748 -41334871.86544  17612136.5524   17612133.9434
 -52682280.56249 -41027629.53446  16169214.9274   16169212.0954
 -21423453.28949 -16667939.52944  17546246.1934   17546243.8334
 -13452777.92247 -10463845.58142  19040200.9114   19040197.2474
 04  7 30  3 40 59.9850000  0  8G31G29G28G 7G27G 8G26G11
 -38467107.12549 -29946058.37747  15552951.7004   15552948.6504
 -27940174.36348 -21745734.00045  17311013.5444   17311011.4394
 -42958902.87149 -33448280.56046  16266095.9424   16266092.1144
 -26882024.82048 -20920546.14545  16709774.4744   16709772.1614
 -53059558.77748 -41322290.19244  17615209.4744   17615206.9784
 -52693815.26649 -41036617.61446  16167019.6854   16167016.8334
 -21503082.91048 -16729988.58944  17531093.4034   17531090.8804
 -13510521.97347 -10508840.91742  19029212.4114   19029208.6934
 04  7 30  3 41 29.9850000  0  8G31G29G28G 7G27G 8G26G11
 -38550533.38749 -30011065.83246  15537076.1464   15537073.1464
 -28008050.11748 -21798624.20044  17298097.0364   17298094.9394
 -43003943.09448 -33483376.83146  16257525.5214   16257521.5284
 -26994489.02748 -21008180.55246  16688373.6924   16688370.8294
 -53043065.52747 -41309438.32644  17618348.2394   17618345.2594
 -52704923.38349 -41045273.28746  16164905.6384   16164903.1184
 -21582115.19148 -16791572.17144  17516054.0524   17516051.5914
 -13567761.18447 -10553442.85542  19018320.2324   19018316.6854
 04  7 30  3 41 59.9850000  0  8G31G29G28G 7G27G 8G26G11
 -38633352.55149 -30075600.22047  15521316.3334   15521313.3374
 -28075348.03948 -21851064.14845  17285291.2554   17285288.8294
 -43048759.87549 -33518299.00146  16248996.5834   16248992.6894
 -27106530.66849 -21095485.69546  16667052.4974   16667050.4034
 -53026226.42248 -41296316.97044  17621551.9584   17621549.9114
 -52715604.69949 -41053596.38946  16162873.5914   16162870.8414
 -21660549.47348 -16852689.79144  17501128.4894   17501125.9394
 -13624494.67647 -10597650.75942  19007523.5834   19007520.3644
 04  7 30  3 42 29.9850000  0  8G31G29G28G 7G27G 8G26G11
 -38715563.25849 -30139660.48947  15505672.0054   15505668.8214
 -28142067.01649 -21903052.96145  17272594.8644   17272592.1774
 -43093352.80949 -33553046.73246  16240511.0444   16240507.2204
 -27218148.00848 -21182460.20945  16645812.5284   16645810.2554
 -53009041.08648 -41282925.81444  17624822.5994   17624820.0284
 -52725858.69549 -41061586.50446  16160922.0364   16160919.2634
 -21738384.24248 -16913340.25344  17486316.8104   17486314.4934
 -13680720.65647 -10641463.18042  18996824.2864   18996821.0994
 04  7 30  3 42 59.9850000  0  8G31G29G28G 7G27G 8G26G11
 -38797173.55149 -30203252.89546  15490142.3724   15490138.9624
 -28208215.18748 -21954596.99145  17260006.8964   17260004.6424
 -43137731.23449 -33587627.31946  16232066.1614   16232062.2354
 -27329348.36349 -21269109.79746  16624651.9504   16624649.4394
 -52991518.79348 -41269272.10344  17628157.1144   17628154.4784
 -52735693.78949 -41069250.21746  16159050.6614   16159047.4974
 -21815627.15648 -16973529.53544  17471617.7394   17471615.6464
 -13736447.07847 -10684886.37242  18986219.9354   18986216.8294
 04  7 30  3 43 29.9850000  0  8G31G29G28G 7G27G 8G26G11
 -38878184.69549 -30266378.43847  15474726.2944   15474722.7984
 -28273794.00848 -22005697.37444  17247527.9034   17247525.5284
 -43181897.62149 -33622042.67046  16223661.5994   16223657.3374
 -27440132.56648 -21355435.10046  16603570.1464   16603567.9004
 -52973661.86348 -41255357.63344  17631554.8724   17631552.5284
 -52745111.88349 -41076588.98146  16157258.3254   16157255.4704
 -21892279.22348 -17033258.42344  17457031.9354   17457029.3804
 -13791674.76247 -10727920.89742  18975710.9114   18975707.4434
 04  7 30  3 43 59.9850000  0  8G31G29G28G 7G27G 8G26G11
 -38958593.76649 -30329034.82647  15459424.7004   15459421.7864
 -28338800.54348 -22056351.80645  17235157.6224   17235155.4004
 -43225850.10549 -33656291.33646  16215297.6774   16215293.7944
 -27550497.03949 -21441433.34246  16582568.4584   16582566.1344
 -52955468.45348 -41241180.97044  17635017.2864   17635014.8104
 -52754110.53149 -41083600.90346  16155546.2164   16155543.5324
 -21968337.26648 -17092524.40944  17442558.3964   17442556.3064
 -13846400.40647 -10770564.24042  18965296.5284   18965293.1424
 04  7 30  3 44 29.9850000  0  8G31G29G28G 7G27G 8G26G11
 -39038397.14849 -30391219.26147  15444238.8024   15444235.6814
 -28403231.36748 -22106557.65745  17222896.9504   17222894.5014
 -43269586.16049 -33690371.37446  16206974.8414   16206970.9424
 -27660437.43749 -21527101.14846  16561647.4824   16561645.0324
 -52936935.94548 -41226740.08044  17638544.1534   17638541.4464
 -52762685.93449 -41090283.02846  16153914.0054   16153911.1964
 -22043797.35948 -17151324.47744  17428198.6934   17428196.5364
 -13900619.93747 -10812813.18942  18954979.5834   18954975.2514
 04  7 30  3 44 59.9850000  0  8G31G29G28G 7G27G 8G26G11
 -39117606.00449 -30452940.42347  15429165.7784   15429162.4544
 -28467097.77348 -22156323.68145  17210743.5834   17210741.2434
 -43313118.17649 -33724292.42446  16198690.9974   16198687.0054
 -27769964.43449 -21612446.81846  16540804.8494   16540802.6614
 -52918076.50448 -41212044.41444  17642132.6534   17642130.4894
 -52770850.13749 -41096644.74746  16152360.3724   16152357.8724
 -22118670.50048 -17209667.19044  17413951.0284   17413948.5134
 -13954344.00447 -10854676.08942  18944755.3574   18944752.2124
 04  7 30  3 45 29.9850000  0  8G31G29G28G 7G27G 8G26G11
 -39196213.73448 -30514193.17646  15414207.2324   15414204.1224
 -28530393.18449 -22205644.79445  17198698.8964   17198696.1304
 -43356440.50448 -33758050.06646  16190446.8884   16190443.0754
 -27879070.80548 -21697464.72746  16520042.6924   16520040.4894
 -52898884.63348 -41197089.72944  17645784.6614   17645782.4974
 -52778597.09449 -41102681.33446  16150886.5364   16150883.5834
 -22192949.71948 -17267547.09244  17399816.1144   17399813.8964
 -14007565.92247 -10896147.70142  18934627.8414   18934624.7674
 04  7 30  3 45 59.9850000  0  8G31G29G28G 7G27G 8G26G11
 -39274220.08649 -30574977.31247  15399363.1774   15399360.0794
 -28593117.62949 -22254520.99145  17186762.5134   17186760.2284
 -43399553.75449 -33791644.78246  16182242.7244   16182238.9114
 -27987755.71149 -21782154.23346  16499360.7864   16499358.1894
 -52879361.11748 -41181876.63344  17649500.1074   17649497.2004
 -52785926.87949 -41108392.84646  16149491.8254   16149488.9004
 -22266634.50848 -17324963.80244  17385794.3724   17385792.0644
 -14060285.07447 -10937227.53242  18924595.9434   18924591.9194
 04  7 30  3 46 29.9850000  0  8G31G29G28G 7G27G 8G26G11
 -39351616.15249 -30635285.91047  15384635.0134   15384632.1264
 -28655262.16849 -22302945.29645  17174937.0214   17174934.5794
 -43442450.00049 -33825070.40946  16174079.7944   16174076.0714
 -28096009.34048 -21866507.67046  16478760.8964   16478758.4824
 -52859497.98048 -41166398.88343  17653279.9894   17653277.2714
 -52792830.34849 -41113772.17046  16148177.7244   16148175.1964
 -22339715.64148 -17381910.14344  17371887.3644   17371884.8534
 -14112492.19947 -10977908.40342  18914661.2784   18914657.4154
 04  7 30  3 46 59.9850000  0  8G31G29G28G 7G27G 8G26G11
 -39428404.04749 -30695120.61246  15370022.9664   15370019.7204
 -28716828.95749 -22350919.42945  17163221.2554   17163218.8104
 -43485132.30949 -33858329.35446  16165957.7394   16165953.7394
 -28203833.27748 -21950526.29146  16458242.6614   16458240.0404
 -52839298.34448 -41150658.92443  17657123.8184   17657121.5134
 -52799310.90649 -41118821.95746  16146944.6614   16146941.5834
 -22412195.10948 -17438387.64244  17358095.1614   17358092.6814
 -14164188.81647 -11018191.43542  18904823.7244   18904819.5644
 04  7 30  3 47 29.9850000  0  8G31G29G28G 7G27G 8G26G11
 -39504578.17649 -30754477.05447  15355527.4664   15355524.1894
 -28777812.53949 -22398439.10345  17151616.4194   17151614.1614
 -43527596.09449 -33891418.00146  16157877.1924   16157873.2514
 -28311221.22348 -22034205.17446  16437807.6224   16437804.7284
 -52818757.46548 -41134653.03743  17661032.6694   17661029.9114
 -52805362.74249 -41123537.67346  16145792.9974   16145790.1264
 -22484066.77748 -17494391.53944  17344418.0444   17344415.8884
 -14215369.28947 -11058072.31942  18895083.2554   18895080.8254
 04  7 30  3 47 59.9850000  0  8G31G29G28G 7G27G 8G26G11
 -39580135.53148 -30813352.88647  15341149.3494   15341146.2124
 -28838210.16049 -22445502.18045  17140123.1384   17140120.7474
 -43569839.50448 -33924334.92046  16149838.3964   16149834.5794
 -28418169.53548 -22117541.48746  16417455.4664   16417452.8374
 -52797873.53947 -41118379.85844  17665006.6144   17665003.6854
 -52810983.41849 -41127917.41646  16144723.6074   16144720.8644
 -22555327.49648 -17549919.36944  17330857.7864   17330855.1224
 -14266029.89847 -11097548.13442  18885443.7474   18885440.1894
 04  7 30  3 48 29.9850000  0  8G31G29G28G 7G27G 8G26G11
 -39655091.78149 -30871760.32647  15326885.5054   15326882.2634
 -28898037.59449 -22492120.95845  17128738.6464   17128736.1894
 -43611878.98049 -33957092.93946  16141838.4504   16141834.6184
 -28524693.30949 -22200546.99246  16397184.8804   16397182.2244
 -52776663.30148 -41101852.41643  17669042.5284   17669040.5604
 -52816189.23449 -41131973.90346  16143732.7634   16143729.8924
 -22625992.82848 -17604983.26344  17317410.4974   17317408.1504
 -14316186.41847 -11136631.09242  18875899.4114   18875895.8884
 04  7 30  3 48 59.9850000  0  8G31G29G28G 7G27G 8G26G11
 -39729443.94949 -30929697.06247  15312736.4974   15312733.5444
 -28957291.82449 -22538293.07545  17117463.0834   17117460.1224
 -43653711.77749 -33989689.90446  16133878.3024   16133874.4234
 -28630788.76649 -22283218.73746  16376995.5214   16376992.7944
 -52755124.27747 -41085068.80143  17673140.9664   17673138.9824
 -52820977.01249 -41135704.63146  16142821.7864   16142818.9544
 -22696059.32048 -17659580.51644  17304077.5684   17304075.3534
 -14365834.62547 -11175317.98742  18866451.6614   18866448.0214
 04  7 30  3 49 29.9850000  0  8G31G29G28G 7G27G 8G26G11
 -39803185.73049 -30987158.16347  15298704.1614   15298700.7904
 -29015966.81249 -22584013.84545  17106297.1384   17106295.0564
 -43695332.79749 -34022121.85546  16125958.0364   16125954.1924
 -28736448.80149 -22365551.20246  16356888.8414   16356886.5754
 -52733251.30547 -41068024.95143  17677303.6774   17677301.0954
 -52825341.21949 -41139105.31446  16141991.1924   16141988.2674
 -22765520.49648 -17713706.10445  17290859.4584   17290857.0284
 -14414968.23847 -11213603.90042  18857101.8184   18857098.2004
 04  7 30  3 49 59.9850000  0  8G31G29G28G 7G27G 8G26G11
 -39876311.39148 -31044139.17747  15284788.7244   15284785.4824
 -29074056.69149 -22629278.68445  17095243.0754   17095240.7324
 -43736737.29348 -34054385.07346  16118078.7714   16118074.9154
 -28841667.08649 -22447539.43746  16336866.3644   16336863.6504
 -52711039.62947 -41050717.15343  17681530.4034   17681528.2204
 -52829275.89849 -41142171.30146  16141242.3104   16141239.6534
 -22834370.34048 -17767355.33345  17277757.7084   17277754.9314
 -14463581.40647 -11251484.28342  18847850.4434   18847846.7944
 04  7 30  3 50 29.9840000  0  8G31G29G28G 7G27G 8G26G11
 -39948823.53149 -31100642.12147  15270990.1644   15270987.3134
 -29131564.95349 -22674090.29145  17084299.6644   17084297.2744
 -43777929.52049 -34086482.89346  16110240.2034   16110236.5474
 -28946444.34849 -22529184.03446  16316928.2584   16316925.4924
 -52688495.85947 -41033150.60143  17685820.4534   17685818.6764
 -52832786.55549 -41144906.87546  16140574.6094   16140571.3324
 -22902611.18048 -17820530.01044  17264772.1564   17264769.4184
 -14511676.95347 -11288961.28342  18838698.2274   18838695.3834
 04  7 30  3 50 59.9840000  0  8G31G29G28G 7G27G 8G26G11
 -40020726.09449 -31156670.06447  15257307.4924   15257304.1684
 -29188494.55949 -22718451.02045  17073466.3364   17073463.7774
 -43818911.93048 -34118417.22446  16102441.6254   16102437.5704
 -29050786.02749 -22610489.19446  16297072.6254   16297070.2344
 -52665618.47348 -41015324.07043  17690174.0084   17690171.1214
 -52835872.92649 -41147311.83446  16139987.3284   16139984.3834
 -22970246.62548 -17873232.95644  17251901.6954   17251899.1174
 -14559257.00447 -11326036.63242  18829644.2504   18829640.8444
 04  7 30  3 51 29.9840000  0  8G31G29G28G 7G27G 8G26G11
 -40092021.21549 -31212224.67947  15243740.3594   15243737.0744
 -29244848.12549 -22762362.88645  17062742.7194   17062740.0434
 -43859688.36749 -34150191.05446  16094682.3204   16094678.0674
 -29154692.24649 -22691455.05546  16277299.8364   16277297.2744
 -52642413.64848 -40997242.40943  17694589.4844   17694587.3594
 -52838539.53149 -41149389.70646  16139479.5244   16139476.6764
 -23037278.43748 -17925465.53544  17239145.5784   17239143.2314
 -14606323.81248 -11362712.05042  18820688.5784   18820683.9304
 04  7 30  3 51 59.9840000  0  8G31G29G28G 7G27G 8G26G11
 -40162716.32849 -31267311.75447  15230287.7034   15230284.4924
 -29300633.18449 -22805831.74745  17052126.8834   17052124.3564
 -43900267.16049 -34181810.88246  16086960.1804   16086956.3014
 -29258169.78149 -22772086.87446  16257608.6494   16257605.8754
 -52618889.59848 -40978912.01343  17699066.1564   17699064.0124
 -52840794.03149 -41151146.46846  16139050.9614   16139048.3284
 -23103713.85948 -17977233.40344  17226503.4064   17226500.9734
 -14652884.52747 -11398993.09142  18811827.6414   18811824.2624
 04  7 30  3 52 29.9840000  0  8G31G29G28G 7G27G 8G26G11
 -40232805.37149 -31321926.57447  15216949.9454   15216946.8364
 -29355843.96149 -22848853.11444  17041620.4384   17041618.3914
 -43940642.84849 -34213272.44246  16079276.8594   16079272.9264
 -29361211.91849 -22852379.41346  16238000.6024   16237998.2154
 -52595041.30948 -40960328.95543  17703604.6174   17703602.2274
 -52842630.78549 -41152577.69546  16138701.3134   16138698.4814
 -23169546.65248 -18028531.67544  17213975.6174   17213973.3714
 -14698932.58247 -11434874.70542  18803064.8284   18803061.1334
 04  7 30  3 52 59.9840000  0  8G31G29G28G 7G27G 8G26G11
 -40302287.79349 -31376068.68747  15203728.0004   15203724.4654
 -29410479.90649 -22891426.56045  17031223.8134   17031221.4614
 -43980815.18449 -34244575.54546  16071632.0164   16071628.3754
 -29463817.21949 -22932331.56246  16218475.1024   16218472.5354
 -52570868.83647 -40941493.26643  17708204.0394   17708202.2194
 -52844049.50849 -41153683.19446  16138431.5474   16138428.3204
 -23234775.82848 -18079359.61144  17201563.0314   17201560.8674
 -14744467.02347 -11470356.04042  18794400.4224   18794396.6604
 04  7 30  3 53 29.9840000  0  8G31G29G28G 7G27G 8G26G11
 -40371159.71948 -31429735.10247  15190622.2504   15190618.8634
 -29464537.25849 -22933549.16145  17020936.8594   17020934.3564
 -44020781.10248 -34275717.80846  16064026.9384   16064023.1844
 -29565980.98449 -23011939.66446  16199033.9694   16199031.3204
 -52546369.06247 -40922402.57043  17712866.7274   17712863.8524
 -52845046.30549 -41154459.92146  16138241.5784   16138238.5434
 -23299397.37548 -18129714.05244  17189265.9614   17189263.3634
 -14789483.68047 -11505433.93742  18785833.6494   18785830.0204
 04  7 30  3 53 59.9840000  0  8G31G29G28G 7G27G 8G26G11
 -40439421.45749 -31482926.05147  15177632.3054   15177629.2314
 -29518016.40649 -22975221.20645  17010760.1334   17010757.6564
 -44060541.60248 -34306700.00046  16056460.6644   16056456.7744
 -29667702.90649 -23091203.46446  16179677.2034   16179674.2854
 -52521543.32447 -40903057.84343  17717590.3994   17717588.0514
 -52845621.91049 -41154908.43846  16138131.9304   16138129.1564
 -23363411.39148 -18179595.09844  17177084.4144   17177081.9774
 -14833982.47347 -11540108.30142  18777365.8204   18777361.9614
 04  7 30  3 54 29.9840000  0  8G31G29G28G 7G27G 8G26G11
 -40507071.63349 -31535640.44347  15164759.0004   15164755.7814
 -29570916.14149 -23016441.77245  17000693.8204   17000691.2464
 -44100095.53148 -34337521.22946  16048934.1174   16048930.0554
 -29768980.57048 -23170121.09146  16160404.3444   16160402.0634
 -52496391.04747 -40883458.69143  17722376.7504   17722374.3914
 -52845774.82449 -41155027.59946  16138102.6954   16138100.1524
 -23426816.09448 -18229001.35144  17165018.9454   17165016.6994
 -14877961.38747 -11574377.57642  18768996.8674   18768993.0744
 04  7 30  3 54 59.9840000  0  8G31G29G28G 7G27G 8G26G11
 -40574116.39549 -31587883.08547  15152000.7814   15151997.5124
 -29623242.74249 -23057215.73245  16990736.3594   16990733.7974
 -44139449.66848 -34368186.77246  16041444.9144   16041441.2384
 -29869819.55149 -23248696.87846  16141215.2034   16141212.8594
 -52470919.12548 -40863610.45343  17727224.7274   17727222.1064
 -52845511.84849 -41154822.66446  16138152.8994   16138150.1524
 -23489617.44148 -18277937.45745  17153068.3284   17153065.9224
 -14921426.37147 -11608246.37042  18760725.9144   18760722.1644
 04  7 30  3 55 29.9840000  0  8G31G29G28G 7G27G 8G26G11
 -40640544.39549 -31639645.14147  15139359.7194   15139356.7774
 -29674984.88349 -23097534.26845  16980890.3524   16980887.7194
 -44178593.10948 -34398688.14046  16033996.4694   16033992.7894
 -29970207.48848 -23326921.22846  16122112.0944   16122109.8954
 -52445116.88347 -40843504.85943  17732134.1724   17732132.0864
 -52844821.27349 -41154284.55546  16138284.0634   16138281.7034
 -23551803.61348 -18326394.18644  17141234.6954   17141232.0904
 -14964365.52047 -11641705.36942  18752554.7194   18752550.8284
 04  7 30  3 55 59.9840000  0  8G31G29G28G 7G27G 8G26G11
 -40706364.23049 -31690933.29747  15126834.8914   15126831.3994
 -29726151.30949 -23137404.20645  16971153.7664   16971150.8524
 -44217535.01648 -34429032.48946  16026586.2424   16026582.2424
 -30070152.23448 -23404800.21846  16103093.3444   16103090.7424
 -52418993.80547 -40823149.24743  17737105.2114   17737102.6954
 -52843712.19949 -41153420.34646  16138495.3754   16138492.5164
 -23613383.40248 -18374378.45144  17129516.2584   17129513.9734
 -15006787.10947 -11674761.18542  18744482.3674   18744478.2624
 04  7 30  3 56 29.9840000  0  8G31G29G28G 7G27G 8G26G11
 -40771583.52049 -31741753.49247  15114423.7664   15114420.7814
 -29776749.73849 -23176831.53544  16961525.0314   16961522.1254
 -44256283.00449 -34459225.70246  16019212.5944   16019208.4454
 -30169660.59049 -23482339.16646  16084157.8134   16084155.4064
 -52392558.11347 -40802550.03543  17742135.5314   17742133.6644
 -52842192.47749 -41152236.13446  16138784.6094   16138781.7934
 -23674363.77348 -18421895.58844  17117912.5084   17117909.8404
 -15048698.27347 -11707419.18542  18736507.3754   18736503.3054
 04  7 30  3 56 59.9840000  0  8G31G29G28G 7G27G 8G26G11
 -40836197.55549 -31792102.07347  15102128.6494   15102125.0704
 -29826775.43049 -23215812.58745  16952005.4304   16952002.6844
 -44294833.01248 -34489264.67146  16011876.6254   16011872.8134
 -30268726.84449 -23559533.62146  16065305.9924   16065303.1094
 -52365805.82447 -40781704.13443  17747226.4774   17747224.8014
 -52840257.37949 -41150728.26346  16139153.1094   16139150.1604
 -23734739.87548 -18468941.89244  17106422.9534   17106420.6564
 -15090093.71947 -11739675.38242  18728629.3754   18728625.2424
 04  7 30  3 57 29.9840000  0  8G31G29G28G 7G27G 8G26G11
 -40900206.32449 -31841979.00947  15089947.8444   15089944.9184
 -29876228.59849 -23254347.51745  16942594.8204   16942592.2814
 -44333185.33249 -34519149.58946  16004578.5864   16004574.5044
 -30367350.23449 -23636382.99146  16046538.3444   16046535.8834
 -52338737.66047 -40760612.09443  17752377.6564   17752375.3524
 -52837907.20349 -41148896.95846  16139599.8364   16139597.3134
 -23794511.42649 -18515517.11345  17095048.8204   17095046.4494
 -15130973.18447 -11771529.48642  18720850.2344   18720846.9064
 04  7 30  3 57 59.9840000  0  8G31G29G28G 7G27G 8G26G11
 -40963613.66849 -31891387.31447  15077881.7974   15077878.3174
 -29925113.26249 -23292439.45445  16933292.5084   16933290.1414
 -44371344.14849 -34548883.72246  15997316.8364   15997313.2774
 -30465533.75449 -23712889.61646  16027855.0394   16027852.2584
 -52311358.22747 -40739277.49143  17757587.6494   17757585.2194
 -52835146.03949 -41146745.39646  16140125.4924   16140122.8134
 -23853682.04748 -18561624.07544  17083788.9304   17083786.7234
 -15171340.02747 -11802984.12742  18713168.4844   18713165.0554
 04  7 30  3 58 29.9840000  0  8G31G29G28G 7G27G 8G26G11
 -41026405.34049 -31940315.86547  15065933.0554   15065929.4264
 -29973415.25849 -23330077.36545  16924100.5554   16924098.1094
 -44409295.40649 -34578456.12046  15990095.2424   15990091.3634
 -30563262.32049 -23789041.71546  16009257.7504   16009254.9614
 -52283653.98446 -40717689.81643  17762859.7664   17762857.0084
 -52831958.98449 -41144261.96346  16140731.9534   16140728.9884
 -23912237.10548 -18607251.37244  17072646.1494   17072643.9884
 -15211179.60947 -11834027.93342  18705587.1334   18705583.4184
 04  7 30  3 58 59.9840000  0  8G31G29G28G 7G27G 8G26G11
 -41088584.07849 -31988766.81047  15054100.4304   15054097.7664
 -30021137.40649 -23367263.45145  16915019.4454   16915016.6884
 -44447042.32449 -34607869.29646  15982912.2744   15982908.4694
 -30660537.78549 -23864840.75846  15990747.0394   15990744.0824
 -52255628.35247 -40695851.70243  17768192.6254   17768190.4424
 -52828349.37149 -41141449.27846  16141419.0004   16141416.1294
 -23970179.22348 -18652401.05945  17061620.3524   17061618.0434
 -15250494.37947 -11864662.80642  18698106.0314   18698102.2074
